LiveATC.Net - Listen to live air traffic control over the Internet!
Airport/ARTCC Code
Frequency Search
(e.g., 124.400, 128.75)
Site-wide search
 


Browse Feeds
Top 50 Feeds
Coverage Map
Bad Weather Areas

LiveATC FAQ
Offer LiveATC feed
Contact LiveATC.net
Press Inquiries

LiveATC on iPhone
LiveATC on Android

Windows Phone
Windows 8/10

LiveATC Mobile
(Mobile browser)

ATC Audio Archives
Interesting Recordings

LiveATC Forums

Home Page
About LiveATC.net
Make a Donation
Terms of Use
Privacy Policy

Canadian Air Freqs

AIRMETs/SIGMETs

FAA Airport Status
Nat'l Airspace Status
Arrival Demand Charts


Server Software By:
Icecast.org
Liquidsoap

Select an area of interest:
U.S. Feeds: Class B Airports | Class C Airports | Class D/Other Airports | ARTCC (Centers)
International Feeds: Canada | Europe | Oceania | Asia | South America | North/Central America | Africa
Misc Feeds: HF Feeds
Search by ICAO/IATA airport code:   (e.g., kbos, kjfk, lax, eham, etc.)


Currently Available Live Feeds: 2642
Status Updated: Wed Oct 28 2020 23:49:38 UTC


NOTICE

Unauthorized use prohibited. See LiveATC.net Terms of Service

International Airport Feeds

 

EFKU Tower/Approach (Archives)
Siilinjarvi, Finland

Feed Status: UP
Listen in your browser - HTML5 player(in browser, HTML5)
Click here to listen with your own player(launches your MP3 player)

EFKU

EFKU Flight Activity (Flightaware)

Listeners: 2 out of 1227 total

Kuopio Approach: 130.600
Kuopio Tower: 120.150

Dutch Mil Radar (Archives)
Amsterdam, Netherlands

Feed Status: UP
Listen in your browser - HTML5 player(in browser, HTML5)
Click here to listen with your own player(launches your MP3 player)

EHLE 282325Z AUTO 23012KT 9999 NSC 09/08 Q1004

EHLE Flight Activity (Flightaware)

Listeners: 0 out of 1227 total

Dutch Mil Flight Info: 264.325
Dutch Mil Radar: 128.355
Dutch Mil Radar: 132.350

EHAA Radar ARTIP (Archives)
Amsterdam, Netherlands

Feed Status: UP
Listen in your browser - HTML5 player(in browser, HTML5)
Click here to listen with your own player(launches your MP3 player)

EHAM 282325Z 26013KT 9999 FEW025 10/06 Q1004 NOSIG

EHAM Flight Activity (Flightaware)

Listeners: 0 out of 1227 total

EHAA Radar Sector 1 ARTIP: 120.550

EHAA Radar East Inbound (Archives)
Amsterdam, Netherlands

Feed Status: UP
Listen in your browser - HTML5 player(in browser, HTML5)
Click here to listen with your own player(launches your MP3 player)

EHAM 282325Z 26013KT 9999 FEW025 10/06 Q1004 NOSIG

EHAM Flight Activity (Flightaware)

Listeners: 0 out of 1227 total

EHAA Radar Sector 2 East Inbound: 128.575

EHAA Radar East Outbound (Archives)
Amsterdam, Netherlands

Feed Status: UP
Listen in your browser - HTML5 player(in browser, HTML5)
Click here to listen with your own player(launches your MP3 player)

EHAM 282325Z 26013KT 9999 FEW025 10/06 Q1004 NOSIG

EHAM Flight Activity (Flightaware)

Listeners: 1 out of 1227 total

EHAA Radar Sector 2 East Outbound: 124.875

EHAA Radar North (Archives)
Amsterdam, Netherlands

Feed Status: UP
Listen in your browser - HTML5 player(in browser, HTML5)
Click here to listen with your own player(launches your MP3 player)

EHAM 282325Z 26013KT 9999 FEW025 10/06 Q1004 NOSIG

EHAM Flight Activity (Flightaware)

Listeners: 0 out of 1227 total

EHAA Radar Sector 1 North: 134.375

EHAA Radar Northwest (Archives)
Amsterdam, Netherlands

Feed Status: UP
Listen in your browser - HTML5 player(in browser, HTML5)
Click here to listen with your own player(launches your MP3 player)

EHAM 282325Z 26013KT 9999 FEW025 10/06 Q1004 NOSIG

EHAM Flight Activity (Flightaware)

Listeners: 0 out of 1227 total

EHAA Radar Sector 5 Northwest: 123.7000

EHAA Radar RIVER (Archives)
Amsterdam, Netherlands

Feed Status: UP
Listen in your browser - HTML5 player(in browser, HTML5)
Click here to listen with your own player(launches your MP3 player)

EHAM 282325Z 26013KT 9999 FEW025 10/06 Q1004 NOSIG

EHAM Flight Activity (Flightaware)

Listeners: 1 out of 1227 total

EHAA Radar Sector 3 RIVER: 130.950

EHAA Radar South (Archives)
Amsterdam, Netherlands

Feed Status: UP
Listen in your browser - HTML5 player(in browser, HTML5)
Click here to listen with your own player(launches your MP3 player)

EHAM 282325Z 26013KT 9999 FEW025 10/06 Q1004 NOSIG

EHAM Flight Activity (Flightaware)

Listeners: 0 out of 1227 total

EHAA Radar Sector 3 South: 123.850

EHAA Radar South (Backup) (Archives)
Amsterdam, Netherlands

Feed Status: UP
Listen in your browser - HTML5 player(in browser, HTML5)
Click here to listen with your own player(launches your MP3 player)

EHAM 282325Z 26013KT 9999 FEW025 10/06 Q1004 NOSIG

EHAM Flight Activity (Flightaware)

Listeners: 0 out of 1227 total

EHAA Radar Sector 3 South Backup : 127.775

EHAA Radar Southwest (Archives)
Amsterdam, Netherlands

Feed Status: UP
Listen in your browser - HTML5 player(in browser, HTML5)
Click here to listen with your own player(launches your MP3 player)

EHAM 282325Z 26013KT 9999 FEW025 10/06 Q1004 NOSIG

EHAM Flight Activity (Flightaware)

Listeners: 0 out of 1227 total

EHAA Radar Sector 4 Southwest: 125.750

EHAA Radar SUGOL (Archives)
Amsterdam, Netherlands

Feed Status: UP
Listen in your browser - HTML5 player(in browser, HTML5)
Click here to listen with your own player(launches your MP3 player)

EHAM 282325Z 26013KT 9999 FEW025 10/06 Q1004 NOSIG

EHAM Flight Activity (Flightaware)

Listeners: 0 out of 1227 total

EHAA Radar Sector 5 SUGOL: 118.800

EHAM Airside Ops Mgr (AOM) (Archives)
Amsterdam, Netherlands

Feed Status: UP
Listen in your browser - HTML5 player(in browser, HTML5)
Click here to listen with your own player(launches your MP3 player)

EHAM 282325Z 26013KT 9999 FEW025 10/06 Q1004 NOSIG

EHAM Flight Activity (Flightaware)

Listeners: 1 out of 1227 total

Schiphol Airside Operations Manager: 130.475

EHAM App/Dep Backup (Archives)
Amsterdam, Netherlands

Feed Status: UP
Listen in your browser - HTML5 player(in browser, HTML5)
Click here to listen with your own player(launches your MP3 player)

EHAM 282325Z 26013KT 9999 FEW025 10/06 Q1004 NOSIG

EHAM Flight Activity (Flightaware)

Listeners: 0 out of 1227 total

Schiphol App/Dep Backup: 118.075

EHAM App/Dep TMA East (Archives)
Amsterdam, Netherlands

Feed Status: UP
Listen in your browser - HTML5 player(in browser, HTML5)
Click here to listen with your own player(launches your MP3 player)

EHAM 282325Z 26013KT 9999 FEW025 10/06 Q1004 NOSIG

EHAM Flight Activity (Flightaware)

Listeners: 0 out of 1227 total

Amsterdam Approach/Departure TMA East: 119.055

EHAM App/Dep TMA West (Archives)
Amsterdam, Netherlands

Feed Status: UP
Listen in your browser - HTML5 player(in browser, HTML5)
Click here to listen with your own player(launches your MP3 player)

EHAM 282325Z 26013KT 9999 FEW025 10/06 Q1004 NOSIG

EHAM Flight Activity (Flightaware)

Listeners: 0 out of 1227 total

Amsterdam Approach/Departure TMA West: 121.200

EHAM Apron (North) (Archives)
Amsterdam, Netherlands

Feed Status: UP
Listen in your browser - HTML5 player(in browser, HTML5)
Click here to listen with your own player(launches your MP3 player)

EHAM 282325Z 26013KT 9999 FEW025 10/06 Q1004 NOSIG

EHAM Flight Activity (Flightaware)

Listeners: 0 out of 1227 total

Schiphol Apron (North): 121.880

EHAM Apron (South) (Archives)
Amsterdam, Netherlands

Feed Status: UP
Listen in your browser - HTML5 player(in browser, HTML5)
Click here to listen with your own player(launches your MP3 player)

EHAM 282325Z 26013KT 9999 FEW025 10/06 Q1004 NOSIG

EHAM Flight Activity (Flightaware)

Listeners: 0 out of 1227 total

Schiphol Apron (South): 121.780

EHAM Arrival (Primary) (Archives)
Amsterdam, Netherlands

Feed Status: UP
Listen in your browser - HTML5 player(in browser, HTML5)
Click here to listen with your own player(launches your MP3 player)

EHAM 282325Z 26013KT 9999 FEW025 10/06 Q1004 NOSIG

EHAM Flight Activity (Flightaware)

Listeners: 0 out of 1227 total

Amsterdam Arrival : 118.400

EHAM Arrival (Secondary) (Archives)
Amsterdam, Netherlands

Feed Status: UP
Listen in your browser - HTML5 player(in browser, HTML5)
Click here to listen with your own player(launches your MP3 player)

EHAM 282325Z 26013KT 9999 FEW025 10/06 Q1004 NOSIG

EHAM Flight Activity (Flightaware)

Listeners: 0 out of 1227 total

Amsterdam Arrival (Secondary): 131.150

EHAM Arrival (Secondary/Backup) (Archives)
Amsterdam, Netherlands

Feed Status: UP
Listen in your browser - HTML5 player(in browser, HTML5)
Click here to listen with your own player(launches your MP3 player)

EHAM 282325Z 26013KT 9999 FEW025 10/06 Q1004 NOSIG

EHAM Flight Activity (Flightaware)

Listeners: 0 out of 1227 total

Amsterdam Arrival (Secondary Backup): 131.275

EHAM Arrival Backup/Discrete (Archives)
Amsterdam, Netherlands

Feed Status: UP
Listen in your browser - HTML5 player(in browser, HTML5)
Click here to listen with your own player(launches your MP3 player)

EHAM 282325Z 26013KT 9999 FEW025 10/06 Q1004 NOSIG

EHAM Flight Activity (Flightaware)

Listeners: 0 out of 1227 total

Schiphol Arrival Backup: 126.675

EHAM Clearance Delivery (Archives)
Amsterdam, Netherlands

Feed Status: UP
Listen in your browser - HTML5 player(in browser, HTML5)
Click here to listen with your own player(launches your MP3 player)

EHAM 282325Z 26013KT 9999 FEW025 10/06 Q1004 NOSIG

EHAM Flight Activity (Flightaware)

Listeners: 0 out of 1227 total

Schiphol Clearance Delivery: 121.980

EHAM Ground (Backup) (Archives)
Amsterdam, Netherlands

Feed Status: UP
Listen in your browser - HTML5 player(in browser, HTML5)
Click here to listen with your own player(launches your MP3 player)

EHAM 282325Z 26013KT 9999 FEW025 10/06 Q1004 NOSIG

EHAM Flight Activity (Flightaware)

Listeners: 0 out of 1227 total

Schiphol Ground (Backup): 122.425

EHAM Ground (North) (Archives)
Amsterdam, Netherlands

Feed Status: UP
Listen in your browser - HTML5 player(in browser, HTML5)
Click here to listen with your own player(launches your MP3 player)

EHAM 282325Z 26013KT 9999 FEW025 10/06 Q1004 NOSIG

EHAM Flight Activity (Flightaware)

Listeners: 0 out of 1227 total

Schiphol Ground (North): 121.805

EHAM Ground (South) (Archives)
Amsterdam, Netherlands

Feed Status: UP
Listen in your browser - HTML5 player(in browser, HTML5)
Click here to listen with your own player(launches your MP3 player)

EHAM 282325Z 26013KT 9999 FEW025 10/06 Q1004 NOSIG

EHAM Flight Activity (Flightaware)

Listeners: 0 out of 1227 total

Schiphol Ground (South): 121.705

EHAM Ground (West) (Archives)
Amsterdam, Netherlands

Feed Status: UP
Listen in your browser - HTML5 player(in browser, HTML5)
Click here to listen with your own player(launches your MP3 player)

EHAM 282325Z 26013KT 9999 FEW025 10/06 Q1004 NOSIG

EHAM Flight Activity (Flightaware)

Listeners: 0 out of 1227 total

Schiphol Ground (West): 121.560

EHAM Info North Sea (North) (Archives)
Amsterdam, Netherlands

Feed Status: UP
Listen in your browser - HTML5 player(in browser, HTML5)
Click here to listen with your own player(launches your MP3 player)

EHAM 282325Z 26013KT 9999 FEW025 10/06 Q1004 NOSIG

EHAM Flight Activity (Flightaware)

Listeners: 0 out of 1227 total

Amsterdam Info North Sea (North): 119.175

EHAM Info North Sea (Over Land) (Archives)
Amsterdam, Netherlands

Feed Status: UP
Listen in your browser - HTML5 player(in browser, HTML5)
Click here to listen with your own player(launches your MP3 player)

EHAM 282325Z 26013KT 9999 FEW025 10/06 Q1004 NOSIG

EHAM Flight Activity (Flightaware)

Listeners: 0 out of 1227 total

Amsterdam Info North Sea (Over Land): 124.300

EHAM Info North Sea (South) (Archives)
Amsterdam, Netherlands

Feed Status: UP
Listen in your browser - HTML5 player(in browser, HTML5)
Click here to listen with your own player(launches your MP3 player)

EHAM 282325Z 26013KT 9999 FEW025 10/06 Q1004 NOSIG

EHAM Flight Activity (Flightaware)

Listeners: 0 out of 1227 total

Amsterdam Info North Sea (South): 136.650

EHAM Ops
Amsterdam, Netherlands

Feed Status: DOWN
Offline since: 2020-03-16 09:18:38 UTC

EHAM 282325Z 26013KT 9999 FEW025 10/06 Q1004 NOSIG

Schiphol Ops 1: 465.770
Schiphol Ops 2: 466.470
Schiphol Runway Ops: 447.175

EHAM Schiphol Outbound Planner (Archives)
Amsterdam, Netherlands

Feed Status: UP
Listen in your browser - HTML5 player(in browser, HTML5)
Click here to listen with your own player(launches your MP3 player)

EHAM 282325Z 26013KT 9999 FEW025 10/06 Q1004 NOSIG

EHAM Flight Activity (Flightaware)

Listeners: 0 out of 1227 total

Schiphol Outbound Planner: 121.655

EHAM Tow Traffic (Archives)
Amsterdam, Netherlands

Feed Status: UP
Listen in your browser - HTML5 player(in browser, HTML5)
Click here to listen with your own player(launches your MP3 player)

EHAM 282325Z 26013KT 9999 FEW025 10/06 Q1004 NOSIG

EHAM Flight Activity (Flightaware)

Listeners: 0 out of 1227 total

Schiphol Tow Traffic: 134.875

EHAM Tower (06/24) (Archives)
Amsterdam, Netherlands

Feed Status: UP
Listen in your browser - HTML5 player(in browser, HTML5)
Click here to listen with your own player(launches your MP3 player)

EHAM 282325Z 26013KT 9999 FEW025 10/06 Q1004 NOSIG

EHAM Flight Activity (Flightaware)

Listeners: 0 out of 1227 total

Schiphol Tower Main 06/24: 135.110

EHAM Tower (18C/36C-27/09) (Archives)
Amsterdam, Netherlands

Feed Status: UP
Listen in your browser - HTML5 player(in browser, HTML5)
Click here to listen with your own player(launches your MP3 player)

EHAM 282325Z 26013KT 9999 FEW025 10/06 Q1004 NOSIG

EHAM Flight Activity (Flightaware)

Listeners: 1 out of 1227 total

Schiphol Tower Main 18C/36C - 27/09: 118.100

EHAM Tower (18L/36R-22/04) (Archives)
Amsterdam, Netherlands

Feed Status: UP
Listen in your browser - HTML5 player(in browser, HTML5)
Click here to listen with your own player(launches your MP3 player)

EHAM 282325Z 26013KT 9999 FEW025 10/06 Q1004 NOSIG

EHAM Flight Activity (Flightaware)

Listeners: 0 out of 1227 total

Schiphol Tower Main 18L/36R - 22/04: 119.225

EHAM Tower Backup (Archives)
Amsterdam, Netherlands

Feed Status: UP
Listen in your browser - HTML5 player(in browser, HTML5)
Click here to listen with your own player(launches your MP3 player)

EHAM 282325Z 26013KT 9999 FEW025 10/06 Q1004 NOSIG

EHAM Flight Activity (Flightaware)

Listeners: 0 out of 1227 total

Schiphol Tower Backup: 119.905

EHAM Tower West (18R/36L) (Archives)
Amsterdam, Netherlands

Feed Status: UP
Listen in your browser - HTML5 player(in browser, HTML5)
Click here to listen with your own player(launches your MP3 player)

EHAM 282325Z 26013KT 9999 FEW025 10/06 Q1004 NOSIG

EHAM Flight Activity (Flightaware)

Listeners: 0 out of 1227 total

Schiphol Tower West 18R/36L: 118.280

EHBK ATIS (Archives)
Beek, Netherlands

Feed Status: UP
Listen in your browser - HTML5 player(in browser, HTML5)
Click here to listen with your own player(launches your MP3 player)

EHBK

EHBK Flight Activity (Flightaware)

Listeners: 0 out of 1227 total

Beek ATIS: 124.575

EHBK Gnd/Twr/App (Archives)
Beek, Netherlands

Feed Status: UP
Listen in your browser - HTML5 player(in browser, HTML5)
Click here to listen with your own player(launches your MP3 player)

EHBK

EHBK Flight Activity (Flightaware)

Listeners: 1 out of 1227 total

Beek Approach: 120.200
Beek Approach: 123.975
Beek Ground: 121.825
Beek Tower: 119.475
Beek Tower: 119.700

MUAC/Eurocontrol Delta High (Archives)
Beek, Netherlands

Feed Status: UP
Listen in your browser - HTML5 player(in browser, HTML5)
Click here to listen with your own player(launches your MP3 player)

EHBK

EHBK Flight Activity (Flightaware)

Listeners: 0 out of 1227 total

MUAC Delta High Sector: 132.085

MUAC/Eurocontrol Koksy (Archives)
Beek, Netherlands

Feed Status: UP
Listen in your browser - HTML5 player(in browser, HTML5)
Click here to listen with your own player(launches your MP3 player)

EHBK

EHBK Flight Activity (Flightaware)

Listeners: 0 out of 1227 total

MUAC Koksy Sector: 132.205

MUAC/Eurocontrol Koksy High (Archives)
Beek, Netherlands

Feed Status: UP
Listen in your browser - HTML5 player(in browser, HTML5)
Click here to listen with your own player(launches your MP3 player)

EHBK

EHBK Flight Activity (Flightaware)

Listeners: 0 out of 1227 total

MUAC Koksy High Sector: 132.755

MUAC/Eurocontrol Lux High (Archives)
Beek, Netherlands

Feed Status: UP
Listen in your browser - HTML5 player(in browser, HTML5)
Click here to listen with your own player(launches your MP3 player)

EHBK

EHBK Flight Activity (Flightaware)

Listeners: 0 out of 1227 total

MUAC Lux High Sector: 132.315

MUAC/Eurocontrol Lux Low (Archives)
Beek, Netherlands

Feed Status: UP
Listen in your browser - HTML5 player(in browser, HTML5)
Click here to listen with your own player(launches your MP3 player)

EHBK

EHBK Flight Activity (Flightaware)

Listeners: 0 out of 1227 total

MUAC Lux Low Sector: 133.355

MUAC/Eurocontrol Olno Low (Archives)
Beek, Netherlands

Feed Status: UP
Listen in your browser - HTML5 player(in browser, HTML5)
Click here to listen with your own player(launches your MP3 player)

EHBK

EHBK Flight Activity (Flightaware)

Listeners: 0 out of 1227 total

MUAC Olno Low Sector: 132.855

MUAC/Eurocontrol Ruhr (Archives)
Beek, Netherlands

Feed Status: UP
Listen in your browser - HTML5 player(in browser, HTML5)
Click here to listen with your own player(launches your MP3 player)

EHBK

EHBK Flight Activity (Flightaware)

Listeners: 1 out of 1227 total

MUAC Ruhr Sector: 132.515

EHEH Approach #1 (Archives)
Eindhoven, Netherlands

Feed Status: UP
Listen in your browser - HTML5 player(in browser, HTML5)
Click here to listen with your own player(launches your MP3 player)

EHEH 282325Z AUTO 22013KT 190V250 9999 NCD 09/08 Q1006 BLU

EHEH Flight Activity (Flightaware)

Listeners: 3 out of 1227 total

DutchMil: 132.530
DutchMil RAPCON South: 379.925
DutchMil RAPCON South: 123.180
Eindhoven Arrival/Director: 124.530

EHEH Ground
Eindhoven, Netherlands

Feed Status: DOWN
Offline since: 2020-04-23 06:00:22 UTC

EHEH 282325Z AUTO 22013KT 190V250 9999 NCD 09/08 Q1006 BLU

Eindhoven Ground: 121.930
Eindhoven Ground: 369.250

EHEH Tower #1 (Archives)
Eindhoven, Netherlands

Feed Status: UP
Listen in your browser - HTML5 player(in browser, HTML5)
Click here to listen with your own player(launches your MP3 player)

EHEH 282325Z AUTO 22013KT 190V250 9999 NCD 09/08 Q1006 BLU

EHEH Flight Activity (Flightaware)

Listeners: 1 out of 1227 total

Budel Tower: 122.155
Eindhoven Tower: 131.005
Emergency/Guard: 121.500
Generic Tower: 122.100
Volkel Tower: 372.225
Volkel Tower: 136.080

EHEH Tower #2
Eindhoven, Netherlands

Feed Status: DOWN
Offline since: 2020-04-23 06:00:22 UTC

EHEH 282325Z AUTO 22013KT 190V250 9999 NCD 09/08 Q1006 BLU

Eindhoven Tower: 122.100
Eindhoven Tower: 131.005
Eindhoven Tower: 281.150

EHGG Approach (Archives)
Groningen, Netherlands

Feed Status: UP
Listen in your browser - HTML5 player(in browser, HTML5)
Click here to listen with your own player(launches your MP3 player)

EHGG

EHGG Flight Activity (Flightaware)

Listeners: 0 out of 1227 total

Eelde Approach: 120.305

EHGG ATIS (Archives)
Groningen, Netherlands

Feed Status: UP
Listen in your browser - HTML5 player(in browser, HTML5)
Click here to listen with your own player(launches your MP3 player)

EHGG

EHGG Flight Activity (Flightaware)

Listeners: 0 out of 1227 total

Groningen ATIS: 133.555

EHGG Ground (Archives)
Groningen, Netherlands

Feed Status: UP
Listen in your browser - HTML5 player(in browser, HTML5)
Click here to listen with your own player(launches your MP3 player)

EHGG

EHGG Flight Activity (Flightaware)

Listeners: 0 out of 1227 total

Eelde Clearance Delivery/Ground: 121.705

EHGG Guard/Emergency (Archives)
Groningen, Netherlands

Feed Status: UP
Listen in your browser - HTML5 player(in browser, HTML5)
Click here to listen with your own player(launches your MP3 player)

EHGG

EHGG Flight Activity (Flightaware)

Listeners: 0 out of 1227 total

Emergency/Guard: 121.500

EHGG Tower (Archives)
Groningen, Netherlands

Feed Status: UP
Listen in your browser - HTML5 player(in browser, HTML5)
Click here to listen with your own player(launches your MP3 player)

EHGG

EHGG Flight Activity (Flightaware)

Listeners: 1 out of 1227 total

Eelde Tower: 118.705

EHGG Twr/App (Secondary) (Archives)
Groningen, Netherlands

Feed Status: UP
Listen in your browser - HTML5 player(in browser, HTML5)
Click here to listen with your own player(launches your MP3 player)

EHGG

EHGG Flight Activity (Flightaware)

Listeners: 0 out of 1227 total

Eelde Tower/App (Backup): 119.705

MUAC/Eurocontrol (EHGG Area) (Archives)
Groningen, Netherlands

Feed Status: UP
Listen in your browser - HTML5 player(in browser, HTML5)
Click here to listen with your own player(launches your MP3 player)

EHGG

EHGG Flight Activity (Flightaware)

Listeners: 0 out of 1227 total

MUAC Holstein High Sector: 132.775
MUAC Holstein Sector: 120.9333
MUAC Javer High Sector: 134.700
MUAC Jever Sector: 136.4666

EHGR Ground (Archives)
Breda, Netherlands

Feed Status: UP
Listen in your browser - HTML5 player(in browser, HTML5)
Click here to listen with your own player(launches your MP3 player)

EHGR 282325Z AUTO 22009KT 200V260 9999 NCD 10/08 Q1006 BLU

EHGR Flight Activity (Flightaware)

Listeners: 0 out of 1227 total

Gilze Rijen Ground: 121.680

EHGR Ground/Tower (Archives)
Breda, Netherlands

Feed Status: UP
Listen in your browser - HTML5 player(in browser, HTML5)
Click here to listen with your own player(launches your MP3 player)

EHGR 282325Z AUTO 22009KT 200V260 9999 NCD 10/08 Q1006 BLU

EHGR Flight Activity (Flightaware)

Listeners: 0 out of 1227 total

Gilze Rijen Ground: 121.680
Gilze Rijen Tower: 125.330

EHGR Tower (Archives)
Breda, Netherlands

Feed Status: UP
Listen in your browser - HTML5 player(in browser, HTML5)
Click here to listen with your own player(launches your MP3 player)

EHGR 282325Z AUTO 22009KT 200V260 9999 NCD 10/08 Q1006 BLU

EHGR Flight Activity (Flightaware)

Listeners: 0 out of 1227 total

Gilze Rijen Tower: 125.330

EHHV CTAF (Archives)
Hilversum, Netherlands

Feed Status: UP
Listen in your browser - HTML5 player(in browser, HTML5)
Click here to listen with your own player(launches your MP3 player)

EHHV Flight Activity (Flightaware)

Listeners: 0 out of 1227 total

Hilversum Radio: 131.025

EHKD ATIS (Archives)
Den Helder, Netherlands

Feed Status: UP
Listen in your browser - HTML5 player(in browser, HTML5)
Click here to listen with your own player(launches your MP3 player)

EHKD

EHKD Flight Activity (Flightaware)

Listeners: 0 out of 1227 total

De Kooy ATIS: 133.015

EHKD Ground/Tower (Archives)
Den Helder, Netherlands

Feed Status: UP
Listen in your browser - HTML5 player(in browser, HTML5)
Click here to listen with your own player(launches your MP3 player)

EHKD

EHKD Flight Activity (Flightaware)

Listeners: 0 out of 1227 total

De Kooy Ground: 121.730
De Kooy Tower: 120.130

Approach/Dutch Mil Radar (Archives)
Lelystad, Netherlands

Feed Status: UP
Listen in your browser - HTML5 player(in browser, HTML5)
Click here to listen with your own player(launches your MP3 player)

EHLE 282325Z AUTO 23012KT 9999 NSC 09/08 Q1004

EHLE Flight Activity (Flightaware)

Listeners: 0 out of 1227 total

Dutch Mil Flight Info: 264.325
Dutch Mil Radar: 128.355
Dutch Mil Radar: 132.350

EHLE Tower (Archives)
Lelystad, Netherlands

Feed Status: UP
Listen in your browser - HTML5 player(in browser, HTML5)
Click here to listen with your own player(launches your MP3 player)

EHLE 282325Z AUTO 23012KT 9999 NSC 09/08 Q1004

EHLE Flight Activity (Flightaware)

Listeners: 1 out of 1227 total

Lelystad Clearance Delivery: 123.680
Lelystad Tower: 135.180
Lelystad Tower: 123.830

EHMC/EHML Military/Radar
Nieuw-Milligen, Netherlands

Feed Status: DOWN
Offline since: 2020-10-08 18:29:22 UTC

AMCC: 234.000
Belga Radar: 129.325
Command Post: 313.550
Dutch Military Radar: 120.825
Dutch Military Radar: 125.925
Dutch Military Radar: 128.350
GCI: 363.100
Lippe Radar: 131.075
London Mil: 135.275
Meteo: 284.425

EHMC/EHML Military/Radar
Nieuw-Milligen, Netherlands

Feed Status: DOWN
Offline since: 2020-10-08 18:29:22 UTC

AMCC: 234.000
Belga Radar: 129.325
Command Post: 313.550
Dutch Military Radar: 120.825
Dutch Military Radar: 125.925
Dutch Military Radar: 128.350
GCI: 363.100
Lippe Radar: 131.075
London Mil: 135.275
Meteo: 284.425

EHMM CTAF (Archives)
Middenmeer, Netherlands

Feed Status: UP
Listen in your browser - HTML5 player(in browser, HTML5)
Click here to listen with your own player(launches your MP3 player)

EHMM Flight Activity (Flightaware)

Listeners: 0 out of 1227 total

Middenmeer CTAF: 123.425

EHMZ (Archives)
Middelburg, Netherlands

Feed Status: UP
Listen in your browser - HTML5 player(in browser, HTML5)
Click here to listen with your own player(launches your MP3 player)

EHMZ Flight Activity (Flightaware)

Listeners: 0 out of 1227 total

Midden-Zeeland Radio: 119.255

EHRD Approach (Archives)
Rotterdam, Netherlands

Feed Status: UP
Listen in your browser - HTML5 player(in browser, HTML5)
Click here to listen with your own player(launches your MP3 player)

EHRD 282325Z AUTO 24012G26KT 190V280 9999 RA SCT015CB SCT016 BKN020 OVC025 09/08 Q1005 TEMPO 25020G30KT 4000 SHRA SCT020CB

EHRD Flight Activity (Flightaware)

Listeners: 0 out of 1227 total

Rotterdam Approach: 122.990
Rotterdam Approach: 124.535
Rotterdam Approach: 281.050

EHRD Clearance Delivery (Archives)
Rotterdam, Netherlands

Feed Status: UP
Listen in your browser - HTML5 player(in browser, HTML5)
Click here to listen with your own player(launches your MP3 player)

EHRD 282325Z AUTO 24012G26KT 190V280 9999 RA SCT015CB SCT016 BKN020 OVC025 09/08 Q1005 TEMPO 25020G30KT 4000 SHRA SCT020CB

EHRD Flight Activity (Flightaware)

Listeners: 0 out of 1227 total

Rotterdam Del/Gnd: 122.180

EHRD Del/Twr (Archives)
Rotterdam, Netherlands

Feed Status: UP
Listen in your browser - HTML5 player(in browser, HTML5)
Click here to listen with your own player(launches your MP3 player)

EHRD 282325Z AUTO 24012G26KT 190V280 9999 RA SCT015CB SCT016 BKN020 OVC025 09/08 Q1005 TEMPO 25020G30KT 4000 SHRA SCT020CB

EHRD Flight Activity (Flightaware)

Listeners: 0 out of 1227 total

Rotterdam Del/Gnd: 122.180
Rotterdam Tower: 118.205

EHRD Gnd/Twr/App (Archives)
Rotterdam, Netherlands

Feed Status: UP
Listen in your browser - HTML5 player(in browser, HTML5)
Click here to listen with your own player(launches your MP3 player)

EHRD 282325Z AUTO 24012G26KT 190V280 9999 RA SCT015CB SCT016 BKN020 OVC025 09/08 Q1005 TEMPO 25020G30KT 4000 SHRA SCT020CB

EHRD Flight Activity (Flightaware)

Listeners: 2 out of 1227 total

Adam Info: 124.300
Regional Guard: 119.705
Rotterdam Approach: 127.025
Rotterdam Del/Gnd: 122.180
Rotterdam Tower: 118.205
SAR: 123.100
SAR: 282.800

EHRD Tower (Archives)
Rotterdam, Netherlands

Feed Status: UP
Listen in your browser - HTML5 player(in browser, HTML5)
Click here to listen with your own player(launches your MP3 player)

EHRD 282325Z AUTO 24012G26KT 190V280 9999 RA SCT015CB SCT016 BKN020 OVC025 09/08 Q1005 TEMPO 25020G30KT 4000 SHRA SCT020CB

EHRD Flight Activity (Flightaware)

Listeners: 0 out of 1227 total

Rotterdam Tower: 118.205
Rotterdam Tower: 362.300

EHRD Twr/App
Rotterdam, Netherlands

Feed Status: DOWN
Offline since: 2020-03-14 14:15:39 UTC

EHRD 282325Z AUTO 24012G26KT 190V280 9999 RA SCT015CB SCT016 BKN020 OVC025 09/08 Q1005 TEMPO 25020G30KT 4000 SHRA SCT020CB

Rotterdam Approach: 127.025
Rotterdam Tower: 118.205

EHTX Gnd/Twr (Archives)
Texel, Netherlands

Feed Status: UP
Listen in your browser - HTML5 player(in browser, HTML5)
Click here to listen with your own player(launches your MP3 player)

EHTX Flight Activity (Flightaware)

Listeners: 0 out of 1227 total

Texel Radio (Ground/Tower): 119.300

EHVL CTAF/Range Control (Archives)
Vlieland, Netherlands

Feed Status: UP
Listen in your browser - HTML5 player(in browser, HTML5)
Click here to listen with your own player(launches your MP3 player)

EHVL

EHVL Flight Activity (Flightaware)

Listeners: 0 out of 1227 total

Cornfield VHF (CTAF): 122.100
Range Controller (Primary): 291.650
Range Controller (Secondary): 370.300
Range Controller VHF: 138.075

EICK Approach/Departure
Cork, Ireland

Feed Status: DOWN
Offline since: 2020-09-05 00:12:22 UTC

EICK

Cork Approach: 119.900

EICK Gnd/Twr/App/Dep
Cork, Ireland

Feed Status: DOWN
Offline since: 2020-09-05 00:12:22 UTC

EICK

Cork Approach: 119.900
Cork Ground: 121.850
Cork Tower: 119.300

EICK Ground/Tower
Cork, Ireland

Feed Status: DOWN
Offline since: 2020-09-05 00:12:22 UTC

EICK

Cork Ground: 121.850
Cork Tower: 119.300

EIDW Approach (Archives)
Dublin, Ireland

Feed Status: UP
Listen in your browser - HTML5 player(in browser, HTML5)
Click here to listen with your own player(launches your MP3 player)

EIDW

EIDW Flight Activity (Flightaware)

Listeners: 1 out of 1227 total

Dublin Approach: 121.100

EIDW Approach (Final) (Archives)
Dublin, Ireland

Feed Status: UP
Listen in your browser - HTML5 player(in browser, HTML5)
Click here to listen with your own player(launches your MP3 player)

EIDW

EIDW Flight Activity (Flightaware)

Listeners: 1 out of 1227 total

Dublin Approach (Final): 119.925

EIDW Clearance Delivery (Archives)
Dublin, Ireland

Feed Status: UP
Listen in your browser - HTML5 player(in browser, HTML5)
Click here to listen with your own player(launches your MP3 player)

EIDW

EIDW Flight Activity (Flightaware)

Listeners: 1 out of 1227 total

Dublin Clearance Delivery: 121.875

EIDW Del/Gnd/Twr/App/Center (Archives)
Dublin, Ireland

Feed Status: UP
Listen in your browser - HTML5 player(in browser, HTML5)
Click here to listen with your own player(launches your MP3 player)

EIDW

EIDW Flight Activity (Flightaware)

Listeners: 7 out of 1227 total

Dublin Approach: 121.100
Dublin Approach (backup): 119.550
Dublin Centre North: 129.175
Dublin Centre South: 126.250
Dublin Clearance Delivery: 121.875
Dublin FIS: 118.500
Dublin Ground: 121.800
Dublin Tower: 118.600

EIDW Ground (Archives)
Dublin, Ireland

Feed Status: UP
Listen in your browser - HTML5 player(in browser, HTML5)
Click here to listen with your own player(launches your MP3 player)

EIDW

EIDW Flight Activity (Flightaware)

Listeners: 1 out of 1227 total

Dublin Ground: 121.800

EIDW Ground (North) (Archives)
Dublin, Ireland

Feed Status: UP
Listen in your browser - HTML5 player(in browser, HTML5)
Click here to listen with your own player(launches your MP3 player)

EIDW

EIDW Flight Activity (Flightaware)

Listeners: 1 out of 1227 total

Dublin Ground (North): 118.750

EIDW Tower (Archives)
Dublin, Ireland

Feed Status: UP
Listen in your browser - HTML5 player(in browser, HTML5)
Click here to listen with your own player(launches your MP3 player)

EIDW

EIDW Flight Activity (Flightaware)

Listeners: 2 out of 1227 total

Dublin Tower: 118.600

EIKN Gnd/Twr/App (Archives)
Charlestown, Ireland

Feed Status: UP
Listen in your browser - HTML5 player(in browser, HTML5)
Click here to listen with your own player(launches your MP3 player)

EIKN

EIKN Flight Activity (Flightaware)

Listeners: 0 out of 1227 total

Connaught Ground: 121.900
Connaught Tower: 130.700
Shannon Low Level: 119.075

EINN Shannon Control High (East) (Archives)
Shannon, Ireland

Feed Status: UP
Listen in your browser - HTML5 player(in browser, HTML5)
Click here to listen with your own player(launches your MP3 player)

EINN

EINN Flight Activity (Flightaware)

Listeners: 0 out of 1227 total

Shannon Clearance (Oceanic only): 121.700
Shannon Control: 134.260
Shannon Control: 134.630
Shannon Control: 135.230
Shannon Control: 135.600
Shannon Control: 136.255
Shannon Control (BABAN/DEVOL Sector): 132.150

EINN Shannon Control High (West/Coastal) (Archives)
Shannon, Ireland

Feed Status: UP
Listen in your browser - HTML5 player(in browser, HTML5)
Click here to listen with your own player(launches your MP3 player)

EINN

EINN Flight Activity (Flightaware)

Listeners: 1 out of 1227 total

Shannon Control: 131.150
Shannon Control: 125.880
Shannon Control: 120.040
Shannon Control: 122.980
Shannon Control: 127.130
Shannon Control: 129.665
Shannon Control: 133.360

EINN Shannon Control Low (Archives)
Shannon, Ireland

Feed Status: UP
Listen in your browser - HTML5 player(in browser, HTML5)
Click here to listen with your own player(launches your MP3 player)

EINN

EINN Flight Activity (Flightaware)

Listeners: 0 out of 1227 total

Shannon Control (Low): 119.080
Shannon Control Low: 124.700

EINN Twr/App #1 (Archives)
Shannon, Ireland

Feed Status: UP
Listen in your browser - HTML5 player(in browser, HTML5)
Click here to listen with your own player(launches your MP3 player)

EINN

EINN Flight Activity (Flightaware)

Listeners: 3 out of 1227 total

Aer Lingus Ops: 131.500
Service Air Ops: 131.450
Shannon Approach Radar: 121.400
Shannon Control: Misc
Shannon Ground: 121.800
Shannon Tower: 118.700
Sig Ops (Pre-Clearance): 131.590

ENAT Twr/App/Control (Archives)
Alta, Norway

Feed Status: UP
Listen in your browser - HTML5 player(in browser, HTML5)
Click here to listen with your own player(launches your MP3 player)

ENAT 282320Z AUTO 19008KT 9999 R11///// R29/P2000N NCD M03/M06 Q0994 RMK WIND 700FT 17009KT

ENAT Flight Activity (Flightaware)

Listeners: 0 out of 1227 total

Alta Tower (to boat, Harbour Channel 12): 156.600
Alta Tower (to vehicle): 462.400
Alta Tower/Approach: 120.400
Norway Control: 126.700

ENBO Approach (Archives)
Bodo, Norway

Feed Status: UP
Listen in your browser - HTML5 player(in browser, HTML5)
Click here to listen with your own player(launches your MP3 player)

ENBO 282250Z 08012KT CAVOK 04/M01 Q0991 NOSIG

ENBO Flight Activity (Flightaware)

Listeners: 0 out of 1227 total

Bodo Approach: 119.700

ENBO Tower (Archives)
Bodo, Norway

Feed Status: UP
Listen in your browser - HTML5 player(in browser, HTML5)
Click here to listen with your own player(launches your MP3 player)

ENBO 282250Z 08012KT CAVOK 04/M01 Q0991 NOSIG

ENBO Flight Activity (Flightaware)

Listeners: 0 out of 1227 total

Bodo Tower: 118.100

ENCN Tower/Approach (Archives)
Kristiansand, Norway

Feed Status: UP
Listen in your browser - HTML5 player(in browser, HTML5)
Click here to listen with your own player(launches your MP3 player)

ENCN

ENCN Flight Activity (Flightaware)

Listeners: 0 out of 1227 total

Kjevik Tower: 118.100
Kjevik Tower/Approach: 119.950

ENEV Twr/App/ACC (Archives)
Evenes, Norway

Feed Status: UP
Listen in your browser - HTML5 player(in browser, HTML5)
Click here to listen with your own player(launches your MP3 player)

ENEV 282250Z 11002KT CAVOK M04/M04 Q0993 RMK WIND 1400FT 14009KT

ENEV Flight Activity (Flightaware)

Listeners: 0 out of 1227 total

Evenes Approach: 120.100
Evenes Tower: 118.000
Norway ACC (Bodo Sector 25): 126.450

ENGK Info (Archives)
Arendal, Norway

Feed Status: UP
Listen in your browser - HTML5 player(in browser, HTML5)
Click here to listen with your own player(launches your MP3 player)

ENGK 281450Z VRB02KT 9999 VCSH SCT026TCU 09/07 Q0995

ENGK Flight Activity (Flightaware)

Listeners: 0 out of 1227 total

Gullknapp Info: 129.900

ENGM Approach
Oslo, Norway

Feed Status: DOWN
Offline since: 2020-09-30 06:53:38 UTC

ENGM

Oslo Approach: 118.475
Oslo Approach: 120.450

ENGM Tower (Archives)
Oslo, Norway

Feed Status: UP
Listen in your browser - HTML5 player(in browser, HTML5)
Click here to listen with your own player(launches your MP3 player)

ENGM

ENGM Flight Activity (Flightaware)

Listeners: 2 out of 1227 total

Oslo Tower (East): 120.100
Oslo Tower (West): 118.300

ENHD Tower (Archives)
Haugesund, Norway

Feed Status: UP
Listen in your browser - HTML5 player(in browser, HTML5)
Click here to listen with your own player(launches your MP3 player)

ENHD Flight Activity (Flightaware)

Listeners: 0 out of 1227 total

Karmoy Tower: 120.500

ENJB CTAF (Archives)
Tonsberg, Norway

Feed Status: UP
Listen in your browser - HTML5 player(in browser, HTML5)
Click here to listen with your own player(launches your MP3 player)

ENTO 282320Z AUTO 21009KT 9999 FEW043/// 08/06 Q0997

ENTO Flight Activity (Flightaware)

Listeners: 0 out of 1227 total

Jarlsberg CTAF: 122.300

ENKJ RDO (Archives)
Kjeller, Norway

Feed Status: UP
Listen in your browser - HTML5 player(in browser, HTML5)
Click here to listen with your own player(launches your MP3 player)

ENKJ Flight Activity (Flightaware)

Listeners: 0 out of 1227 total

Kjeller RDO: 119.100

ENLI CTAF (Archives)
Farsund, Norway

Feed Status: UP
Listen in your browser - HTML5 player(in browser, HTML5)
Click here to listen with your own player(launches your MP3 player)

ENLI Flight Activity (Flightaware)

Listeners: 0 out of 1227 total

Lista Traffic/Lista Radio: 126.450

ENML Gnd/Twr/App/Center
Molde, Norway

Feed Status: DOWN
Offline since: 2020-04-17 21:29:05 UTC

ENML 282320Z AUTO 03009KT 9999NDV -RA BKN043/// 07/04 Q0988

Molde Info: 119.950

ENRK CTAF (Archives)
Astorp, Norway

Feed Status: UP
Listen in your browser - HTML5 player(in browser, HTML5)
Click here to listen with your own player(launches your MP3 player)

ENRK Flight Activity (Flightaware)

Listeners: 0 out of 1227 total

Rakkestad CTAF: 122.950

ENOR Sector 8 (Archives)
Moss, Norway

Feed Status: UP
Listen in your browser - HTML5 player(in browser, HTML5)
Click here to listen with your own player(launches your MP3 player)

ENOR Flight Activity (Flightaware)

Listeners: 0 out of 1227 total

Norway Center (FIR) Sector 8: 118.875

ENRY Tower (Archives)
Moss, Norway

Feed Status: UP
Listen in your browser - HTML5 player(in browser, HTML5)
Click here to listen with your own player(launches your MP3 player)

ENRY 282320Z AUTO 19006KT 140V210 9999NDV FEW015/// SCT020/// 09/07 Q0997

ENRY Flight Activity (Flightaware)

Listeners: 0 out of 1227 total

Rygge Tower: 119.500

ENTC Tower/App (Archives)
Langnes, Norway

Feed Status: UP
Listen in your browser - HTML5 player(in browser, HTML5)
Click here to listen with your own player(launches your MP3 player)

ENTC 282320Z 15002KT CAVOK M02/M03 Q0993 RMK WIND 2600FT 30007KT

ENTC Flight Activity (Flightaware)

Listeners: 0 out of 1227 total

Langnes Tower: 118.300
Langnes VDF (Approach): 123.750

ENTO App/Dep (Archives)
Sandefjord, Norway

Feed Status: UP
Listen in your browser - HTML5 player(in browser, HTML5)
Click here to listen with your own player(launches your MP3 player)

ENTO 282320Z AUTO 21009KT 9999 FEW043/// 08/06 Q0997

ENTO Flight Activity (Flightaware)

Listeners: 0 out of 1227 total

Sandefjord Approach (TMA): 134.050

ENTO Control Sector 4 (Archives)
Sandefjord, Norway

Feed Status: UP
Listen in your browser - HTML5 player(in browser, HTML5)
Click here to listen with your own player(launches your MP3 player)

ENTO 282320Z AUTO 21009KT 9999 FEW043/// 08/06 Q0997

ENTO Flight Activity (Flightaware)

Listeners: 0 out of 1227 total

Norway control Sector 4: 118.875

ENTO Tower (Archives)
Sandefjord, Norway

Feed Status: UP
Listen in your browser - HTML5 player(in browser, HTML5)
Click here to listen with your own player(launches your MP3 player)

ENTO 282320Z AUTO 21009KT 9999 FEW043/// 08/06 Q0997

ENTO Flight Activity (Flightaware)

Listeners: 0 out of 1227 total

Sandefjord Tower: 118.650

ENTO Tower/App (Archives)
Sandefjord, Norway

Feed Status: UP
Listen in your browser - HTML5 player(in browser, HTML5)
Click here to listen with your own player(launches your MP3 player)

ENTO 282320Z AUTO 21009KT 9999 FEW043/// 08/06 Q0997

ENTO Flight Activity (Flightaware)

Listeners: 0 out of 1227 total

ENJB Tonsberg Airport - Jarlsberg - CTAF: 122.300
Farris Approach (TCA): 134.050
Sandefjord Tower: 118.650

ENTO Twr/App (Archives)
Sandefjord, Norway

Feed Status: UP
Listen in your browser - HTML5 player(in browser, HTML5)
Click here to listen with your own player(launches your MP3 player)

ENTO 282320Z AUTO 21009KT 9999 FEW043/// 08/06 Q0997

ENTO Flight Activity (Flightaware)

Listeners: 0 out of 1227 total

Sandefjord Approach (TMA): 134.050
Sandefjord Tower: 118.650

ENVA Gnd/Twr/App (Archives)
Trondheim, Norway

Feed Status: UP
Listen in your browser - HTML5 player(in browser, HTML5)
Click here to listen with your own player(launches your MP3 player)

ENVA

ENVA Flight Activity (Flightaware)

Listeners: 3 out of 1227 total

Trondheim Approach: 118.600
Trondheim Ground: 121.600
Trondheim Tower: 119.400

ENZV Gnd/Twr/App (Archives)
Stavanger, Norway

Feed Status: UP
Listen in your browser - HTML5 player(in browser, HTML5)
Click here to listen with your own player(launches your MP3 player)

ENZV 282320Z 16007KT 9999 FEW022 SCT057 07/06 Q0995

ENZV Flight Activity (Flightaware)

Listeners: 3 out of 1227 total

Sola Approach/Departure: 119.600
Sola Ground: 121.750
Sola Tower: 118.350

EPGD Tower/Approach (Archives)
Gdansk, Poland

Feed Status: UP
Listen in your browser - HTML5 player(in browser, HTML5)
Click here to listen with your own player(launches your MP3 player)

EPGD 282330Z VRB02KT CAVOK 07/06 Q1010

EPGD Flight Activity (Flightaware)

Listeners: 0 out of 1227 total

Gdansk Approach: 127.275
Gdansk Tower: 118.100

EPKK Tower/App (Archives)
Krakow, Poland

Feed Status: UP
Listen in your browser - HTML5 player(in browser, HTML5)
Click here to listen with your own player(launches your MP3 player)

EPKK

EPKK Flight Activity (Flightaware)

Listeners: 4 out of 1227 total

Krakow Approach: 121.075
Krakow Approach: 123.255
Krakow Tower: 123.255

EPKR CTAF (Archives)
Krosno, Poland

Feed Status: UP
Listen in your browser - HTML5 player(in browser, HTML5)
Click here to listen with your own player(launches your MP3 player)

EPKR Flight Activity (Flightaware)

Listeners: 0 out of 1227 total

Krosno CTAF: 122.400

EPKT Del/Twr/App (Archives)
Katowice, Poland

Feed Status: UP
Listen in your browser - HTML5 player(in browser, HTML5)
Click here to listen with your own player(launches your MP3 player)

EPKT

EPKT Flight Activity (Flightaware)

Listeners: 1 out of 1227 total

Katowice Delivery: 121.800
Katowice Tower: 129.250
Krakow Approach: 135.400
Krakow Approach: 121.075

EPKT Delivery/Approach (Archives)
Katowice, Poland

Feed Status: UP
Listen in your browser - HTML5 player(in browser, HTML5)
Click here to listen with your own player(launches your MP3 player)

EPKT

EPKT Flight Activity (Flightaware)

Listeners: 0 out of 1227 total

Katowice Delivery: 121.800
Krakow Approach: 121.075

EPKT Tower/Approach (Archives)
Katowice, Poland

Feed Status: UP
Listen in your browser - HTML5 player(in browser, HTML5)
Click here to listen with your own player(launches your MP3 player)

EPKT

EPKT Flight Activity (Flightaware)

Listeners: 0 out of 1227 total

Katowice Tower: 129.250
Krakow Approach: 135.400

EPLL Tower (Archives)
Lodz, Poland

Feed Status: UP
Listen in your browser - HTML5 player(in browser, HTML5)
Click here to listen with your own player(launches your MP3 player)

EPLL 282330Z 22003KT 170V250 9999 SCT029 OVC038 09/07 Q1014

EPLL Flight Activity (Flightaware)

Listeners: 0 out of 1227 total

Lodz Tower: 124.230

EPML Info (Archives)
Mielec, Poland

Feed Status: UP
Listen in your browser - HTML5 player(in browser, HTML5)
Click here to listen with your own player(launches your MP3 player)

EPML Flight Activity (Flightaware)

Listeners: 0 out of 1227 total

Mielec Info: 119.105

EPPO Twr/App/FIS (Archives)
Poznan, Poland

Feed Status: UP
Listen in your browser - HTML5 player(in browser, HTML5)
Click here to listen with your own player(launches your MP3 player)

EPPO

EPPO Flight Activity (Flightaware)

Listeners: 0 out of 1227 total

Poznan Approach: 129.025
Poznan Approach: 127.225
Poznan FIS: 126.300
Poznan Tower: 119.975

EPRZ Del/Twr/EPWW Radar (Archives)
Jasionka, Poland

Feed Status: UP
Listen in your browser - HTML5 player(in browser, HTML5)
Click here to listen with your own player(launches your MP3 player)

EPRZ 282330Z 26006KT 1800 BR BKN008 05/04 Q1015

EPRZ Flight Activity (Flightaware)

Listeners: 2 out of 1227 total

EPWW Radar: 134.175
EPWW Radar: 120.950
Rzeszow Delivery: 121.800
Rzeszow Tower: 126.800

EPWA Approach #1 (Archives)
Warsaw, Poland

Feed Status: UP
Listen in your browser - HTML5 player(in browser, HTML5)
Click here to listen with your own player(launches your MP3 player)

EPWA 282330Z 20003KT 4000 BR NSC 09/09 Q1014 TEMPO 5000

EPWA Flight Activity (Flightaware)

Listeners: 2 out of 1227 total

Warsaw Approach: 128.800

EPWA Approach #2 (Archives)
Warsaw, Poland

Feed Status: UP
Listen in your browser - HTML5 player(in browser, HTML5)
Click here to listen with your own player(launches your MP3 player)

EPWA 282330Z 20003KT 4000 BR NSC 09/09 Q1014 TEMPO 5000

EPWA Flight Activity (Flightaware)

Listeners: 0 out of 1227 total

Warsaw Approach: 125.050

EPWA Clearance Delivery (Archives)
Warsaw, Poland

Feed Status: UP
Listen in your browser - HTML5 player(in browser, HTML5)
Click here to listen with your own player(launches your MP3 player)

EPWA 282330Z 20003KT 4000 BR NSC 09/09 Q1014 TEMPO 5000

EPWA Flight Activity (Flightaware)

Listeners: 0 out of 1227 total

Warsaw Clearance Delivery: 121.600

EPWA Director (Archives)
Warsaw, Poland

Feed Status: UP
Listen in your browser - HTML5 player(in browser, HTML5)
Click here to listen with your own player(launches your MP3 player)

EPWA 282330Z 20003KT 4000 BR NSC 09/09 Q1014 TEMPO 5000

EPWA Flight Activity (Flightaware)

Listeners: 0 out of 1227 total

Warsaw Director: 129.375

EPWA Ground (Archives)
Warsaw, Poland

Feed Status: UP
Listen in your browser - HTML5 player(in browser, HTML5)
Click here to listen with your own player(launches your MP3 player)

EPWA 282330Z 20003KT 4000 BR NSC 09/09 Q1014 TEMPO 5000

EPWA Flight Activity (Flightaware)

Listeners: 0 out of 1227 total

Warsaw Ground: 121.900

EPWA Tower #1
Warsaw, Poland

Feed Status: DOWN
Offline since: 2020-10-28 18:57:22 UTC

EPWA 282330Z 20003KT 4000 BR NSC 09/09 Q1014 TEMPO 5000

Warsaw Tower: 118.300

EPWA Tower #2 (Archives)
Warsaw, Poland

Feed Status: UP
Listen in your browser - HTML5 player(in browser, HTML5)
Click here to listen with your own player(launches your MP3 player)

EPWA 282330Z 20003KT 4000 BR NSC 09/09 Q1014 TEMPO 5000

EPWA Flight Activity (Flightaware)

Listeners: 0 out of 1227 total

Warsaw Tower: 118.300

EPWR Twr/App (Archives)
Wroclaw, Poland

Feed Status: UP
Listen in your browser - HTML5 player(in browser, HTML5)
Click here to listen with your own player(launches your MP3 player)

EPPO

EPPO Flight Activity (Flightaware)

Listeners: 1 out of 1227 total

Poznan Approach (South): 127.225

EPRZ Del/Twr/EPWW Radar (Archives)
Jasionka, Poland

Feed Status: UP
Listen in your browser - HTML5 player(in browser, HTML5)
Click here to listen with your own player(launches your MP3 player)

EPRZ 282330Z 26006KT 1800 BR BKN008 05/04 Q1015

EPRZ Flight Activity (Flightaware)

Listeners: 2 out of 1227 total

EPWW Radar: 134.175
EPWW Radar: 120.950
Rzeszow Delivery: 121.800
Rzeszow Tower: 126.800

ESDF Gnd/Twr (Archives)
Ronneby, Sweden

Feed Status: UP
Listen in your browser - HTML5 player(in browser, HTML5)
Click here to listen with your own player(launches your MP3 player)

ESDF 282320Z AUTO 18004KT 9999 NCD 09/09 Q1006

ESDF Flight Activity (Flightaware)

Listeners: 1 out of 1227 total

Ronneby Ground: 121.850
Ronneby Tower: 119.200

ESDF Ronneby Control (Archives)
Ronneby, Sweden

Feed Status: UP
Listen in your browser - HTML5 player(in browser, HTML5)
Click here to listen with your own player(launches your MP3 player)

ESDF 282320Z AUTO 18004KT 9999 NCD 09/09 Q1006

ESDF Flight Activity (Flightaware)

Listeners: 2 out of 1227 total

Ronneby Control: 128.450

ESMQ Tower (Archives)
Kalmar, Sweden

Feed Status: UP
Listen in your browser - HTML5 player(in browser, HTML5)
Click here to listen with your own player(launches your MP3 player)

ESMQ 282320Z AUTO 19005KT 9999 FEW007/// SCT045/// BKN072/// 08/07 Q1006

ESMQ Flight Activity (Flightaware)

Listeners: 1 out of 1227 total

Kalmar Tower: 130.805

ESMS Radar (Archives)
Svedala, Sweden

Feed Status: UP
Listen in your browser - HTML5 player(in browser, HTML5)
Click here to listen with your own player(launches your MP3 player)

ESMS 282320Z 18008KT CAVOK 09/08 Q1005

ESMS Flight Activity (Flightaware)

Listeners: 0 out of 1227 total

Sweden Control (Sector L, Malmo): 134.980

ESMS Tower (Archives)
Svedala, Sweden

Feed Status: UP
Listen in your browser - HTML5 player(in browser, HTML5)
Click here to listen with your own player(launches your MP3 player)

ESMS 282320Z 18008KT CAVOK 09/08 Q1005

ESMS Flight Activity (Flightaware)

Listeners: 1 out of 1227 total

Malmo Tower: 118.800

ESOE Tower/Control (Archives)
Orebro, Sweden

Feed Status: UP
Listen in your browser - HTML5 player(in browser, HTML5)
Click here to listen with your own player(launches your MP3 player)

ESOE

ESOE Flight Activity (Flightaware)

Listeners: 0 out of 1227 total

Orebro Tower: 120.275
Orebro Tower: 120.280
Sweden Control: 131.125
Sweden Control (aircraft only): 131.125

ESOW Twr/CTAF/Control (Archives)
Stockholm, Sweden

Feed Status: UP
Listen in your browser - HTML5 player(in browser, HTML5)
Click here to listen with your own player(launches your MP3 player)

ESOW 282320Z AUTO 17009KT 9999 FEW009/// 07/05 Q1002

ESOW Flight Activity (Flightaware)

Listeners: 0 out of 1227 total

Arlanda Approach: 123.750
Arlanda Approach: 126.655
Arlanda Approach: 130.325
Arlanda Departure: 124.100
Arlanda Tower: 118.505
Arlanda Tower: 128.725
Enkoping/Langtora: 123.525
Eskilstuna: 126.850
Frolunda: 123.400
Johannisberg CTAF: 123.650
Ska Edeby: 123.350
Stockholm Control: 120.155
Stockholm Control: 118.405
Stockholm Control: 118.280
Sweden Control: 133.260
Sweden Control: 129.175
Sweden Control: 131.130
Uppsala Tower: 119.200
Uppsala/Sundbro: 123.350
Vasteras Control: 125.955
Vasteras Tower: 130.600

ESPA Twr/Control (Archives)
Lulea, Sweden

Feed Status: UP
Listen in your browser - HTML5 player(in browser, HTML5)
Click here to listen with your own player(launches your MP3 player)

ESPA 282320Z AUTO 18011KT 9000 RA BKN005/// OVC037/// 07/07 Q0993

ESPA Flight Activity (Flightaware)

Listeners: 0 out of 1227 total

Emergency/Guard: 121.500
Kallax Control: 125.450
Kallax Tower: 128.200
Sweden Control North: 131.050

ESSG Misc (Archives)
Ludvika, Sweden

Feed Status: UP
Listen in your browser - HTML5 player(in browser, HTML5)
Click here to listen with your own player(launches your MP3 player)

ESSG Flight Activity (Flightaware)

Listeners: 0 out of 1227 total

Avesta, Gagnef, Siljansnas: 123.550
Borlange Tower: 127.300
Dala-Jarna: 123.350
Emergency/Guard: 121.500
Karlstad: 119.450
Koping, Arboga, Borberg: 123.150
Ludvika CTAF: 122.100
Mora: 129.850
Orebro: 120.275
Orsa: 123.400
Soaring Freq: 123.500
Sweden Control: 131.125
Sweden Control: 129.175
Sweden Control: 118.200
Sweden Control: 132.150

ESSL Twr/App/Control (Archives)
Linkoping, Sweden

Feed Status: UP
Listen in your browser - HTML5 player(in browser, HTML5)
Click here to listen with your own player(launches your MP3 player)

ESSL

ESSL Flight Activity (Flightaware)

Listeners: 0 out of 1227 total

Emergency/Guard: 121.500
Linkoping Tower: 118.800
Linkoping Tower (Secondary): 123.400
Ostgota Control: 127.350
Ostgota Control: 126.400
Ostgota Control: 135.850
Ostgota Control: 132.950
Ostgota Control: 128.700
Ostgota Control (Malmen Sector): 133.100
Ostgota Control/Sweden Control: 118.400

ESVQ CTAF (Archives)
Koping, Sweden

Feed Status: UP
Listen in your browser - HTML5 player(in browser, HTML5)
Click here to listen with your own player(launches your MP3 player)

ESVQ Flight Activity (Flightaware)

Listeners: 0 out of 1227 total

Koping CTAF: 123.150

EVLA AFIS (Archives)
Liepaja, Latvia

Feed Status: UP
Listen in your browser - HTML5 player(in browser, HTML5)
Click here to listen with your own player(launches your MP3 player)

EVLA 282320Z AUTO 16004KT 9999 FEW014/// SCT023/// BKN047/// 10/09 Q1009

EVLA Flight Activity (Flightaware)

Listeners: 0 out of 1227 total

Liepaja AFIS: 129.400

EVRA Approach (Archives)
Riga, Latvia

Feed Status: UP
Listen in your browser - HTML5 player(in browser, HTML5)
Click here to listen with your own player(launches your MP3 player)

EVRA 282320Z 18008KT 7000 OVC032 08/08 Q1011 R18/190095 NOSIG

EVRA Flight Activity (Flightaware)

Listeners: 0 out of 1227 total

Riga Approach: 129.925

EVRA Approach (Archives)
Riga, Latvia

Feed Status: UP
Listen in your browser - HTML5 player(in browser, HTML5)
Click here to listen with your own player(launches your MP3 player)

EVLA 282320Z AUTO 16004KT 9999 FEW014/// SCT023/// BKN047/// 10/09 Q1009

EVLA Flight Activity (Flightaware)

Listeners: 0 out of 1227 total

Riga Approach: 129.925

EVRA CTAF (Archives)
Riga, Latvia

Feed Status: UP
Listen in your browser - HTML5 player(in browser, HTML5)
Click here to listen with your own player(launches your MP3 player)

EVRA 282320Z 18008KT 7000 OVC032 08/08 Q1011 R18/190095 NOSIG

EVRA Flight Activity (Flightaware)

Listeners: 0 out of 1227 total

Riga Approach (evenings): 134.850
Riga CTAF: 123.950

EVRA FIC (Archives)
Riga, Latvia

Feed Status: UP
Listen in your browser - HTML5 player(in browser, HTML5)
Click here to listen with your own player(launches your MP3 player)

EVRA 282320Z 18008KT 7000 OVC032 08/08 Q1011 R18/190095 NOSIG

EVRA Flight Activity (Flightaware)

Listeners: 0 out of 1227 total

Riga FIC: 120.225

EVRA FIC (Archives)
Riga, Latvia

Feed Status: UP
Listen in your browser - HTML5 player(in browser, HTML5)
Click here to listen with your own player(launches your MP3 player)

EVLA 282320Z AUTO 16004KT 9999 FEW014/// SCT023/// BKN047/// 10/09 Q1009

EVLA Flight Activity (Flightaware)

Listeners: 0 out of 1227 total

Riga FIC: 120.225

EVRA Tower/Guard (Archives)
Riga, Latvia

Feed Status: UP
Listen in your browser - HTML5 player(in browser, HTML5)
Click here to listen with your own player(launches your MP3 player)

EVRA 282320Z 18008KT 7000 OVC032 08/08 Q1011 R18/190095 NOSIG

EVRA Flight Activity (Flightaware)

Listeners: 0 out of 1227 total

Emergency/Guard: 121.500
Riga Tower: 118.100

EYPA Tower (Archives)
Palanga, Lithuania

Feed Status: UP
Listen in your browser - HTML5 player(in browser, HTML5)
Click here to listen with your own player(launches your MP3 player)

EVLA 282320Z AUTO 16004KT 9999 FEW014/// SCT023/// BKN047/// 10/09 Q1009

EVLA Flight Activity (Flightaware)

Listeners: 0 out of 1227 total

Palanga Tower: 124.300

EYVI Twr/App/Misc (Archives)
Vilnius, Lithuania

Feed Status: UP
Listen in your browser - HTML5 player(in browser, HTML5)
Click here to listen with your own player(launches your MP3 player)

EYVI

EYVI Flight Activity (Flightaware)

Listeners: 2 out of 1227 total

Emergency / GUARD: 121.500
FlyLAL, AirBaltic transit services: 131.900
FlyLAL, AirBaltic transit services: 131.600
FlyLAL, AirBaltic transit services: 131.500
Kaunas Approach (EYKA): 124.200
Vilnius Approach: 120.700
Vilnius Control: 132.275
Vilnius Control: 133.425
Vilnius Control: 133.300
Vilnius FIS: 123.850
Vilnius Tower: 118.200
Zokniai A/G (mil): 122.775

EYVP CTAF (Archives)
Paluknys, Lithuania

Feed Status: UP
Listen in your browser - HTML5 player(in browser, HTML5)
Click here to listen with your own player(launches your MP3 player)

EYVP Flight Activity (Flightaware)

Listeners: 0 out of 1227 total

EYVP Paluknis CTAF: 119.100

FIMP Twr/App/Ctr #1 (Archives)
Plaine Magnien, Mauritius

Feed Status: UP
Listen in your browser - HTML5 player(in browser, HTML5)
Click here to listen with your own player(launches your MP3 player)

FIMP


Listeners: 0 out of 1227 total

FIMP Approach: 119.100
FIMP Tower: 118.100
FMEE Approach/Departure: 127.200
Mauritius Centre: 129.300

FIMP Twr/App/Ctr #2 (Archives)
Plaine Magnien, Mauritius

Feed Status: UP
Listen in your browser - HTML5 player(in browser, HTML5)
Click here to listen with your own player(launches your MP3 player)

FIMP


Listeners: 0 out of 1227 total

FIMP Approach: 119.100
FIMP Tower: 118.100
Mauritius Centre: 129.300

FMEE Tower (Archives)
Sainte-Marie, Reunion

Feed Status: UP
Listen in your browser - HTML5 player(in browser, HTML5)
Click here to listen with your own player(launches your MP3 player)

FMEE


Listeners: 0 out of 1227 total

Gillot Tower: 118.400

FMEP Info (Archives)
Saint-Pierre, Reunion

Feed Status: UP
Listen in your browser - HTML5 player(in browser, HTML5)
Click here to listen with your own player(launches your MP3 player)

FMEP 282300Z AUTO 09004KT CAVOK 21/14 Q1019


Listeners: 0 out of 1227 total

Saint-Pierre Info: 122.400

FMMI Twr/App/Center (Archives)
Antananarivo, Madagascar

Feed Status: UP
Listen in your browser - HTML5 player(in browser, HTML5)
Click here to listen with your own player(launches your MP3 player)

FMMI 282300Z 14006KT 110V170 9999 FEW020 15/13 Q1023 NOSIG


Listeners: 0 out of 1227 total

Ivato Approach: 125.700
Ivato Tower: 120.100
Tana Control: 128.900

HAAB Approach (Archives)
Addis Ababa, Ethiopia

Feed Status: UP
Listen in your browser - HTML5 player(in browser, HTML5)
Click here to listen with your own player(launches your MP3 player)

HAAB 282300Z 07004KT 9999 FEW026 14/02 Q1026


Listeners: 0 out of 1227 total

Bole Approach: 119.700

LBBG Twr/App
Burgas, Bulgaria

Feed Status: DOWN
Offline since: 2020-10-28 19:47:22 UTC

LBBG 282330Z 04007KT 9999 FEW009 14/14 Q1015 NOSIG

Burgas Approach: 125.100
Burgas Tower: 118.000

LBLS Tower/FIC
Lesnovo, Bulgaria

Feed Status: DOWN
Offline since: 2020-10-21 13:56:22 UTC

LBSF 282330Z 29003KT 7000 FEW024 SCT038 09/08 Q1017 TEMPO 5000 -RA

Lesnovo FIC: 130.600
Lesnovo Tower: 122.250

LBPD Tower (Archives)
Plovdiv, Bulgaria

Feed Status: UP
Listen in your browser - HTML5 player(in browser, HTML5)
Click here to listen with your own player(launches your MP3 player)

LBSF 282330Z 29003KT 7000 FEW024 SCT038 09/08 Q1017 TEMPO 5000 -RA

LBSF Flight Activity (Flightaware)

Listeners: 0 out of 1227 total

Plovdiv Tower: 125.500
Plovdiv Tower: 133.600

LBSF ATIS (Archives)
Sofia, Bulgaria

Feed Status: UP
Listen in your browser - HTML5 player(in browser, HTML5)
Click here to listen with your own player(launches your MP3 player)

LBSF 282330Z 29003KT 7000 FEW024 SCT038 09/08 Q1017 TEMPO 5000 -RA

LBSF Flight Activity (Flightaware)

Listeners: 0 out of 1227 total

Sofia ATIS: 126.680

LBSF Sofia Control East (Archives)
Sofia, Bulgaria

Feed Status: UP
Listen in your browser - HTML5 player(in browser, HTML5)
Click here to listen with your own player(launches your MP3 player)

LBSF 282330Z 29003KT 7000 FEW024 SCT038 09/08 Q1017 TEMPO 5000 -RA

LBSF Flight Activity (Flightaware)

Listeners: 1 out of 1227 total

Sofia Control (East/Middle Sector): 129.100
Sofia Control (Varna Sector): 134.700

LBSF Twr/App #1 (Archives)
Sofia, Bulgaria

Feed Status: UP
Listen in your browser - HTML5 player(in browser, HTML5)
Click here to listen with your own player(launches your MP3 player)

LBSF 282330Z 29003KT 7000 FEW024 SCT038 09/08 Q1017 TEMPO 5000 -RA

LBSF Flight Activity (Flightaware)

Listeners: 2 out of 1227 total

Sofia Approach: 123.700
Sofia Approach: 129.900
Sofia Tower: 118.100
Sofia Tower: 120.200

LBSF Twr/App #2 (Archives)
Sofia, Bulgaria

Feed Status: UP
Listen in your browser - HTML5 player(in browser, HTML5)
Click here to listen with your own player(launches your MP3 player)

LBSF 282330Z 29003KT 7000 FEW024 SCT038 09/08 Q1017 TEMPO 5000 -RA

LBSF Flight Activity (Flightaware)

Listeners: 2 out of 1227 total

Sofia Approach: 123.700
Sofia Tower: 118.100

LBWN Tower/Approach (Archives)
Varna, Bulgaria

Feed Status: UP
Listen in your browser - HTML5 player(in browser, HTML5)
Click here to listen with your own player(launches your MP3 player)

LBWN 282330Z VRB02KT CAVOK 13/12 Q1016 NOSIG

LBWN Flight Activity (Flightaware)

Listeners: 0 out of 1227 total

Varna Approach: 121.000
Varna Tower: 119.500

Bordeaux Control (Archives)
Bordeaux, France

Feed Status: UP
Listen in your browser - HTML5 player(in browser, HTML5)
Click here to listen with your own player(launches your MP3 player)

LFBD 282030Z AUTO 20008KT 9999 BKN027 13/11 Q1022 NOSIG

LFBD Flight Activity (Flightaware)

Listeners: 1 out of 1227 total

Air to Air: 123.450
Bordeaux Control BN FL<300: 127.675
Bordeaux Control L3 FL>300: 134.250
Bordeaux Control R2 FL>300: 133.575
Emergency/Guard: 121.500

LFBD Aquitane Approach (Archives)
Bordeaux, France

Feed Status: UP
Listen in your browser - HTML5 player(in browser, HTML5)
Click here to listen with your own player(launches your MP3 player)

LFBD 282030Z AUTO 20008KT 9999 BKN027 13/11 Q1022 NOSIG

LFBD Flight Activity (Flightaware)

Listeners: 0 out of 1227 total

Aquitane Approach: 129.875

LFBD Bordeaux Control Sector X1 (Archives)
Bordeaux, France

Feed Status: UP
Listen in your browser - HTML5 player(in browser, HTML5)
Click here to listen with your own player(launches your MP3 player)

LFBD 282030Z AUTO 20008KT 9999 BKN027 13/11 Q1022 NOSIG

LFBD Flight Activity (Flightaware)

Listeners: 0 out of 1227 total

Bordeaux Control (Sector X1): 118.425

LFBD Ground (Archives)
Bordeaux, France

Feed Status: UP
Listen in your browser - HTML5 player(in browser, HTML5)
Click here to listen with your own player(launches your MP3 player)

LFBD 282030Z AUTO 20008KT 9999 BKN027 13/11 Q1022 NOSIG

LFBD Flight Activity (Flightaware)

Listeners: 0 out of 1227 total

Merignac Ground: 121.900

LFBD Tower (Archives)
Bordeaux, France

Feed Status: UP
Listen in your browser - HTML5 player(in browser, HTML5)
Click here to listen with your own player(launches your MP3 player)

LFBD 282030Z AUTO 20008KT 9999 BKN027 13/11 Q1022 NOSIG

LFBD Flight Activity (Flightaware)

Listeners: 1 out of 1227 total

Merignac Tower: 118.300

LFBU/LFBL Tower (Archives)
Limoges, France

Feed Status: UP
Listen in your browser - HTML5 player(in browser, HTML5)
Click here to listen with your own player(launches your MP3 player)

LFBU 282330Z AUTO 21004KT 180V260 4800 -RA BR FEW007 BKN014 BKN019 13/12 Q1022

LFBU Flight Activity (Flightaware)

Listeners: 1 out of 1227 total

LFBL Limoges Tower: 124.055
LFBU Angouleme Tower: 123.150
Medoc: 124.325

Bordeaux Control (Archives)
Angouleme, France

Feed Status: UP
Listen in your browser - HTML5 player(in browser, HTML5)
Click here to listen with your own player(launches your MP3 player)

LFBD 282030Z AUTO 20008KT 9999 BKN027 13/11 Q1022 NOSIG

LFBD Flight Activity (Flightaware)

Listeners: 1 out of 1227 total

Air to Air: 123.450
Bordeaux Control BN FL<300: 127.675
Bordeaux Control L3 FL>300: 134.250
Bordeaux Control R2 FL>300: 133.575
Emergency/Guard: 121.500

LFBU/LFBL Tower (Archives)
Angouleme, France

Feed Status: UP
Listen in your browser - HTML5 player(in browser, HTML5)
Click here to listen with your own player(launches your MP3 player)

LFBU 282330Z AUTO 21004KT 180V260 4800 -RA BR FEW007 BKN014 BKN019 13/12 Q1022

LFBU Flight Activity (Flightaware)

Listeners: 1 out of 1227 total

LFBL Limoges Tower: 124.055
LFBU Angouleme Tower: 123.150
Medoc: 124.325

LFLL Tower (Archives)
Lyon, France

Feed Status: UP
Listen in your browser - HTML5 player(in browser, HTML5)
Click here to listen with your own player(launches your MP3 player)

LFLL 282049Z 21007KT CAVOK 14/10 Q1020 NOSIG

LFLL Flight Activity (Flightaware)

Listeners: 0 out of 1227 total

Lyon Tower: 120.450

Lyon FIS (Archives)
Lyon, France

Feed Status: UP
Listen in your browser - HTML5 player(in browser, HTML5)
Click here to listen with your own player(launches your MP3 player)

LFLL 282049Z 21007KT CAVOK 14/10 Q1020 NOSIG

LFLL Flight Activity (Flightaware)

Listeners: 0 out of 1227 total

Lyon FIS: 135.200

LFLP Twr/LFLB App
Annecy, France

Feed Status: DOWN
Offline since: 2020-10-24 12:13:39 UTC

LFLP 282030Z AUTO VRB01KT 9999 -RA FEW035/// BKN045/// BKN056/// ///TCU 12/11 Q1020 BECMG BKN050

Annecy Tower: 118.200
Chambery Approach: 121.205
Chambery Info: 123.700

LFLY Tower (Archives)
Bron, France

Feed Status: UP
Listen in your browser - HTML5 player(in browser, HTML5)
Click here to listen with your own player(launches your MP3 player)

LFLY 282030Z AUTO 21007KT CAVOK 15/09 Q1020 NOSIG

LFLY Flight Activity (Flightaware)

Listeners: 0 out of 1227 total

Lyon-Bron Tower: 118.100

Lyon FIS (Archives)
Bron, France

Feed Status: UP
Listen in your browser - HTML5 player(in browser, HTML5)
Click here to listen with your own player(launches your MP3 player)

LFLL 282049Z 21007KT CAVOK 14/10 Q1020 NOSIG

LFLL Flight Activity (Flightaware)

Listeners: 0 out of 1227 total

Lyon FIS: 135.200

LFMD Ground/Tower (Archives)
Cannes, France

Feed Status: UP
Listen in your browser - HTML5 player(in browser, HTML5)
Click here to listen with your own player(launches your MP3 player)

LFMD 282030Z AUTO VRB03KT CAVOK 12/10 Q1018

LFMD Flight Activity (Flightaware)

Listeners: 0 out of 1227 total

Cannes Ground: 121.805
Cannes Tower: 118.625

LFMN Approach (Archives)
Nice, France

Feed Status: UP
Listen in your browser - HTML5 player(in browser, HTML5)
Click here to listen with your own player(launches your MP3 player)

LFMN 282030Z 33006KT CAVOK 13/11 Q1018 NOSIG

LFMN Flight Activity (Flightaware)

Listeners: 0 out of 1227 total

Nice Approach: 124.175

LFMN Control (High) (Archives)
Nice, France

Feed Status: UP
Listen in your browser - HTML5 player(in browser, HTML5)
Click here to listen with your own player(launches your MP3 player)

LFMN 282030Z 33006KT CAVOK 13/11 Q1018 NOSIG

LFMN Flight Activity (Flightaware)

Listeners: 0 out of 1227 total

Marseille Control Sector K1 (FL245-FL305): 126.780

LFMN FIS/Approach (Archives)
Nice, France

Feed Status: UP
Listen in your browser - HTML5 player(in browser, HTML5)
Click here to listen with your own player(launches your MP3 player)

LFMN 282030Z 33006KT CAVOK 13/11 Q1018 NOSIG

LFMN Flight Activity (Flightaware)

Listeners: 0 out of 1227 total

Nice FIS/Approach (TMA4 NICE 2500ft - FL115): 120.850

LFMN Ground/Tower (Archives)
Nice, France

Feed Status: UP
Listen in your browser - HTML5 player(in browser, HTML5)
Click here to listen with your own player(launches your MP3 player)

LFMN 282030Z 33006KT CAVOK 13/11 Q1018 NOSIG

LFMN Flight Activity (Flightaware)

Listeners: 0 out of 1227 total

Nice Ground: 121.700
Nice Tower: 118.700

LFPG Tower (Archives)
Paris, France

Feed Status: UP
Listen in your browser - HTML5 player(in browser, HTML5)
Click here to listen with your own player(launches your MP3 player)

LFPG 282330Z 23015KT 190V280 9999 -RA SCT018 BKN024 13/09 Q1013 NOSIG

LFPG Flight Activity (Flightaware)

Listeners: 7 out of 1227 total

De Gaulle Tower: 120.900
De Gaulle Tower: 119.250

LFPO Approach (Archives)
Paris, France

Feed Status: UP
Listen in your browser - HTML5 player(in browser, HTML5)
Click here to listen with your own player(launches your MP3 player)

LFPO 282330Z 23013KT 9999 FEW027 SCT063 BKN083 13/09 Q1014 NOSIG

LFPO Flight Activity (Flightaware)

Listeners: 0 out of 1227 total

Orly Approach: 124.450
Orly Approach: 118.850
Orly Approach: 120.850
Orly Approach: 123.875

LFPO Departure (Archives)
Paris, France

Feed Status: UP
Listen in your browser - HTML5 player(in browser, HTML5)
Click here to listen with your own player(launches your MP3 player)

LFPO 282330Z 23013KT 9999 FEW027 SCT063 BKN083 13/09 Q1014 NOSIG

LFPO Flight Activity (Flightaware)

Listeners: 1 out of 1227 total

Orly Departure: 127.750

LFPO Tower (Archives)
Paris, France

Feed Status: UP
Listen in your browser - HTML5 player(in browser, HTML5)
Click here to listen with your own player(launches your MP3 player)

LFPO 282330Z 23013KT 9999 FEW027 SCT063 BKN083 13/09 Q1014 NOSIG

LFPO Flight Activity (Flightaware)

Listeners: 6 out of 1227 total

Orly Tower: 120.500
Orly Tower: 118.700

LFSB Tower (Archives)
Basel, Switzerland

Feed Status: UP
Listen in your browser - HTML5 player(in browser, HTML5)
Click here to listen with your own player(launches your MP3 player)

LFSB 282330Z AUTO 24011KT 9999 FEW037 SCT064 BKN074 14/08 Q1018 TEMPO 26015G30KT 4000 SHRA BKN030TCU

LFSB Flight Activity (Flightaware)

Listeners: 0 out of 1227 total

Mulhouse Tower: 118.300

LGAV App/Radar (Archives)
Athens, Greece

Feed Status: UP
Listen in your browser - HTML5 player(in browser, HTML5)
Click here to listen with your own player(launches your MP3 player)

LGAV 282050Z VRB03KT 8000 +RA FEW012 FEW020TCU BKN025 16/15 Q1010 BECMG 6000 +RA

LGAV Flight Activity (Flightaware)

Listeners: 0 out of 1227 total

Athens Approach: 132.975
Athens Information: 130.925
Athens Information: 119.750
Athens Radar (Kerkira-Kefalinia-Paleohora Sectors FL460-FL345): 134.325
Athens Radar (Milos/Sitia Sectors FL460-FL345): 125.200
Athens Radar (Paleohora /Kerkira Sectors FL460-FL345): 133.725
Athens Radar (Paleohora Sector FL460-FL345): 124.625
Athens Radar (Rhodos/Kavos Sector FL460-FL345): 133.325
Emergency/Guard: 121.500
Makedonia Radar (Thessaloniki/Skopelos/Limnos/Kavala Sectors FL460-FL345): 133.575

LHBP Approach (Archives)
Budapest, Hungary

Feed Status: UP
Listen in your browser - HTML5 player(in browser, HTML5)
Click here to listen with your own player(launches your MP3 player)

LHBP 282330Z VRB01KT 3500 R31L/P2000N R31R/0600N BCFG BR NSC 06/06 Q1017 NOSIG

LHBP Flight Activity (Flightaware)

Listeners: 0 out of 1227 total

Budapest Approach: 122.975
Budapest Approach (Upper): 123.860

LHBP Approach (Director) (Archives)
Budapest, Hungary

Feed Status: UP
Listen in your browser - HTML5 player(in browser, HTML5)
Click here to listen with your own player(launches your MP3 player)

LHBP 282330Z VRB01KT 3500 R31L/P2000N R31R/0600N BCFG BR NSC 06/06 Q1017 NOSIG

LHBP Flight Activity (Flightaware)

Listeners: 1 out of 1227 total

Budapest Director: 119.510

LHBP ATIS (Archives)
Budapest, Hungary

Feed Status: UP
Listen in your browser - HTML5 player(in browser, HTML5)
Click here to listen with your own player(launches your MP3 player)

LHBP 282330Z VRB01KT 3500 R31L/P2000N R31R/0600N BCFG BR NSC 06/06 Q1017 NOSIG

LHBP Flight Activity (Flightaware)

Listeners: 0 out of 1227 total

Budapest ATIS: 132.380

LHBP Clearance Delivery (Archives)
Budapest, Hungary

Feed Status: UP
Listen in your browser - HTML5 player(in browser, HTML5)
Click here to listen with your own player(launches your MP3 player)

LHBP 282330Z VRB01KT 3500 R31L/P2000N R31R/0600N BCFG BR NSC 06/06 Q1017 NOSIG

LHBP Flight Activity (Flightaware)

Listeners: 0 out of 1227 total

Budapest Clearance Delivery: 134.540

LHBP Ground (Archives)
Budapest, Hungary

Feed Status: UP
Listen in your browser - HTML5 player(in browser, HTML5)
Click here to listen with your own player(launches your MP3 player)

LHBP 282330Z VRB01KT 3500 R31L/P2000N R31R/0600N BCFG BR NSC 06/06 Q1017 NOSIG

LHBP Flight Activity (Flightaware)

Listeners: 0 out of 1227 total

Budapest Ground: 121.910

LHBP Info (Archives)
Budapest, Hungary

Feed Status: UP
Listen in your browser - HTML5 player(in browser, HTML5)
Click here to listen with your own player(launches your MP3 player)

LHBP 282330Z VRB01KT 3500 R31L/P2000N R31R/0600N BCFG BR NSC 06/06 Q1017 NOSIG

LHBP Flight Activity (Flightaware)

Listeners: 0 out of 1227 total

Budapest Info: 119.350

LHBP Tower (Archives)
Budapest, Hungary

Feed Status: UP
Listen in your browser - HTML5 player(in browser, HTML5)
Click here to listen with your own player(launches your MP3 player)

LHBP 282330Z VRB01KT 3500 R31L/P2000N R31R/0600N BCFG BR NSC 06/06 Q1017 NOSIG

LHBP Flight Activity (Flightaware)

Listeners: 0 out of 1227 total

Budapest Tower: 118.100

LHBP Twr/Info (Archives)
Budapest, Hungary

Feed Status: UP
Listen in your browser - HTML5 player(in browser, HTML5)
Click here to listen with your own player(launches your MP3 player)

LHBP 282330Z VRB01KT 3500 R31L/P2000N R31R/0600N BCFG BR NSC 06/06 Q1017 NOSIG

LHBP Flight Activity (Flightaware)

Listeners: 0 out of 1227 total

Budapest Info: 119.350
Budapest Tower: 118.100

LHCC Control (East/West) (Archives)
Budapest, Hungary

Feed Status: UP
Listen in your browser - HTML5 player(in browser, HTML5)
Click here to listen with your own player(launches your MP3 player)

LHBP 282330Z VRB01KT 3500 R31L/P2000N R31R/0600N BCFG BR NSC 06/06 Q1017 NOSIG

LHBP Flight Activity (Flightaware)

Listeners: 0 out of 1227 total

Budapest Control (East Low Sector): 120.375
Budapest Control (West Low Sector): 133.200

LHDC Info/Tower (Archives)
Debrecen, Hungary

Feed Status: UP
Listen in your browser - HTML5 player(in browser, HTML5)
Click here to listen with your own player(launches your MP3 player)

LHDC 282051Z AUTO 00000KT 2100 BR VV005 08/08 Q1017

LHDC Flight Activity (Flightaware)

Listeners: 0 out of 1227 total

Debrecen Info/Tower: 125.900

LHEM CTAF (Archives)
Esztergom, Hungary

Feed Status: UP
Listen in your browser - HTML5 player(in browser, HTML5)
Click here to listen with your own player(launches your MP3 player)

LHEM Flight Activity (Flightaware)

Listeners: 0 out of 1227 total

Esztergom CTAF: 126.850

LHPR Info/AFIS (Archives)
Gyor, Hungary

Feed Status: UP
Listen in your browser - HTML5 player(in browser, HTML5)
Click here to listen with your own player(launches your MP3 player)

LHPR 282015Z AUTO 00000KT 1400 R30/P1500 BR NCD 07/07 Q1018

LHPR Flight Activity (Flightaware)

Listeners: 0 out of 1227 total

Gyor AFIS: 129.910

LHUD CTAF/Info/AFIS
Szeged, Hungary

Feed Status: DOWN
Offline since: 2020-10-05 08:03:39 UTC

LHUD 032345Z 35004KT CAVOK 18/13 Q1019

Szeged CTAF/Info/AFIS: 122.810

LJLJ Info (Archives)
Ljubljana, Slovenia

Feed Status: UP
Listen in your browser - HTML5 player(in browser, HTML5)
Click here to listen with your own player(launches your MP3 player)

LJLJ 282330Z VRB01KT 9999 MIFG FEW002 03/03 Q1018 NOSIG

LJLJ Flight Activity (Flightaware)

Listeners: 0 out of 1227 total

Ljubljana Info: 118.475

LJLJ Radar (Archives)
Ljubljana, Slovenia

Feed Status: UP
Listen in your browser - HTML5 player(in browser, HTML5)
Click here to listen with your own player(launches your MP3 player)

LJLJ 282330Z VRB01KT 9999 MIFG FEW002 03/03 Q1018 NOSIG

LJLJ Flight Activity (Flightaware)

Listeners: 0 out of 1227 total

Ljubljana Approach: 135.275

LJLJ Tower (Archives)
Ljubljana, Slovenia

Feed Status: UP
Listen in your browser - HTML5 player(in browser, HTML5)
Click here to listen with your own player(launches your MP3 player)

LJLJ 282330Z VRB01KT 9999 MIFG FEW002 03/03 Q1018 NOSIG

LJLJ Flight Activity (Flightaware)

Listeners: 0 out of 1227 total

Ljubljana Tower: 118.000

LJMS CTAF
Murska Sobota, Slovenia

Feed Status: DOWN
Offline since: 2020-10-24 21:33:40 UTC

Murska Sobota Aerodrome Radio: 123.500

LJPZ Tower
Secovlje, Slovenia

Feed Status: DOWN
Offline since: 2020-10-27 20:05:39 UTC

LJPZ 282030Z 12006KT CAVOK 09/08 Q1018

Portoroz Tower: 124.875

LKKV Tower (Archives)
Karlovy Vary, Czech Republic

Feed Status: UP
Listen in your browser - HTML5 player(in browser, HTML5)
Click here to listen with your own player(launches your MP3 player)

LKKV 282300Z VRB02KT 9999 FEW033 08/05 Q1014

LKKV Flight Activity (Flightaware)

Listeners: 0 out of 1227 total

Karlovy Vary Tower: 121.230

LKPM Tower (Archives)
Pribram, Czech Republic

Feed Status: UP
Listen in your browser - HTML5 player(in browser, HTML5)
Click here to listen with your own player(launches your MP3 player)

LKPM Flight Activity (Flightaware)

Listeners: 0 out of 1227 total

Pribram Tower: 118.755

LKAA FIR (High) (Archives)
Prague, Czech Republic

Feed Status: UP
Listen in your browser - HTML5 player(in browser, HTML5)
Click here to listen with your own player(launches your MP3 player)

LKAA Flight Activity (Flightaware)

Listeners: 0 out of 1227 total

LKAA FIR Sector West High / Praha Radar : 132.065

LKAA FIR (Low) (Archives)
Prague, Czech Republic

Feed Status: UP
Listen in your browser - HTML5 player(in browser, HTML5)
Click here to listen with your own player(launches your MP3 player)

LKAA Flight Activity (Flightaware)

Listeners: 0 out of 1227 total

LKAA FIR Sector West Low / Praha Radar: 120.275

LKPR Approach (Archives)
Prague, Czech Republic

Feed Status: UP
Listen in your browser - HTML5 player(in browser, HTML5)
Click here to listen with your own player(launches your MP3 player)

LKPR 282030Z 20008KT CAVOK 10/07 Q1015 NOSIG

LKPR Flight Activity (Flightaware)

Listeners: 1 out of 1227 total

Prague Approach/Radar: 127.580

LKPR Clearance Del (Archives)
Prague, Czech Republic

Feed Status: UP
Listen in your browser - HTML5 player(in browser, HTML5)
Click here to listen with your own player(launches your MP3 player)

LKPR 282030Z 20008KT CAVOK 10/07 Q1015 NOSIG

LKPR Flight Activity (Flightaware)

Listeners: 0 out of 1227 total

Prague/Ruzyne Clearance Delivery: 120.060

LKPR Director/Ruzyne Radar (Archives)
Prague, Czech Republic

Feed Status: UP
Listen in your browser - HTML5 player(in browser, HTML5)
Click here to listen with your own player(launches your MP3 player)

LKPR 282030Z 20008KT CAVOK 10/07 Q1015 NOSIG

LKPR Flight Activity (Flightaware)

Listeners: 1 out of 1227 total

Prague Director/Ruzyne Radar: 119.010

LKPR Ground (Archives)
Prague, Czech Republic

Feed Status: UP
Listen in your browser - HTML5 player(in browser, HTML5)
Click here to listen with your own player(launches your MP3 player)

LKPR 282030Z 20008KT CAVOK 10/07 Q1015 NOSIG

LKPR Flight Activity (Flightaware)

Listeners: 0 out of 1227 total

Prague/Ruzyne Ground: 121.910

LKPR Tower (Archives)
Prague, Czech Republic

Feed Status: UP
Listen in your browser - HTML5 player(in browser, HTML5)
Click here to listen with your own player(launches your MP3 player)

LKPR 282030Z 20008KT CAVOK 10/07 Q1015 NOSIG

LKPR Flight Activity (Flightaware)

Listeners: 4 out of 1227 total

Prague/Ruzyne Tower: 134.560

LKTB Gnd/Twr/Radar (Archives)
Brno, Czech Republic

Feed Status: UP
Listen in your browser - HTML5 player(in browser, HTML5)
Click here to listen with your own player(launches your MP3 player)

LKTB 282030Z 00000KT CAVOK 09/07 Q1017 NOSIG

LKTB Flight Activity (Flightaware)

Listeners: 0 out of 1227 total

Brno Ground: 125.430
Brno Handling: 131.800
Brno Radar (Approach): 127.350
Brno Tower: 119.605

LMML GndTwr/App/Control (Archives)
Luqa, Malta

Feed Status: UP
Listen in your browser - HTML5 player(in browser, HTML5)
Click here to listen with your own player(launches your MP3 player)

LMML 282315Z 31014KT 9999 FEW040 17/11 Q1019 NOSIG

LMML Flight Activity (Flightaware)

Listeners: 0 out of 1227 total

Emergency/Guard: 121.500
Luqa Ground: 121.600
Luqa Radar: 128.150
Luqa Tower: 135.100
Malta Radar - East: 123.625
Malta Radar - East (Secondary): 127.525
Malta Radar - UHF: 284.500
Malta Radar - West: 130.975
Malta Radar - West (Secondary): 122.775

LPMA Approach (Archives)
Madeira, Portugal

Feed Status: UP
Listen in your browser - HTML5 player(in browser, HTML5)
Click here to listen with your own player(launches your MP3 player)

LPMA 282030Z 02005KT 350V050 9999 SCT016 20/15 Q1024

LPMA Flight Activity (Flightaware)

Listeners: 1 out of 1227 total

Madeira Approach: 119.605

LPPR Approach #1 (Archives)
Porto, Portugal

Feed Status: UP
Listen in your browser - HTML5 player(in browser, HTML5)
Click here to listen with your own player(launches your MP3 player)

LPPR 282030Z 03003KT 340V060 7000 BKN045 14/14 Q1025

LPPR Flight Activity (Flightaware)

Listeners: 2 out of 1227 total

Porto Approach: 121.105

LPPT Approach (Archives)
Lisbon, Portugal

Feed Status: UP
Listen in your browser - HTML5 player(in browser, HTML5)
Click here to listen with your own player(launches your MP3 player)

LPPT 282030Z 02003KT 330V080 9999 FEW035 BKN042 17/12 Q1024

LPPT Flight Activity (Flightaware)

Listeners: 1 out of 1227 total

Lisbon Approach: 119.105

LRCL Twr/App #1 (Archives)
Cluj-Napoca, Romania

Feed Status: UP
Listen in your browser - HTML5 player(in browser, HTML5)
Click here to listen with your own player(launches your MP3 player)

LRCL 282030Z VRB02KT 0500 R25/0700N FG VV001 09/09 Q1018

LRCL Flight Activity (Flightaware)

Listeners: 0 out of 1227 total

Cluj Approach: 126.425
Cluj Tower: 118.705

LRCL Twr/App/ACC
Cluj-Napoca, Romania

Feed Status: DOWN
Offline since: 2020-10-28 22:23:40 UTC

LRCL 282030Z VRB02KT 0500 R25/0700N FG VV001 09/09 Q1018

Cluj Approach: 126.425
Cluj Tower: 118.705
Napoc ACC: 127.075

LROP Ground (Archives)
Bucharest, Romania

Feed Status: UP
Listen in your browser - HTML5 player(in browser, HTML5)
Click here to listen with your own player(launches your MP3 player)

LROP 282030Z 31002KT 4000 BR BKN024 13/13 Q1018 NOSIG

LROP Flight Activity (Flightaware)

Listeners: 0 out of 1227 total

Bucharest Ground: 121.855

LROP Radar (Archives)
Bucharest, Romania

Feed Status: UP
Listen in your browser - HTML5 player(in browser, HTML5)
Click here to listen with your own player(launches your MP3 player)

LROP 282030Z 31002KT 4000 BR BKN024 13/13 Q1018 NOSIG

LROP Flight Activity (Flightaware)

Listeners: 0 out of 1227 total

Bucharest Radar (Arges Mid sector): 121.175
Bucharest Radar (Arges Top Sector): 123.265
Bucharest Radar (Lomos Top Sector): 132.865

LROP Tower/Approach (Archives)
Bucharest, Romania

Feed Status: UP
Listen in your browser - HTML5 player(in browser, HTML5)
Click here to listen with your own player(launches your MP3 player)

LROP 282030Z 31002KT 4000 BR BKN024 13/13 Q1018 NOSIG

LROP Flight Activity (Flightaware)

Listeners: 0 out of 1227 total

Bucharest Approach: 119.415
Bucharest Director: 127.155
Bucharest Tower: 118.805

LROP Twr/App/Radar (Archives)
Bucharest, Romania

Feed Status: UP
Listen in your browser - HTML5 player(in browser, HTML5)
Click here to listen with your own player(launches your MP3 player)

LROP 282030Z 31002KT 4000 BR BKN024 13/13 Q1018 NOSIG

LROP Flight Activity (Flightaware)

Listeners: 2 out of 1227 total

Bucharest Approach: 119.415
Bucharest Director: 127.155
Bucharest Radar (Arges Mid sector): 121.175
Bucharest Radar (Arges Top Sector): 123.265
Bucharest Radar (Lomos Top Sector): 132.865
Bucharest Tower: 118.805

LRSB Tower/CTAF (Archives)
Sibiu, Romania

Feed Status: UP
Listen in your browser - HTML5 player(in browser, HTML5)
Click here to listen with your own player(launches your MP3 player)

LRSB 282030Z VRB02KT 5000 BR FEW003 BKN004 09/08 Q1018

LRSB Flight Activity (Flightaware)

Listeners: 0 out of 1227 total

Sibiu Tower: 121.305

LRTR Tower (Archives)
Timisoara, Romania

Feed Status: UP
Listen in your browser - HTML5 player(in browser, HTML5)
Click here to listen with your own player(launches your MP3 player)

LRTR 282030Z VRB02KT 5000 BR FEW033 09/09 Q1018

LRTR Flight Activity (Flightaware)

Listeners: 0 out of 1227 total

ARAD Approach: 127.250
Timisoara Tower: 120.100

LSGS Gnd/Twr/App
Sion, Switzerland

Feed Status: DOWN
Offline since: 2020-10-28 21:13:22 UTC

LSGS 282050Z AUTO VRB01KT 9999 NCD 09/07 Q1019

Alpine Jet Service Handling: 131.675
Sion Airport Handling: 131.475
Sion Approach (IFR ARR MIL OFF): 126.825
Sion Ground: 121.700
Sion Tower: 118.275

LSMD Tower (Archives)
Dubendorf, Switzerland

Feed Status: UP
Listen in your browser - HTML5 player(in browser, HTML5)
Click here to listen with your own player(launches your MP3 player)

LSZH 282050Z 17008KT 9999 -RA FEW035 SCT045 BKN064 10/09 Q1018 TEMPO RA

LSZH Flight Activity (Flightaware)

Listeners: 0 out of 1227 total

Dubendorf Tower: 118.975

LSPM AFIS (Archives)
Ambri, Switzerland

Feed Status: UP
Listen in your browser - HTML5 player(in browser, HTML5)
Click here to listen with your own player(launches your MP3 player)

LSPM Flight Activity (Flightaware)

Listeners: 0 out of 1227 total

Ambri AFIS: 118.525

LSZA Tower (Archives)
Agno, Switzerland

Feed Status: UP
Listen in your browser - HTML5 player(in browser, HTML5)
Click here to listen with your own player(launches your MP3 player)

LSZA 282050Z AUTO VRB02KT 9999 NSC 07/07 Q1018

LSZA Flight Activity (Flightaware)

Listeners: 0 out of 1227 total

Lugano Tower: 120.250

LSZB Twr/App/Dep (Archives)
Bern, Switzerland

Feed Status: UP
Listen in your browser - HTML5 player(in browser, HTML5)
Click here to listen with your own player(launches your MP3 player)

LSZB 282050Z AUTO VRB05KT 9999 FEW110 BKN120 13/09 Q1018

LSZB Flight Activity (Flightaware)

Listeners: 0 out of 1227 total

LSZB Arrival/Departure: 127.325
LSZB Tower: 121.025

LSZG Tower (Archives)
Grenchen, Switzerland

Feed Status: UP
Listen in your browser - HTML5 player(in browser, HTML5)
Click here to listen with your own player(launches your MP3 player)

LSZG 282050Z AUTO 21003KT 9999 FEW037 SCT042 BKN047 11/10 Q1018

LSZG Flight Activity (Flightaware)

Listeners: 0 out of 1227 total

Grenchen Tower: 120.100

LSZH Approach (East) (Archives)
Zurich, Switzerland

Feed Status: UP
Listen in your browser - HTML5 player(in browser, HTML5)
Click here to listen with your own player(launches your MP3 player)

LSZH 282050Z 17008KT 9999 -RA FEW035 SCT045 BKN064 10/09 Q1018 TEMPO RA

LSZH Flight Activity (Flightaware)

Listeners: 0 out of 1227 total

Zurich Approach (East): 135.225

LSZH Approach (West) (Archives)
Zurich, Switzerland

Feed Status: UP
Listen in your browser - HTML5 player(in browser, HTML5)
Click here to listen with your own player(launches your MP3 player)

LSZH 282050Z 17008KT 9999 -RA FEW035 SCT045 BKN064 10/09 Q1018 TEMPO RA

LSZH Flight Activity (Flightaware)

Listeners: 0 out of 1227 total

Zurich Approach (West): 118.000

LSZH Apron (South) (Archives)
Zurich, Switzerland

Feed Status: UP
Listen in your browser - HTML5 player(in browser, HTML5)
Click here to listen with your own player(launches your MP3 player)

LSZH 282050Z 17008KT 9999 -RA FEW035 SCT045 BKN064 10/09 Q1018 TEMPO RA

LSZH Flight Activity (Flightaware)

Listeners: 1 out of 1227 total

Zurich Apron (South): 121.755

LSZH Apron (West) (Archives)
Zurich, Switzerland

Feed Status: UP
Listen in your browser - HTML5 player(in browser, HTML5)
Click here to listen with your own player(launches your MP3 player)

LSZH 282050Z 17008KT 9999 -RA FEW035 SCT045 BKN064 10/09 Q1018 TEMPO RA

LSZH Flight Activity (Flightaware)

Listeners: 1 out of 1227 total

Zurich Apron (West): 121.855

LSZH Clearance Delivery (Archives)
Zurich, Switzerland

Feed Status: UP
Listen in your browser - HTML5 player(in browser, HTML5)
Click here to listen with your own player(launches your MP3 player)

LSZH 282050Z 17008KT 9999 -RA FEW035 SCT045 BKN064 10/09 Q1018 TEMPO RA

LSZH Flight Activity (Flightaware)

Listeners: 0 out of 1227 total

Zurich Clearance Delivery: 121.925

LSZH Ground (Archives)
Zurich, Switzerland

Feed Status: UP
Listen in your browser - HTML5 player(in browser, HTML5)
Click here to listen with your own player(launches your MP3 player)

LSZH 282050Z 17008KT 9999 -RA FEW035 SCT045 BKN064 10/09 Q1018 TEMPO RA

LSZH Flight Activity (Flightaware)

Listeners: 0 out of 1227 total

Zurich Ground: 121.905

LSZH Radar (Archives)
Zurich, Switzerland

Feed Status: UP
Listen in your browser - HTML5 player(in browser, HTML5)
Click here to listen with your own player(launches your MP3 player)

LSZH 282050Z 17008KT 9999 -RA FEW035 SCT045 BKN064 10/09 Q1018 TEMPO RA

LSZH Flight Activity (Flightaware)

Listeners: 3 out of 1227 total

Zurich Radar ACC (-FL240 East): 133.900
Zurich Radar ACC (-FL240 North): 136.150
Zurich Radar ACC (-FL240 South): 128.050
Zurich Radar ACC (-FL240 West): 135.675
Zurich Radar ACC (FL250-280): 133.050
Zurich Radar ACC (FL290-320): 132.815
Zurich Radar ACC (FL330-350): 134.600
Zurich Radar ACC (FL360+): 133.400

LSZH Radar 132.815 (Archives)
Zurich, Switzerland

Feed Status: UP
Listen in your browser - HTML5 player(in browser, HTML5)
Click here to listen with your own player(launches your MP3 player)

LSZH 282050Z 17008KT 9999 -RA FEW035 SCT045 BKN064 10/09 Q1018 TEMPO RA

LSZH Flight Activity (Flightaware)

Listeners: 0 out of 1227 total

Zurich Radar: 132.815

LSZH Radar 133.050 (Archives)
Zurich, Switzerland

Feed Status: UP
Listen in your browser - HTML5 player(in browser, HTML5)
Click here to listen with your own player(launches your MP3 player)

LSZH 282050Z 17008KT 9999 -RA FEW035 SCT045 BKN064 10/09 Q1018 TEMPO RA

LSZH Flight Activity (Flightaware)

Listeners: 0 out of 1227 total

Zurich Radar: 133.050

LSZH Radar 133.405 (Archives)
Zurich, Switzerland

Feed Status: UP
Listen in your browser - HTML5 player(in browser, HTML5)
Click here to listen with your own player(launches your MP3 player)

LSZH 282050Z 17008KT 9999 -RA FEW035 SCT045 BKN064 10/09 Q1018 TEMPO RA

LSZH Flight Activity (Flightaware)

Listeners: 0 out of 1227 total

Zurich Radar: 133.405

LSZH Radar 133.690 (Archives)
Zurich, Switzerland

Feed Status: UP
Listen in your browser - HTML5 player(in browser, HTML5)
Click here to listen with your own player(launches your MP3 player)

LSZH 282050Z 17008KT 9999 -RA FEW035 SCT045 BKN064 10/09 Q1018 TEMPO RA

LSZH Flight Activity (Flightaware)

Listeners: 0 out of 1227 total

Zurich Radar: 133.690

LSZH Radar 133.905 (Archives)
Zurich, Switzerland

Feed Status: UP
Listen in your browser - HTML5 player(in browser, HTML5)
Click here to listen with your own player(launches your MP3 player)

LSZH 282050Z 17008KT 9999 -RA FEW035 SCT045 BKN064 10/09 Q1018 TEMPO RA

LSZH Flight Activity (Flightaware)

Listeners: 0 out of 1227 total

Zurich Radar (Below FL240 East): 133.905

LSZH Radar 134.605 (Archives)
Zurich, Switzerland

Feed Status: UP
Listen in your browser - HTML5 player(in browser, HTML5)
Click here to listen with your own player(launches your MP3 player)

LSZH 282050Z 17008KT 9999 -RA FEW035 SCT045 BKN064 10/09 Q1018 TEMPO RA

LSZH Flight Activity (Flightaware)

Listeners: 0 out of 1227 total

Zurich Radar (FL330-350): 134.605

LSZH Radar 135.680 (Archives)
Zurich, Switzerland

Feed Status: UP
Listen in your browser - HTML5 player(in browser, HTML5)
Click here to listen with your own player(launches your MP3 player)

LSZH 282050Z 17008KT 9999 -RA FEW035 SCT045 BKN064 10/09 Q1018 TEMPO RA

LSZH Flight Activity (Flightaware)

Listeners: 0 out of 1227 total


LSZH Radar 136.155 (Archives)
Zurich, Switzerland

Feed Status: UP
Listen in your browser - HTML5 player(in browser, HTML5)
Click here to listen with your own player(launches your MP3 player)

LSZH 282050Z 17008KT 9999 -RA FEW035 SCT045 BKN064 10/09 Q1018 TEMPO RA

LSZH Flight Activity (Flightaware)

Listeners: 0 out of 1227 total

Zurich Radar (Below FL240 North): 136.155

LSZH Tower (Archives)
Zurich, Switzerland

Feed Status: UP
Listen in your browser - HTML5 player(in browser, HTML5)
Click here to listen with your own player(launches your MP3 player)

LSZH 282050Z 17008KT 9999 -RA FEW035 SCT045 BKN064 10/09 Q1018 TEMPO RA

LSZH Flight Activity (Flightaware)

Listeners: 4 out of 1227 total

Zurich Tower: 118.100

LSZH Tower (14/32) (Archives)
Zurich, Switzerland

Feed Status: UP
Listen in your browser - HTML5 player(in browser, HTML5)
Click here to listen with your own player(launches your MP3 player)

LSZH 282050Z 17008KT 9999 -RA FEW035 SCT045 BKN064 10/09 Q1018 TEMPO RA

LSZH Flight Activity (Flightaware)

Listeners: 1 out of 1227 total

Zurich Tower (Rwy 14 App/32 Takeoff): 120.225

LSZH Twr/Gnd (backup) (Archives)
Zurich, Switzerland

Feed Status: UP
Listen in your browser - HTML5 player(in browser, HTML5)
Click here to listen with your own player(launches your MP3 player)

LSZH 282050Z 17008KT 9999 -RA FEW035 SCT045 BKN064 10/09 Q1018 TEMPO RA

LSZH Flight Activity (Flightaware)

Listeners: 0 out of 1227 total

Zurich Twr/Gnd (backup): 119.700

LSZL Tower (Archives)
Locarno, Switzerland

Feed Status: UP
Listen in your browser - HTML5 player(in browser, HTML5)
Click here to listen with your own player(launches your MP3 player)

LSZL 282050Z AUTO VRB02KT 9999NDV FEW220 09/07 Q1018 RMK

LSZL Flight Activity (Flightaware)

Listeners: 1 out of 1227 total


LSZN CTAF (Archives)
Zurich, Switzerland

Feed Status: UP
Listen in your browser - HTML5 player(in browser, HTML5)
Click here to listen with your own player(launches your MP3 player)

LSZN Flight Activity (Flightaware)

Listeners: 0 out of 1227 total

Hausen am Albis CTAF: 130.755

LSZR Tower (Archives)
Altenrhein, Switzerland

Feed Status: UP
Listen in your browser - HTML5 player(in browser, HTML5)
Click here to listen with your own player(launches your MP3 player)

LSZR 282050Z AUTO 28005KT 9999 DZ SCT046 BKN055 12/09 Q1017

LSZR Flight Activity (Flightaware)

Listeners: 1 out of 1227 total

Altenrhein Tower: 135.425

LSZW CTAF (Archives)
Thun, Switzerland

Feed Status: UP
Listen in your browser - HTML5 player(in browser, HTML5)
Click here to listen with your own player(launches your MP3 player)

LSZW Flight Activity (Flightaware)

Listeners: 0 out of 1227 total

Thun CTAF/Info: 123.250

LTBA Gnd/Twr/App (Archives)
Istanbul, Turkey

Feed Status: UP
Listen in your browser - HTML5 player(in browser, HTML5)
Click here to listen with your own player(launches your MP3 player)

LTBA 282050Z 07006KT 9999 SCT030 BKN080 19/17 Q1014 NOSIG

LTBA Flight Activity (Flightaware)

Listeners: 0 out of 1227 total

Istanbul Approach: 126.425
Istanbul Ground: 121.800
Istanbul Tower: 118.100

LTFJ Del/Gnd/Twr
Istanbul, Turkey

Feed Status: DOWN
Offline since: 2020-10-12 11:23:40 UTC

LTFJ 282050Z 03006KT 9999 FEW026TCU BKN030 18/17 Q1015 NOSIG

Gokcen Clearance Delivery: 122.625
Gokcen Ground: 121.750
Gokcen Tower: 118.800

LTFJ Pegasus Dispatch
Istanbul, Turkey

Feed Status: DOWN
Offline since: 2020-09-30 14:07:39 UTC

LTFJ 282050Z 03006KT 9999 FEW026TCU BKN030 18/17 Q1015 NOSIG

Pegasus Dispatch: 131.750

LUKK ACC #1 (Archives)
Chisinau, Moldova

Feed Status: UP
Listen in your browser - HTML5 player(in browser, HTML5)
Click here to listen with your own player(launches your MP3 player)

LUKK 282100Z 00000KT 8000 BKN025 OVC042 12/11 Q1018 R08/CLRD// BECMG 3000 BR

LUKK Flight Activity (Flightaware)

Listeners: 0 out of 1227 total

Chisinau ACC: 130.975

LUKK ACC #2 (Archives)
Chisinau, Moldova

Feed Status: UP
Listen in your browser - HTML5 player(in browser, HTML5)
Click here to listen with your own player(launches your MP3 player)

LUKK 282100Z 00000KT 8000 BKN025 OVC042 12/11 Q1018 R08/CLRD// BECMG 3000 BR

LUKK Flight Activity (Flightaware)

Listeners: 0 out of 1227 total

Chisinau ACC: 128.975

LUKK Air to Air (Archives)
Chisinau, Moldova

Feed Status: UP
Listen in your browser - HTML5 player(in browser, HTML5)
Click here to listen with your own player(launches your MP3 player)

LUKK 282100Z 00000KT 8000 BKN025 OVC042 12/11 Q1018 R08/CLRD// BECMG 3000 BR

LUKK Flight Activity (Flightaware)

Listeners: 0 out of 1227 total

Chisinau Air to Air: 123.450

LUKK Alternate (Archives)
Chisinau, Moldova

Feed Status: UP
Listen in your browser - HTML5 player(in browser, HTML5)
Click here to listen with your own player(launches your MP3 player)

LUKK 282100Z 00000KT 8000 BKN025 OVC042 12/11 Q1018 R08/CLRD// BECMG 3000 BR

LUKK Flight Activity (Flightaware)

Listeners: 0 out of 1227 total

Chisinau Alternate: 129.725

LUKK Approach #1 (Archives)
Chisinau, Moldova

Feed Status: UP
Listen in your browser - HTML5 player(in browser, HTML5)
Click here to listen with your own player(launches your MP3 player)

LUKK 282100Z 00000KT 8000 BKN025 OVC042 12/11 Q1018 R08/CLRD// BECMG 3000 BR

LUKK Flight Activity (Flightaware)

Listeners: 0 out of 1227 total

Chisinau Approach: 133.300

LUKK Approach #2 (Archives)
Chisinau, Moldova

Feed Status: UP
Listen in your browser - HTML5 player(in browser, HTML5)
Click here to listen with your own player(launches your MP3 player)

LUKK 282100Z 00000KT 8000 BKN025 OVC042 12/11 Q1018 R08/CLRD// BECMG 3000 BR

LUKK Flight Activity (Flightaware)

Listeners: 0 out of 1227 total

Chisinau Approach: 133.300

LUKK Emergency/Guard (Archives)
Chisinau, Moldova

Feed Status: UP
Listen in your browser - HTML5 player(in browser, HTML5)
Click here to listen with your own player(launches your MP3 player)

LUKK 282100Z 00000KT 8000 BKN025 OVC042 12/11 Q1018 R08/CLRD// BECMG 3000 BR

LUKK Flight Activity (Flightaware)

Listeners: 0 out of 1227 total

Emergency/Guard: 121.500

LUKK Ground #2 (Archives)
Chisinau, Moldova

Feed Status: UP
Listen in your browser - HTML5 player(in browser, HTML5)
Click here to listen with your own player(launches your MP3 player)

LUKK 282100Z 00000KT 8000 BKN025 OVC042 12/11 Q1018 R08/CLRD// BECMG 3000 BR

LUKK Flight Activity (Flightaware)

Listeners: 0 out of 1227 total

Chisinau Ground: 121.800

LUKK Handling (Archives)
Chisinau, Moldova

Feed Status: UP
Listen in your browser - HTML5 player(in browser, HTML5)
Click here to listen with your own player(launches your MP3 player)

LUKK 282100Z 00000KT 8000 BKN025 OVC042 12/11 Q1018 R08/CLRD// BECMG 3000 BR

LUKK Flight Activity (Flightaware)

Listeners: 0 out of 1227 total

Chisinau Handling: 131.700

LUKK Tower #2 (Archives)
Chisinau, Moldova

Feed Status: UP
Listen in your browser - HTML5 player(in browser, HTML5)
Click here to listen with your own player(launches your MP3 player)

LUKK 282100Z 00000KT 8000 BKN025 OVC042 12/11 Q1018 R08/CLRD// BECMG 3000 BR

LUKK Flight Activity (Flightaware)

Listeners: 0 out of 1227 total

Chisinau Tower: 118.100

LWSK ACC (Lower) (Archives)
Petrovec, Macedonia, Republic of

Feed Status: UP
Listen in your browser - HTML5 player(in browser, HTML5)
Click here to listen with your own player(launches your MP3 player)

LWSK 282100Z 00000KT 7000 NSC 07/07 Q1017 NOSIG

LWSK Flight Activity (Flightaware)

Listeners: 0 out of 1227 total

Skopje Control (Lower): 119.375

LWSK ACC (Upper) (Archives)
Petrovec, Macedonia, Republic of

Feed Status: UP
Listen in your browser - HTML5 player(in browser, HTML5)
Click here to listen with your own player(launches your MP3 player)

LWSK 282100Z 00000KT 7000 NSC 07/07 Q1017 NOSIG

LWSK Flight Activity (Flightaware)

Listeners: 0 out of 1227 total

Skopje Control (Upper): 120.015

LWSK Approach (Archives)
Petrovec, Macedonia, Republic of

Feed Status: UP
Listen in your browser - HTML5 player(in browser, HTML5)
Click here to listen with your own player(launches your MP3 player)

LWSK 282100Z 00000KT 7000 NSC 07/07 Q1017 NOSIG

LWSK Flight Activity (Flightaware)

Listeners: 0 out of 1227 total

Skopje Approach/Departure: 120.300

LWSK ATIS (Archives)
Petrovec, Macedonia, Republic of

Feed Status: UP
Listen in your browser - HTML5 player(in browser, HTML5)
Click here to listen with your own player(launches your MP3 player)

LWSK 282100Z 00000KT 7000 NSC 07/07 Q1017 NOSIG

LWSK Flight Activity (Flightaware)

Listeners: 0 out of 1227 total

Skopje ATIS: 130.125

LWSK Tower (Archives)
Petrovec, Macedonia, Republic of

Feed Status: UP
Listen in your browser - HTML5 player(in browser, HTML5)
Click here to listen with your own player(launches your MP3 player)

LWSK 282100Z 00000KT 7000 NSC 07/07 Q1017 NOSIG

LWSK Flight Activity (Flightaware)

Listeners: 0 out of 1227 total

Skopje Tower: 118.500

LYNI Twr/App (Archives)
Nis, Serbia

Feed Status: UP
Listen in your browser - HTML5 player(in browser, HTML5)
Click here to listen with your own player(launches your MP3 player)

LYNI 282030Z 00000KT CAVOK 09/08 Q1017 NOSIG

LYNI Flight Activity (Flightaware)

Listeners: 0 out of 1227 total

Nis Approach: 119.525
Nis Approach/Tower (Alternate): 136.075
Nis Tower: 118.950

LZKZ Gnd/Twr/App (Archives)
Kosice, Slovakia

Feed Status: UP
Listen in your browser - HTML5 player(in browser, HTML5)
Click here to listen with your own player(launches your MP3 player)

LZKZ 282030Z 23004KT 180V250 CAVOK 09/08 Q1016

LZKZ Flight Activity (Flightaware)

Listeners: 0 out of 1227 total

Kosice Approach: 129.350
Kosice Approach (backup): 119.850
Kosice Ground: 121.700
Kosice Handling: 131.850
Kosice Tower: 120.400

LZNI CTAF (Archives)
Nitra, Slovakia

Feed Status: UP
Listen in your browser - HTML5 player(in browser, HTML5)
Click here to listen with your own player(launches your MP3 player)

LZNI Flight Activity (Flightaware)

Listeners: 0 out of 1227 total

Nitra Traffic Radio: 123.405

LZPE CTAF/UNICOM (Archives)
Prievidza, Slovakia

Feed Status: UP
Listen in your browser - HTML5 player(in browser, HTML5)
Click here to listen with your own player(launches your MP3 player)

LZPE Flight Activity (Flightaware)

Listeners: 0 out of 1227 total

Prievidza CTAF/UNICOM: 123.055

LZPP Ground/Tower (Archives)
Piestany, Slovakia

Feed Status: UP
Listen in your browser - HTML5 player(in browser, HTML5)
Click here to listen with your own player(launches your MP3 player)

LZPP 282030Z AUTO 34003KT 1900 BR FEW110/// 06/05 Q1018

LZPP Flight Activity (Flightaware)

Listeners: 1 out of 1227 total

Piestany Ground: 121.700
Piestany Tower: 118.575

LZPT CTAF (Archives)
Partizanske, Slovakia

Feed Status: UP
Listen in your browser - HTML5 player(in browser, HTML5)
Click here to listen with your own player(launches your MP3 player)

LZPT Flight Activity (Flightaware)

Listeners: 0 out of 1227 total

Male Bielice CTAF: 123.500

MDPP App/Dep (Archives)
Puerto Plata, Dominican Republic

Feed Status: UP
Listen in your browser - HTML5 player(in browser, HTML5)
Click here to listen with your own player(launches your MP3 player)

MDPP 282100Z 09012KT 9999 FEW022 30/24 Q1012

MDPP Flight Activity (Flightaware)

Listeners: 0 out of 1227 total

Puerto Plata Approach/Departure: 119.000

MDPP Ground/Center (Archives)
Puerto Plata, Dominican Republic

Feed Status: UP
Listen in your browser - HTML5 player(in browser, HTML5)
Click here to listen with your own player(launches your MP3 player)

MDPP 282100Z 09012KT 9999 FEW022 30/24 Q1012

MDPP Flight Activity (Flightaware)

Listeners: 0 out of 1227 total

Puerto Plata Ground: 121.900
Santo Domingo Center: 124.300

MDPP Ground/Tower/Center (Archives)
Puerto Plata, Dominican Republic

Feed Status: UP
Listen in your browser - HTML5 player(in browser, HTML5)
Click here to listen with your own player(launches your MP3 player)

MDPP 282100Z 09012KT 9999 FEW022 30/24 Q1012

MDPP Flight Activity (Flightaware)

Listeners: 0 out of 1227 total

Puerto Plata Ground: 121.900
Puerto Plata Tower: 118.000
Santo Domingo Center: 124.300

MDPP Tower (Archives)
Puerto Plata, Dominican Republic

Feed Status: UP
Listen in your browser - HTML5 player(in browser, HTML5)
Click here to listen with your own player(launches your MP3 player)

MDPP 282100Z 09012KT 9999 FEW022 30/24 Q1012

MDPP Flight Activity (Flightaware)

Listeners: 0 out of 1227 total

Puerto Plata Tower: 118.000

MHLC Gnd/Twr/Center (Archives)
La Ceiba, Honduras

Feed Status: UP
Listen in your browser - HTML5 player(in browser, HTML5)
Click here to listen with your own player(launches your MP3 player)

MHLC 282100Z 02006KT 9999 FEW028 BKN090 31/26 Q1008 A2977 NOSIG

MHLC Flight Activity (Flightaware)

Listeners: 0 out of 1227 total

CENAMER: 123.900
CENAMER: 124.300
Goloson Ground: 121.900
Goloson Tower: 118.500
La Ceiba Radio: 128.900

MHLM Gnd/Twr/App
San Pedro Sula, Honduras

Feed Status: DOWN
Offline since: 2020-08-29 13:58:40 UTC

MHLM 282100Z 03012KT 9999 FEW030CB FERW032TCU 33/25 Q1007 A2974 NOSIG

La Mesa Ground: 121.900
La Mesa Tower: 118.200
San Pedro Sula Approach: 119.700

MHTG ATIS (Archives)
Tegucigalpa, Honduras

Feed Status: UP
Listen in your browser - HTML5 player(in browser, HTML5)
Click here to listen with your own player(launches your MP3 player)

MHTG 282100Z 10008KT 9999 TS SCT030TCU FEW032CB 28/22 Q1014 A2994 NOSIG

MHTG Flight Activity (Flightaware)

Listeners: 0 out of 1227 total

Toncontin ATIS: 127.750

MHTG Gnd/Twr/App/Ctr/Ops (Archives)
Tegucigalpa, Honduras

Feed Status: UP
Listen in your browser - HTML5 player(in browser, HTML5)
Click here to listen with your own player(launches your MP3 player)

MHTG 282100Z 10008KT 9999 TS SCT030TCU FEW032CB 28/22 Q1014 A2994 NOSIG

MHTG Flight Activity (Flightaware)

Listeners: 0 out of 1227 total

American Airlines Ops: 130.700
ARINC ACARS: 131.550
Cenamer Center: 123.900
Cenamer Center: 124.300
Cenamer Center: 124.100
CMP Ops: 129.925
Continental Airlines Ops: 129.925
FAH Ground: 122.900
Taca Ops: 131.300
Taca Ops Sal: 130.300
Tecnologias Unidas: 133.000
Tegucigalpa RDO: 126.700
Toncontin Approach: 119.100
Toncontin Ground: 121.900
Toncontin Tower: 118.700

MMCU Twr/App (Archives)
Chihuahua, Mexico

Feed Status: UP
Listen in your browser - HTML5 player(in browser, HTML5)
Click here to listen with your own player(launches your MP3 player)

MMCU 282043Z 36012KT 10SM SKC 13/M07 A3004 RMK SLP162 57027 944

MMCU Flight Activity (Flightaware)

Listeners: 1 out of 1227 total

Chihuahua Approach: 121.000
Chihuahua Tower: 118.400

MMGL Twr/App (Archives)
Guadalajara, Mexico

Feed Status: UP
Listen in your browser - HTML5 player(in browser, HTML5)
Click here to listen with your own player(launches your MP3 player)

MMGL 282055Z 29004KT 10SM SKC 28/07 A3001 RMK SLP039 57029 960 ISOL CU

MMGL Flight Activity (Flightaware)

Listeners: 7 out of 1227 total

Guadalajara Approach: 120.800
Guadalajara Tower: 118.100

MMHO App/Dep (Archives)
Hermosillo, Mexico

Feed Status: UP
Listen in your browser - HTML5 player(in browser, HTML5)
Click here to listen with your own player(launches your MP3 player)

MMHO 282040Z 34004KT 10SM SKC 27/M09 A2993 RMK SLP/// 57031 964 HZY

MMHO Flight Activity (Flightaware)

Listeners: 1 out of 1227 total

Hermosillo Approach/Departure: 121.400

MMHO Info (Archives)
Hermosillo, Mexico

Feed Status: UP
Listen in your browser - HTML5 player(in browser, HTML5)
Click here to listen with your own player(launches your MP3 player)

MMHO 282040Z 34004KT 10SM SKC 27/M09 A2993 RMK SLP/// 57031 964 HZY

MMHO Flight Activity (Flightaware)

Listeners: 0 out of 1227 total

Hermosillo Info: 122.300

MMHO Tower (Archives)
Hermosillo, Mexico

Feed Status: UP
Listen in your browser - HTML5 player(in browser, HTML5)
Click here to listen with your own player(launches your MP3 player)

MMHO 282040Z 34004KT 10SM SKC 27/M09 A2993 RMK SLP/// 57031 964 HZY

MMHO Flight Activity (Flightaware)

Listeners: 1 out of 1227 total

Hermosillo Tower: 118.700

MMHO Twr/App (Archives)
Hermosillo, Mexico

Feed Status: UP
Listen in your browser - HTML5 player(in browser, HTML5)
Click here to listen with your own player(launches your MP3 player)

MMHO 282040Z 34004KT 10SM SKC 27/M09 A2993 RMK SLP/// 57031 964 HZY

MMHO Flight Activity (Flightaware)

Listeners: 0 out of 1227 total

Hermosillo Approach/Departure: 121.400
Hermosillo Info: 122.300
Hermosillo Tower: 118.700

MMLP Twr/App (Archives)
La Paz, Mexico

Feed Status: UP
Listen in your browser - HTML5 player(in browser, HTML5)
Click here to listen with your own player(launches your MP3 player)

MMLP 282040Z 34010KT 10SM SKC 26/10 A2989 RMK SLP121 57021 902 ISOL SC

MMLP Flight Activity (Flightaware)

Listeners: 0 out of 1227 total

La Paz Approach: 120.600
La Paz Tower: 118.100

MMMD App/Dep (Archives)
Merida, Mexico

Feed Status: UP
Listen in your browser - HTML5 player(in browser, HTML5)
Click here to listen with your own player(launches your MP3 player)

MMMD 282050Z 00000KT 7SM BKN020TCU BKN300 32/23 A2980 RMK SLP105 57

MMMD Flight Activity (Flightaware)

Listeners: 0 out of 1227 total

Merida Approach: 121.200

MMMD Merida Center (Archives)
Merida, Mexico

Feed Status: UP
Listen in your browser - HTML5 player(in browser, HTML5)
Click here to listen with your own player(launches your MP3 player)

MMMD 282050Z 00000KT 7SM BKN020TCU BKN300 32/23 A2980 RMK SLP105 57

MMMD Flight Activity (Flightaware)

Listeners: 2 out of 1227 total

Merida Center: 125.800
Merida Center: 123.750

MMMD Tower (Archives)
Merida, Mexico

Feed Status: UP
Listen in your browser - HTML5 player(in browser, HTML5)
Click here to listen with your own player(launches your MP3 player)

MMMD 282050Z 00000KT 7SM BKN020TCU BKN300 32/23 A2980 RMK SLP105 57

MMMD Flight Activity (Flightaware)

Listeners: 0 out of 1227 total

Merida Tower: 118.300

MMMM Tower (Archives)
Morelia, Mexico

Feed Status: UP
Listen in your browser - HTML5 player(in browser, HTML5)
Click here to listen with your own player(launches your MP3 player)

MMMM 282046Z 15008KT 8SM SCT030 27/11 A3006 RMK SLP024 57029 954 8/500 HZY

MMMM Flight Activity (Flightaware)

Listeners: 0 out of 1227 total

Morelia Tower: 118.500

MMMX Approach (Archives)
Mexico City, Mexico

Feed Status: UP
Listen in your browser - HTML5 player(in browser, HTML5)
Click here to listen with your own player(launches your MP3 player)

MMMX 282047Z 03006KT 6SM SCT020 25/06 A3014 NOSIG RMK 8/200 HZY ISOL CI

MMMX Flight Activity (Flightaware)

Listeners: 4 out of 1227 total

Mexico City Approach: 121.200

MMMX Twr/App (Archives)
Mexico City, Mexico

Feed Status: UP
Listen in your browser - HTML5 player(in browser, HTML5)
Click here to listen with your own player(launches your MP3 player)

MMMX 282047Z 03006KT 6SM SCT020 25/06 A3014 NOSIG RMK 8/200 HZY ISOL CI

MMMX Flight Activity (Flightaware)

Listeners: 12 out of 1227 total

Mexico City Approach: 121.200
Mexico City Departure (East): 120.500
Mexico City Departure (West): 129.100
Mexico City Final Approach: 119.750
Mexico City Helicopters: 118.150
Mexico City Terminal: 129.600
Mexico City Tower: 118.550

MMMY Tower/Approach
Monterrey, Mexico

Feed Status: DOWN
Offline since: 2020-09-10 04:46:39 UTC

MMMY 281942Z 34004KT 10SM SKC 23/02 A2986

Monterrey Approach/Departure: 119.750
Monterrey Tower: 118.100

MMSP Gnd/Twr/App/Center (Archives)
San Luis Potosi, Mexico

Feed Status: UP
Listen in your browser - HTML5 player(in browser, HTML5)
Click here to listen with your own player(launches your MP3 player)

MMSP 282043Z 23004KT 12SM SCT230 29/M02 A3001 RMK SLP016 57031 956 8/001 ISOL CU

MMSP Flight Activity (Flightaware)

Listeners: 0 out of 1227 total

AMX Ground Ops: 131.000
Mexico Center (North, Sector 6): 126.000
Mexico Center (Northwest, Sector 7): 123.900
Mexico Center (West, Sector 5): 125.100
Potosi Approach: 127.500
Potosi Tower: 118.900
TAO Ground Ops: 133.600

MMTC Twr/App/Center (Archives)
Torreon, Mexico

Feed Status: UP
Listen in your browser - HTML5 player(in browser, HTML5)
Click here to listen with your own player(launches your MP3 player)

MMTC 282040Z 00000KT 10SM SKC 20/00 A2995 RMK SLP086 57031 941 PRESFR HZY

MMTC Flight Activity (Flightaware)

Listeners: 2 out of 1227 total

Mazatlan Center: 124.200
Mazatlan Center: 124.400
Mazatlan Center: 128.000
Mexico Center: 123.900
Monterrey Center: 125.600
Monterrey Center: 125.425
Monterrey Center: 127.400
Torreon Approach: 119.500
Torreon Tower: 118.500

MMTJ Approach (Archives)
Tijuana, Mexico

Feed Status: UP
Listen in your browser - HTML5 player(in browser, HTML5)
Click here to listen with your own player(launches your MP3 player)

MMTJ 282042Z 28013KT 10SM SKC 24/M06 A3004 RMK SLP/// 57015 913 HZY

MMTJ Flight Activity (Flightaware)

Listeners: 0 out of 1227 total

Tijuana Approach: 120.300

MMTJ Twr/Ramp (Archives)
Tijuana, Mexico

Feed Status: UP
Listen in your browser - HTML5 player(in browser, HTML5)
Click here to listen with your own player(launches your MP3 player)

MMTJ 282042Z 28013KT 10SM SKC 24/M06 A3004 RMK SLP/// 57015 913 HZY

MMTJ Flight Activity (Flightaware)

Listeners: 1 out of 1227 total

Tijuana Ramp: 126.100
Tijuana Tower: 118.100

MROC Del/Gnd/Twr (Archives)
San Jose, Costa Rica

Feed Status: UP
Listen in your browser - HTML5 player(in browser, HTML5)
Click here to listen with your own player(launches your MP3 player)

MROC 282020Z 21005KT 160V270 9999 4000SW TSRA BKN008CB 23/23 A2993 TEMPO 5000

MROC Flight Activity (Flightaware)

Listeners: 2 out of 1227 total

Coco Clearance Delivery/Ground: 121.900
Coco Tower: 118.600

MROC Del/Gnd/Twr/App/Center/Misc (Archives)
San Jose, Costa Rica

Feed Status: UP
Listen in your browser - HTML5 player(in browser, HTML5)
Click here to listen with your own player(launches your MP3 player)

MROC 282020Z 21005KT 160V270 9999 4000SW TSRA BKN008CB 23/23 A2993 TEMPO 5000

MROC Flight Activity (Flightaware)

Listeners: 4 out of 1227 total

Central American Center (CENAMER Control): 124.100
Coco Center (Control over CR Airspace): 119.600
Coco Clearance Delivery: 121.300
Coco Ground: 121.900
Coco Terminal Control: 120.500
Coco Tower: 118.600
Coco UNICOM: 126.800
SYQ Ground: 121.700
SYQ Tower: 118.300

MSLP Gnd/Twr/App (Archives)
San Salvador, El Salvador

Feed Status: UP
Listen in your browser - HTML5 player(in browser, HTML5)
Click here to listen with your own player(launches your MP3 player)

MSLP 282050Z 21008KT 180V240 9999 FEW027 FEW033TCU FEW037CB 30/25 Q1007 A2974 NOSIG RMK CB NW TCU N NE

MSLP Flight Activity (Flightaware)

Listeners: 0 out of 1227 total

Comalapa Ground: 121.700
Comalapa Tower: 118.000
Compalapa Approach: 119.900

MSLP Gnd/Twr/App/Center (Archives)
San Salvador, El Salvador

Feed Status: UP
Listen in your browser - HTML5 player(in browser, HTML5)
Click here to listen with your own player(launches your MP3 player)

MSLP 282050Z 21008KT 180V240 9999 FEW027 FEW033TCU FEW037CB 30/25 Q1007 A2974 NOSIG RMK CB NW TCU N NE

MSLP Flight Activity (Flightaware)

Listeners: 0 out of 1227 total

Avianca Ops: 123.500
CCA: 119.300
CENAMER: 124.100
Comalapa Authorizations: 121.250
Comalapa Departure: 123.900
Comalapa Ground: 121.700
Comalapa Tower: 118.000
Compalapa Approach: 119.900
Ilopango Tower: 118.300
TACA Ops: 130.500

MSSS Tower
San Salvador, El Salvador

Feed Status: DOWN
Offline since: 2020-10-25 22:25:06 UTC

MSSS 281950Z 20007KT 9999 SCT025 29/23 Q1011 A2988

Ilopango Tower: 118.300

MUFH Havana FIR (App/Center) (Archives)
Havana, Cuba

Feed Status: UP
Listen in your browser - HTML5 player(in browser, HTML5)
Click here to listen with your own player(launches your MP3 player)

MUFH Flight Activity (Flightaware)

Listeners: 0 out of 1227 total

Hava Approach: 120.300
Havana Center: 120.250
Havana Center: 123.700
Havana Center: 124.550
Havana Center: 133.700
Havana Center: 135.100

OBBI Gnd/Twr/App (Archives)
Muharraq, Bahrain

Feed Status: UP
Listen in your browser - HTML5 player(in browser, HTML5)
Click here to listen with your own player(launches your MP3 player)

OBBI 282000Z 33003KT CAVOK 27/19 Q1015 NOSIG


Listeners: 0 out of 1227 total

Bahrain Arrival: 127.850
Bahrain Control (Low Central): 124.300
Bahrain Control (Low East): 125.700
Bahrain Control (Low North): 126.700
Bahrain Departure: 119.100
Bahrain Ground: 121.850
Bahrain Tower: 118.500

OKBK Gnd/Twr/App/Radar (Archives)
Kuwait City, Kuwait

Feed Status: UP
Listen in your browser - HTML5 player(in browser, HTML5)
Click here to listen with your own player(launches your MP3 player)

OKBK 282100Z 18004KT 6000 SKC 19/01 Q1016 NOSIG


Listeners: 1 out of 1227 total

Kuwait Approach: 121.300
Kuwait Approach: 124.800
Kuwait Ground: 121.700
Kuwait Radar (Center): 125.300
Kuwait Tower: 118.300

OPKC Gnd/Twr/Radar (Archives)
Karachi, Pakistan

Feed Status: UP
Listen in your browser - HTML5 player(in browser, HTML5)
Click here to listen with your own player(launches your MP3 player)

OPKC 282030Z 00000KT 6000 NSC 22/19 Q1012 NOSIG


Listeners: 1 out of 1227 total

Karachi Ground: 121.600
Karachi Radar: 125.500
Karachi Tower: 118.300

RCTP Approach (Archives)
Taipei, Taiwan

Feed Status: UP
Listen in your browser - HTML5 player(in browser, HTML5)
Click here to listen with your own player(launches your MP3 player)

RCTP 282030Z 04017KT 9999 FEW015 BKN050 23/20 Q1018 NOSIG RMK A3006

RCTP Flight Activity (Flightaware)

Listeners: 1 out of 1227 total

Emergency/Guard: 121.500
Taipei Approach: 125.100
Taipei Approach: 125.600
Taipei Approach: 128.500

RCTP Tower (Archives)
Taipei, Taiwan

Feed Status: UP
Listen in your browser - HTML5 player(in browser, HTML5)
Click here to listen with your own player(launches your MP3 player)

RCTP 282030Z 04017KT 9999 FEW015 BKN050 23/20 Q1018 NOSIG RMK A3006

RCTP Flight Activity (Flightaware)

Listeners: 1 out of 1227 total

Taipei Tower: 118.700

RJAA Approach (Archives)
Tokyo, Japan

Feed Status: UP
Listen in your browser - HTML5 player(in browser, HTML5)
Click here to listen with your own player(launches your MP3 player)

RJAA 282030Z 33005KT 6000 BR FEW030 BKN/// 12/11 Q1015 NOSIG

RJAA Flight Activity (Flightaware)

Listeners: 8 out of 1227 total

Tokyo Approach: 124.400
Tokyo Approach: 127.700

RJAA ATIS (Archives)
Tokyo, Japan

Feed Status: UP
Listen in your browser - HTML5 player(in browser, HTML5)
Click here to listen with your own player(launches your MP3 player)

RJAA 282030Z 33005KT 6000 BR FEW030 BKN/// 12/11 Q1015 NOSIG

RJAA Flight Activity (Flightaware)

Listeners: 1 out of 1227 total

Narita ATIS: 128.250

RJAA Clearance Delivery (Archives)
Tokyo, Japan

Feed Status: UP
Listen in your browser - HTML5 player(in browser, HTML5)
Click here to listen with your own player(launches your MP3 player)

RJAA 282030Z 33005KT 6000 BR FEW030 BKN/// 12/11 Q1015 NOSIG

RJAA Flight Activity (Flightaware)

Listeners: 0 out of 1227 total

Narita Clearance Delivery (Asia/Pacific): 121.650
Narita Clearance Delivery (US/Europe): 121.900

RJAA Clearance Delivery #1 (Archives)
Tokyo, Japan

Feed Status: UP
Listen in your browser - HTML5 player(in browser, HTML5)
Click here to listen with your own player(launches your MP3 player)

RJAA 282030Z 33005KT 6000 BR FEW030 BKN/// 12/11 Q1015 NOSIG

RJAA Flight Activity (Flightaware)

Listeners: 0 out of 1227 total

Narita Clearance Delivery (Asia/Pacific): 121.650

RJAA Clearance Delivery #2 (Archives)
Tokyo, Japan

Feed Status: UP
Listen in your browser - HTML5 player(in browser, HTML5)
Click here to listen with your own player(launches your MP3 player)

RJAA 282030Z 33005KT 6000 BR FEW030 BKN/// 12/11 Q1015 NOSIG

RJAA Flight Activity (Flightaware)

Listeners: 1 out of 1227 total

Narita Clearance Delivery (US/Europe): 121.900

RJAA Company Channels (Archives)
Tokyo, Japan

Feed Status: UP
Listen in your browser - HTML5 player(in browser, HTML5)
Click here to listen with your own player(launches your MP3 player)

RJAA 282030Z 33005KT 6000 BR FEW030 BKN/// 12/11 Q1015 NOSIG

RJAA Flight Activity (Flightaware)

Listeners: 0 out of 1227 total

Ops: 130.450
Ops: 130.550
Ops: 130.900
Ops: 131.025
Ops: 131.100
Ops: 131.200
Ops: 131.700
Ops: 131.750

RJAA Departure (Archives)
Tokyo, Japan

Feed Status: UP
Listen in your browser - HTML5 player(in browser, HTML5)
Click here to listen with your own player(launches your MP3 player)

RJAA 282030Z 33005KT 6000 BR FEW030 BKN/// 12/11 Q1015 NOSIG

RJAA Flight Activity (Flightaware)

Listeners: 2 out of 1227 total

Tokyo Departure: 119.600
Tokyo Departure: 124.200

RJAA Departure #1 (Archives)
Tokyo, Japan

Feed Status: UP
Listen in your browser - HTML5 player(in browser, HTML5)
Click here to listen with your own player(launches your MP3 player)

RJAA 282030Z 33005KT 6000 BR FEW030 BKN/// 12/11 Q1015 NOSIG

RJAA Flight Activity (Flightaware)

Listeners: 0 out of 1227 total

Tokyo Departure: 124.200

RJAA Departure #2 (Archives)
Tokyo, Japan

Feed Status: UP
Listen in your browser - HTML5 player(in browser, HTML5)
Click here to listen with your own player(launches your MP3 player)

RJAA 282030Z 33005KT 6000 BR FEW030 BKN/// 12/11 Q1015 NOSIG

RJAA Flight Activity (Flightaware)

Listeners: 1 out of 1227 total

Tokyo Departure: 119.600

RJAA Emergency/Guard (Archives)
Tokyo, Japan

Feed Status: UP
Listen in your browser - HTML5 player(in browser, HTML5)
Click here to listen with your own player(launches your MP3 player)

RJAA 282030Z 33005KT 6000 BR FEW030 BKN/// 12/11 Q1015 NOSIG

RJAA Flight Activity (Flightaware)

Listeners: 0 out of 1227 total

Emergency/Guard: 121.500

RJAA Ground #1 (Archives)
Tokyo, Japan

Feed Status: UP
Listen in your browser - HTML5 player(in browser, HTML5)
Click here to listen with your own player(launches your MP3 player)

RJAA 282030Z 33005KT 6000 BR FEW030 BKN/// 12/11 Q1015 NOSIG

RJAA Flight Activity (Flightaware)

Listeners: 1 out of 1227 total

Narita Ground: 121.850

RJAA Ground #2 (Archives)
Tokyo, Japan

Feed Status: UP
Listen in your browser - HTML5 player(in browser, HTML5)
Click here to listen with your own player(launches your MP3 player)

RJAA 282030Z 33005KT 6000 BR FEW030 BKN/// 12/11 Q1015 NOSIG

RJAA Flight Activity (Flightaware)

Listeners: 1 out of 1227 total

Narita Ground: 121.950

RJAA Radar 119.025 (Archives)
Tokyo, Japan

Feed Status: UP
Listen in your browser - HTML5 player(in browser, HTML5)
Click here to listen with your own player(launches your MP3 player)

RJAA 282030Z 33005KT 6000 BR FEW030 BKN/// 12/11 Q1015 NOSIG

RJAA Flight Activity (Flightaware)

Listeners: 0 out of 1227 total

Tokyo Radar: 119.025

RJAA Radar 120.2 (Archives)
Tokyo, Japan

Feed Status: UP
Listen in your browser - HTML5 player(in browser, HTML5)
Click here to listen with your own player(launches your MP3 player)

RJAA 282030Z 33005KT 6000 BR FEW030 BKN/// 12/11 Q1015 NOSIG

RJAA Flight Activity (Flightaware)

Listeners: 0 out of 1227 total

Tokyo Radar: 120.200

RJAA Radar 120.6 (Archives)
Tokyo, Japan

Feed Status: UP
Listen in your browser - HTML5 player(in browser, HTML5)
Click here to listen with your own player(launches your MP3 player)

RJAA 282030Z 33005KT 6000 BR FEW030 BKN/// 12/11 Q1015 NOSIG

RJAA Flight Activity (Flightaware)

Listeners: 0 out of 1227 total

Tokyo Radar: 120.600

RJAA Radar 132.1 (Archives)
Tokyo, Japan

Feed Status: UP
Listen in your browser - HTML5 player(in browser, HTML5)
Click here to listen with your own player(launches your MP3 player)

RJAA 282030Z 33005KT 6000 BR FEW030 BKN/// 12/11 Q1015 NOSIG

RJAA Flight Activity (Flightaware)

Listeners: 0 out of 1227 total

Tokyo Radar: 132.100

RJAA Radar 133.35 (Archives)
Tokyo, Japan

Feed Status: UP
Listen in your browser - HTML5 player(in browser, HTML5)
Click here to listen with your own player(launches your MP3 player)

RJAA 282030Z 33005KT 6000 BR FEW030 BKN/// 12/11 Q1015 NOSIG

RJAA Flight Activity (Flightaware)

Listeners: 0 out of 1227 total

Tokyo Radar: 133.350

RJAA Ramp #1 (Archives)
Tokyo, Japan

Feed Status: UP
Listen in your browser - HTML5 player(in browser, HTML5)
Click here to listen with your own player(launches your MP3 player)

RJAA 282030Z 33005KT 6000 BR FEW030 BKN/// 12/11 Q1015 NOSIG

RJAA Flight Activity (Flightaware)

Listeners: 0 out of 1227 total

Narita Ramp: 121.600

RJAA Ramp #2 (Archives)
Tokyo, Japan

Feed Status: UP
Listen in your browser - HTML5 player(in browser, HTML5)
Click here to listen with your own player(launches your MP3 player)

RJAA 282030Z 33005KT 6000 BR FEW030 BKN/// 12/11 Q1015 NOSIG

RJAA Flight Activity (Flightaware)

Listeners: 1 out of 1227 total

Narita Ramp: 121.750

RJAA TCA (Archives)
Tokyo, Japan

Feed Status: UP
Listen in your browser - HTML5 player(in browser, HTML5)
Click here to listen with your own player(launches your MP3 player)

RJAA 282030Z 33005KT 6000 BR FEW030 BKN/// 12/11 Q1015 NOSIG

RJAA Flight Activity (Flightaware)

Listeners: 1 out of 1227 total

Tokyo TCA (Terminal Control Area): 119.450

RJAA Tokyo Control (Archives)
Tokyo, Japan

Feed Status: UP
Listen in your browser - HTML5 player(in browser, HTML5)
Click here to listen with your own player(launches your MP3 player)

RJAA 282030Z 33005KT 6000 BR FEW030 BKN/// 12/11 Q1015 NOSIG

RJAA Flight Activity (Flightaware)

Listeners: 0 out of 1227 total

Tokyo Control: 125.900

RJAA Tower #1 (Archives)
Tokyo, Japan

Feed Status: UP
Listen in your browser - HTML5 player(in browser, HTML5)
Click here to listen with your own player(launches your MP3 player)

RJAA 282030Z 33005KT 6000 BR FEW030 BKN/// 12/11 Q1015 NOSIG

RJAA Flight Activity (Flightaware)

Listeners: 1 out of 1227 total

Narita Tower (Rwy 16R/34L): 118.200

RJAA Tower #2 (Archives)
Tokyo, Japan

Feed Status: UP
Listen in your browser - HTML5 player(in browser, HTML5)
Click here to listen with your own player(launches your MP3 player)

RJAA 282030Z 33005KT 6000 BR FEW030 BKN/// 12/11 Q1015 NOSIG

RJAA Flight Activity (Flightaware)

Listeners: 1 out of 1227 total

Narita Tower (Rwy 16L/34R): 118.350

RJAA Tower (Both) (Archives)
Tokyo, Japan

Feed Status: UP
Listen in your browser - HTML5 player(in browser, HTML5)
Click here to listen with your own player(launches your MP3 player)

RJAA 282030Z 33005KT 6000 BR FEW030 BKN/// 12/11 Q1015 NOSIG

RJAA Flight Activity (Flightaware)

Listeners: 1 out of 1227 total

Narita Tower (Rwy 16L/34R): 118.350
Narita Tower (Rwy 16R/34L): 118.200

RJOO Tower (Archives)
Osaka, Japan

Feed Status: UP
Listen in your browser - HTML5 player(in browser, HTML5)
Click here to listen with your own player(launches your MP3 player)

RJOO 282000Z 32003KT CAVOK 12/11 Q1020

RJOO Flight Activity (Flightaware)

Listeners: 1 out of 1227 total

Osaka Tower: 118.100

RJSF RDO (Archives)
Sukagawa, Japan

Feed Status: UP
Listen in your browser - HTML5 player(in browser, HTML5)
Click here to listen with your own player(launches your MP3 player)

RJSF 281100Z 15005KT 9999 FEW015 BKN170 13/11 Q1018

RJSF Flight Activity (Flightaware)

Listeners: 1 out of 1227 total

Fukushima Radio: 118.050

RJTT App/Dep (Archives)
Tokyo, Japan

Feed Status: UP
Listen in your browser - HTML5 player(in browser, HTML5)
Click here to listen with your own player(launches your MP3 player)

RJTT 282030Z 35007KT 9999 FEW030 BKN/// 15/12 Q1015 NOSIG

RJTT Flight Activity (Flightaware)

Listeners: 25 out of 1227 total

Tokyo Approach: 119.100
Tokyo Approach: 119.400
Tokyo Departure: 120.800
Tokyo Departure: 126.000

RJTT Approach (Archives)
Tokyo, Japan

Feed Status: UP
Listen in your browser - HTML5 player(in browser, HTML5)
Click here to listen with your own player(launches your MP3 player)

RJTT 282030Z 35007KT 9999 FEW030 BKN/// 15/12 Q1015 NOSIG

RJTT Flight Activity (Flightaware)

Listeners: 6 out of 1227 total

Tokyo Approach: 119.100
Tokyo Approach: 119.400

RJTT ATIS (Archives)
Tokyo, Japan

Feed Status: UP
Listen in your browser - HTML5 player(in browser, HTML5)
Click here to listen with your own player(launches your MP3 player)

RJTT 282030Z 35007KT 9999 FEW030 BKN/// 15/12 Q1015 NOSIG

RJTT Flight Activity (Flightaware)

Listeners: 0 out of 1227 total

Tokyo ATIS: 128.800

RJTT Company Channels (Archives)
Tokyo, Japan

Feed Status: UP
Listen in your browser - HTML5 player(in browser, HTML5)
Click here to listen with your own player(launches your MP3 player)

RJTT 282030Z 35007KT 9999 FEW030 BKN/// 15/12 Q1015 NOSIG

RJTT Flight Activity (Flightaware)

Listeners: 14 out of 1227 total

Company TBD: 128.500
Company TBD: 131.850
Company TBD: 129.725
Company TBD: 129.700
Company TBD: 131.900
Company TBD: 129.850
Company TBD: 128.975
Company TBD: 123.675
Company TBD: 132.075

RJTT Del/Ground (Archives)
Tokyo, Japan

Feed Status: UP
Listen in your browser - HTML5 player(in browser, HTML5)
Click here to listen with your own player(launches your MP3 player)

RJTT 282030Z 35007KT 9999 FEW030 BKN/// 15/12 Q1015 NOSIG

RJTT Flight Activity (Flightaware)

Listeners: 2 out of 1227 total

Tokyo Clearance Delivery: 121.825
Tokyo Ground: 121.700
Tokyo Ground: 118.225
Tokyo Ground: 121.625
Tokyo Ground: 121.975

RJTT Del/Twr/TCA/Gnd (Archives)
Tokyo, Japan

Feed Status: UP
Listen in your browser - HTML5 player(in browser, HTML5)
Click here to listen with your own player(launches your MP3 player)

RJTT 282030Z 35007KT 9999 FEW030 BKN/// 15/12 Q1015 NOSIG

RJTT Flight Activity (Flightaware)

Listeners: 9 out of 1227 total

Tokyo Clearance Delivery: 121.825
Tokyo Ground: 121.975
Tokyo Ground: 121.625
Tokyo Ground: 121.700
Tokyo Ground: 118.225
Tokyo TCA: 124.750
Tokyo Tower: 118.100
Tokyo Tower: 118.575
Tokyo Tower: 118.725
Tokyo Tower: 124.350

RJTT Departure (Archives)
Tokyo, Japan

Feed Status: UP
Listen in your browser - HTML5 player(in browser, HTML5)
Click here to listen with your own player(launches your MP3 player)

RJTT 282030Z 35007KT 9999 FEW030 BKN/// 15/12 Q1015 NOSIG

RJTT Flight Activity (Flightaware)

Listeners: 4 out of 1227 total

Tokyo Departure: 120.800
Tokyo Departure: 126.000

RJTT Tokyo Control (Archives)
Tokyo, Japan

Feed Status: UP
Listen in your browser - HTML5 player(in browser, HTML5)
Click here to listen with your own player(launches your MP3 player)

RJTT 282030Z 35007KT 9999 FEW030 BKN/// 15/12 Q1015 NOSIG

RJTT Flight Activity (Flightaware)

Listeners: 17 out of 1227 total

Tokyo Control: 133.700
Tokyo Control: 125.900
Tokyo Control: 120.500

RJTT Twr/TCA (Archives)
Tokyo, Japan

Feed Status: UP
Listen in your browser - HTML5 player(in browser, HTML5)
Click here to listen with your own player(launches your MP3 player)

RJTT 282030Z 35007KT 9999 FEW030 BKN/// 15/12 Q1015 NOSIG

RJTT Flight Activity (Flightaware)

Listeners: 6 out of 1227 total

Tokyo TCA: 124.750
Tokyo Tower: 118.100
Tokyo Tower: 118.575
Tokyo Tower: 118.725
Tokyo Tower: 124.350

RJTY Approach (Archives)
Tokyo, Japan

Feed Status: UP
Listen in your browser - HTML5 player(in browser, HTML5)
Click here to listen with your own player(launches your MP3 player)

RJTY 281956Z AUTO 29003KT 10SM CLR 12/10 A3003 RMK AO2 SLP173 T01200097 FZRANO $

RJTY Flight Activity (Flightaware)

Listeners: 8 out of 1227 total

Yokota Approach: 118.300
Yokota APproach: 123.800
Yokota Approach: 120.700

RJTY ATIS (Archives)
Tokyo, Japan

Feed Status: UP
Listen in your browser - HTML5 player(in browser, HTML5)
Click here to listen with your own player(launches your MP3 player)

RJTY 281956Z AUTO 29003KT 10SM CLR 12/10 A3003 RMK AO2 SLP173 T01200097 FZRANO $

RJTY Flight Activity (Flightaware)

Listeners: 0 out of 1227 total

Yokota ATIS: 126.400

RJTY Ground (Archives)
Tokyo, Japan

Feed Status: UP
Listen in your browser - HTML5 player(in browser, HTML5)
Click here to listen with your own player(launches your MP3 player)

RJTY 281956Z AUTO 29003KT 10SM CLR 12/10 A3003 RMK AO2 SLP173 T01200097 FZRANO $

RJTY Flight Activity (Flightaware)

Listeners: 0 out of 1227 total

Yokota Ground: 133.200

RJTY Ground/Tower (Archives)
Tokyo, Japan

Feed Status: UP
Listen in your browser - HTML5 player(in browser, HTML5)
Click here to listen with your own player(launches your MP3 player)

RJTY 281956Z AUTO 29003KT 10SM CLR 12/10 A3003 RMK AO2 SLP173 T01200097 FZRANO $

RJTY Flight Activity (Flightaware)

Listeners: 1 out of 1227 total

Yokota Ground: 133.200
Yokota Tower: 134.300

RJTY Tower (Archives)
Tokyo, Japan

Feed Status: UP
Listen in your browser - HTML5 player(in browser, HTML5)
Click here to listen with your own player(launches your MP3 player)

RJTY 281956Z AUTO 29003KT 10SM CLR 12/10 A3003 RMK AO2 SLP173 T01200097 FZRANO $

RJTY Flight Activity (Flightaware)

Listeners: 1 out of 1227 total

Yokota Tower: 134.300

RKSG Gnd/Twr/App (Archives)
Pyeongtaek, Korea, Republic of

Feed Status: UP
Listen in your browser - HTML5 player(in browser, HTML5)
Click here to listen with your own player(launches your MP3 player)

RKSG 282056Z 00000KT 7SM CLR 03/M01 A3027 RMK AO2A SLP254 $

RKSG Flight Activity (Flightaware)

Listeners: 0 out of 1227 total

Desiderio Final: 255.800
Desiderio GCA: 226.800
Desiderio GCA: 127.000
Desiderio Ground (Camp Humphreys A-511 AAF): 119.500
Desiderio Ground UHF: 229.700
Desiderio Ops: 294.100
Desiderio Tower (Camp Humphreys A-511 AAF): 122.500
Desiderio Tower UHF: 257.800

RKRR Incheon Control (Archives)
Incheon, Korea, Republic of

Feed Status: UP
Listen in your browser - HTML5 player(in browser, HTML5)
Click here to listen with your own player(launches your MP3 player)

RKSI 282030Z 35002KT CAVOK 07/M03 Q1025 NOSIG

RKSI Flight Activity (Flightaware)

Listeners: 5 out of 1227 total

Incheon Control North Sector (Primary): 128.700
Incheon Control North Sector (Secondary): 132.800
Incheon Control Northwest Sector (Primary): 126.175
Incheon Control Northwest Sector (Secondary): 123.725

RKSO Gnd/Twr/App (Archives)
Pyeongtaek, Korea, Republic of

Feed Status: UP
Listen in your browser - HTML5 player(in browser, HTML5)
Click here to listen with your own player(launches your MP3 player)

RKSO 282000Z 10004KT 7SM FEW200 01/01 A3026 RMK AO2 SLPNO $

RKSO Flight Activity (Flightaware)

Listeners: 3 out of 1227 total

25 FS Ops: 229.000
36FS Ops: 371.300
Osan Air Base Approach/Departure: 127.900
Osan Air Base Approach/Departure: 133.650
Osan Air Base Ground: 132.450
Osan Air Base Tower: 122.100
Osan App/Dep UHF: 306.600
Osan App/Dep UHF: 234.300
Osan App/Dep UHF (possibly inactive): 306.300
Osan App/Dep UHF (possibly inactive): 363.100
Osan Ground UHF: 253.700
Osan SAR: 282.800
Osan SAR: 381.000
Osan SOF: 299.800
Osan Tower UHF: 308.800
Stallion Ops: 276.200

ROAH Gnd/Twr/App (Archives)
Okinawa, Japan

Feed Status: UP
Listen in your browser - HTML5 player(in browser, HTML5)
Click here to listen with your own player(launches your MP3 player)

RODN 282056Z AUTO 07006KT 10SM CLR 20/18 A3005 RMK AO2 SLP182 T01960177 $

RODN Flight Activity (Flightaware)

Listeners: 7 out of 1227 total


ROAH Naha ACC (Archives)
Okinawa, Japan

Feed Status: UP
Listen in your browser - HTML5 player(in browser, HTML5)
Click here to listen with your own player(launches your MP3 player)

RODN 282056Z AUTO 07006KT 10SM CLR 20/18 A3005 RMK AO2 SLP182 T01960177 $

RODN Flight Activity (Flightaware)

Listeners: 0 out of 1227 total


RODN Gnd/Twr/App (Archives)
Okinawa, Japan

Feed Status: UP
Listen in your browser - HTML5 player(in browser, HTML5)
Click here to listen with your own player(launches your MP3 player)

RODN 282056Z AUTO 07006KT 10SM CLR 20/18 A3005 RMK AO2 SLP182 T01960177 $

RODN Flight Activity (Flightaware)

Listeners: 2 out of 1227 total


ROTM Gnd/Twr (Archives)
Okinawa, Japan

Feed Status: UP
Listen in your browser - HTML5 player(in browser, HTML5)
Click here to listen with your own player(launches your MP3 player)

RODN 282056Z AUTO 07006KT 10SM CLR 20/18 A3005 RMK AO2 SLP182 T01960177 $

RODN Flight Activity (Flightaware)

Listeners: 4 out of 1227 total


SABE Gnd/Twr/App (Archives)
Buenos Aires, Argentina

Feed Status: UP
Listen in your browser - HTML5 player(in browser, HTML5)
Click here to listen with your own player(launches your MP3 player)

SABE 282000Z 20009KT 140V270 9999 FEW032 OVC070 15/10 Q1013 NOSIG

SABE Flight Activity (Flightaware)

Listeners: 1 out of 1227 total

Aerolineas Argentinas Ops: 131.950
Aerolineas Argentinas Ops: 131.100
Aeroparque Ground: 121.900
Aeroparque Tower: 120.600
Aeroparque Tower: 118.250
Aeroparque Tower: 128.850
Aeroparque Tower: 118.850
Aeroparque Tower: 129.300
Air to Air: 123.450
Baires: 125.900
Baires: 125.300
Baires: 124.900
Cordoba South: 126.500
Ezeiza Ground: 121.750
Ezeiza North: 133.350
Ezeiza North: 124.500
Ezeiza North: 125.600
Ezeiza North: 135.500
Ezeiza South: 124.100
Ezeiza South: 125.200
LAN Ops: 131.700

SANT Tower/Apps (Archives)
Tucuman, Argentina

Feed Status: UP
Listen in your browser - HTML5 player(in browser, HTML5)
Click here to listen with your own player(launches your MP3 player)

SANT 282000Z 18021G32KT 4000 DU SCT040 36/12 Q1004

SANT Flight Activity (Flightaware)

Listeners: 0 out of 1227 total

Aeroclub Tucuman: 119.000
Aerolineas Argentinas SOC Salta: 131.100
Aerolineas Argentinas SOC Tucuman: 131.950
Air To Air: 123.450
Andes Lineas Aereas: 132.000
Campo Arenal: 130.950
Catamarca Tower: 118.150
Copa Airlines: 129.400
Cordoba Centro Norte: 125.100
Cordoba Centro Sur: 126.500
Emergency/Guard: 121.500
Lan Argentina Operaciones: 131.700
Lan Peru: 131.300
Salta Tower: 128.850
Santiago del Estero Tower: 118.700
Taca Peru: 126.450
Termas de Rio Hondo: 118.200
Termas de Rio Hondo: 119.850
Tucuman Ground: 121.750
Tucuman Ground: 121.750
Tucuman Tower: 118.350
Tucuman Tower: 119.500

SASA Twr/App
Salta, Argentina

Feed Status: DOWN
Offline since: 2020-10-28 23:12:06 UTC

SASA 282100Z 05012KT 9999 VCSH BKN025TCU FEW030C

Cordoba Approach (North): 125.100
Salta Approach: 124.600
Salta Tower: 126.000
Salta Tower/Ground: 128.850

SAZN Tower (Archives)
Neuquen, Argentina

Feed Status: UP
Listen in your browser - HTML5 player(in browser, HTML5)
Click here to listen with your own player(launches your MP3 player)

SAZN 282000Z 23012KT CAVOK 20/M02 Q1016

SAZN Flight Activity (Flightaware)

Listeners: 1 out of 1227 total

Neuquen Tower/Approach: 119.800

SAZS Gnd/Twr/App (Archives)
Rio Negro, Argentina

Feed Status: UP
Listen in your browser - HTML5 player(in browser, HTML5)
Click here to listen with your own player(launches your MP3 player)

SAZS 282000Z 29017KT 9999 FEW035 BKN100 09/M04 Q1021

SAZS Flight Activity (Flightaware)

Listeners: 1 out of 1227 total

Bariloche Twr/App: 119.100
Comodoro Rivadavia Control: 125.500
Ezeiza South: 125.200

SBBR Approach (Archives)
Brasilia, Brazil

Feed Status: UP
Listen in your browser - HTML5 player(in browser, HTML5)
Click here to listen with your own player(launches your MP3 player)

SBBR 282100Z 33004KT 9999 SCT014 23/20 Q1013

SBBR Flight Activity (Flightaware)

Listeners: 0 out of 1227 total

Brasilia Approach: 120.650
Brasilia Approach: 129.150
Brasilia Approach: 129.600
Brasilia Approach (Final): 119.200
Brasilia Departure: 119.500
Brasilia Departure: 119.700

SBBR Ground (Archives)
Brasilia, Brazil

Feed Status: UP
Listen in your browser - HTML5 player(in browser, HTML5)
Click here to listen with your own player(launches your MP3 player)

SBBR 282100Z 33004KT 9999 SCT014 23/20 Q1013

SBBR Flight Activity (Flightaware)

Listeners: 0 out of 1227 total

Brasilia Ground: 121.950
Brasilia Ground: 121.800

SBBR Tower (Archives)
Brasilia, Brazil

Feed Status: UP
Listen in your browser - HTML5 player(in browser, HTML5)
Click here to listen with your own player(launches your MP3 player)

SBBR 282100Z 33004KT 9999 SCT014 23/20 Q1013

SBBR Flight Activity (Flightaware)

Listeners: 3 out of 1227 total

Brasilia Tower: 118.100
Brasilia Tower: 181.750
Brasilia Tower: 118.450

SBBV Approach (Archives)
Boa Vista, Brazil

Feed Status: UP
Listen in your browser - HTML5 player(in browser, HTML5)
Click here to listen with your own player(launches your MP3 player)

SBBV 282100Z 17011KT 9999 VCSH SCT040 SCT080 32/22 Q1005

SBBV Flight Activity (Flightaware)

Listeners: 2 out of 1227 total

Boa Vista Approach: 120.100

SBBV Tower (Archives)
Boa Vista, Brazil

Feed Status: UP
Listen in your browser - HTML5 player(in browser, HTML5)
Click here to listen with your own player(launches your MP3 player)

SBBV 282100Z 17011KT 9999 VCSH SCT040 SCT080 32/22 Q1005

SBBV Flight Activity (Flightaware)

Listeners: 1 out of 1227 total

Boa Vista Tower: 118.100

SBCT Gnd/Twr/App (Archives)
Curitiba, Brazil

Feed Status: UP
Listen in your browser - HTML5 player(in browser, HTML5)
Click here to listen with your own player(launches your MP3 player)

SBCT 282100Z 28009KT CAVOK 29/02 Q1009

SBCT Flight Activity (Flightaware)

Listeners: 1 out of 1227 total

Curitiba Approach: 119.950
Curitiba Ground: 121.900
Curitiba Tower: 118.150
Curitiba Tower: 118.900

SBDN Twr/App (Archives)
Presidente Prudente/Sao Paulo, Brazil

Feed Status: UP
Listen in your browser - HTML5 player(in browser, HTML5)
Click here to listen with your own player(launches your MP3 player)

SBDN 281900Z 25007KT 9999 FEW035 33/09 Q1005

SBDN Flight Activity (Flightaware)

Listeners: 3 out of 1227 total

Air-to-Air: 123.450
Curitiba Sector 13: 133.595
Prudente Approach: 118.450
Prudente Tower: 125.450

SBEG Tower/App (Archives)
Manaus, Brazil

Feed Status: UP
Listen in your browser - HTML5 player(in browser, HTML5)
Click here to listen with your own player(launches your MP3 player)

SBEG 282100Z 28004KT 9999 SCT020 FEW030TCU 30/26 Q1004

SBEG Flight Activity (Flightaware)

Listeners: 0 out of 1227 total

Emergency/Guard: 121.500
Manaus Approach : 119.250
Manaus Approach: 120.400
Manaus Approach: 119.700
Manaus Tower: 118.300

SBFI Twr/App/Ctr/Misc (Archives)
Foz do Iguacu, Brazil

Feed Status: UP
Listen in your browser - HTML5 player(in browser, HTML5)
Click here to listen with your own player(launches your MP3 player)

SBFI 282100Z 15006KT CAVOK 32/13 Q1005

SBFI Flight Activity (Flightaware)

Listeners: 0 out of 1227 total

Asuncion Center (Paraguay): 126.900
Asuncion Center (Paraguay): 128.400
Curitiba Center: 127.200
Curitiba Center: 125.800
Emergency/Guard: 121.500
Foz do Iguacu Approach/Departure: 120.300
Foz do Iguacu Approach/Departure: 119.150
Foz do Iguacu Tower: 118.800
Guarani Approach (Paraguay): 119.300
Puerto Iguazu - Cataratas Tower (Argentina) : 120.700
Resistencia Center (Argentina): 124.300
UNICOM: 123.450

SBFZ ACC/Misc (Archives)
Fortaleza, Brazil

Feed Status: UP
Listen in your browser - HTML5 player(in browser, HTML5)
Click here to listen with your own player(launches your MP3 player)

SBFZ 282100Z 07008KT 9999 FEW020 27/23 Q1008

SBFZ Flight Activity (Flightaware)

Listeners: 0 out of 1227 total

Ait to Air: 123.450
SBAC: 131.250
SBJE: 131.050
SBJU: 131.750
SBMS: 125.800
SBPB: 126.600
SBRF ACC: 135.250
SBRF ACC: 133.500
SBRF ACC: 126.350
SBRF ACC: 125.150

SBFZ Twr/App/Center (Archives)
Fortaleza, Brazil

Feed Status: UP
Listen in your browser - HTML5 player(in browser, HTML5)
Click here to listen with your own player(launches your MP3 player)

SBFZ 282100Z 07008KT 9999 FEW020 27/23 Q1008

SBFZ Flight Activity (Flightaware)

Listeners: 4 out of 1227 total

ACC-RE (Fortaleza Sector): 125.150
ACC-RE (Fortaleza Sector): 126.350
ACC-RE (Fortaleza Sector): 135.250
Fortaleza Approach: 133.000
Fortaleza Tower: 129.000

SBGO Gnd/Twr/App (Archives)
Goiania, Brazil

Feed Status: UP
Listen in your browser - HTML5 player(in browser, HTML5)
Click here to listen with your own player(launches your MP3 player)

SBGO 282100Z 34005KT CAVOK 28/18 Q1010

SBGO Flight Activity (Flightaware)

Listeners: 2 out of 1227 total

Anapolis Approach: 119.150
Anapolis Approach: 120.550
Anapolis Approach: 133.000
Anapolis Approach: 129.450
Emergency/Guard: 121.500
Goiania Ground: 121.700
Goiania Tower: 118.700
Goiania Tower: 121.050

SBJU Tower/Center (Archives)
Juazeiro do Norte, Brazil

Feed Status: UP
Listen in your browser - HTML5 player(in browser, HTML5)
Click here to listen with your own player(launches your MP3 player)

SBJU 282000Z 13005KT CAVOK 34/16 Q1010

SBJU Flight Activity (Flightaware)

Listeners: 0 out of 1227 total

Pilot-to-Pilot: 123.450
Radio Juazeiro: 131.750
Recife Center: 135.250
Recife Center: 125.150

SBKP Approach (Archives)
Campinas, Brazil

Feed Status: UP
Listen in your browser - HTML5 player(in browser, HTML5)
Click here to listen with your own player(launches your MP3 player)

SBKP 282100Z 27011KT CAVOK 32/05 Q1007

SBKP Flight Activity (Flightaware)

Listeners: 4 out of 1227 total

Campinas Approach: 132.100
Campinas Approach: 135.750

SBKP Tower #1 (Archives)
Campinas, Brazil

Feed Status: UP
Listen in your browser - HTML5 player(in browser, HTML5)
Click here to listen with your own player(launches your MP3 player)

SBKP 282100Z 27011KT CAVOK 32/05 Q1007

SBKP Flight Activity (Flightaware)

Listeners: 8 out of 1227 total

Campinas Tower: 118.250

SBKP Tower #2 (Archives)
Campinas, Brazil

Feed Status: UP
Listen in your browser - HTML5 player(in browser, HTML5)
Click here to listen with your own player(launches your MP3 player)

SBKP 282100Z 27011KT CAVOK 32/05 Q1007

SBKP Flight Activity (Flightaware)

Listeners: 1 out of 1227 total

Campinas Tower: 118.250

SBLO Gnd/Twr/App
Londrina, Brazil

Feed Status: DOWN
Offline since: 2020-08-15 18:45:39 UTC

SBLO 282100Z 23005KT CAVOK 34/04 Q1006

Londrina Approach: 129.700
Londrina Ground: 119.550
Londrina Tower: 118.400

SBMG Twr/App (Archives)
Maringa, Brazil

Feed Status: UP
Listen in your browser - HTML5 player(in browser, HTML5)
Click here to listen with your own player(launches your MP3 player)

SBMG 282000Z 30004KT CAVOK 33/09 Q1005

SBMG Flight Activity (Flightaware)

Listeners: 2 out of 1227 total

Londrina Approach: 129.700
Maringa Tower: 118.750
UNICOM: 123.450

SBMG Twr/App/Misc (Archives)
Maringa, Brazil

Feed Status: UP
Listen in your browser - HTML5 player(in browser, HTML5)
Click here to listen with your own player(launches your MP3 player)

SBMG 282000Z 30004KT CAVOK 33/09 Q1005

SBMG Flight Activity (Flightaware)

Listeners: 1 out of 1227 total

Air to Air: 123.450
Londrina Approach: 129.700
Maringa Tower: 118.750

SBMK RDO/Center (Archives)
Montes Claros, Brazil

Feed Status: UP
Listen in your browser - HTML5 player(in browser, HTML5)
Click here to listen with your own player(launches your MP3 player)

SBMK Flight Activity (Flightaware)

Listeners: 0 out of 1227 total

Brasilia Center (Sector 15): 127.300
Montes Claros RDO: 131.700

SBMQ Tower/App/Center (Archives)
Macapa, Brazil

Feed Status: UP
Listen in your browser - HTML5 player(in browser, HTML5)
Click here to listen with your own player(launches your MP3 player)

SBMQ 282100Z 06010KT 9999 FEW025TCU 31/25 Q1006

SBMQ Flight Activity (Flightaware)

Listeners: 0 out of 1227 total

Amazonico Center: 123.950
Amazonico Center: 128.000
Macapa Approach: 119.000
Macapa Tower: 118.000

SBNF Tower (Archives)
Navegantes, Brazil

Feed Status: UP
Listen in your browser - HTML5 player(in browser, HTML5)
Click here to listen with your own player(launches your MP3 player)

SBNF 282100Z 14012KT CAVOK 24/19 Q1005

SBNF Flight Activity (Flightaware)

Listeners: 1 out of 1227 total

Navegantes Tower: 118.200

SBPA Gnd/Twr/App/Center (Archives)
Porto Alegre, Brazil

Feed Status: UP
Listen in your browser - HTML5 player(in browser, HTML5)
Click here to listen with your own player(launches your MP3 player)

SBPA 282100Z 28004KT 9999 FEW045 26/17 Q1005

SBPA Flight Activity (Flightaware)

Listeners: 0 out of 1227 total

BACO (Canoas) Ground: 121.700
BACO (Canoas) Tower: 118.500
BACO (Canoas) Tower (Mil): 122.800
Curitiba Center (Sector 1/South SBPA): 126.750
Curitiba Center (Sector 1/South SBPA): 127.400
Curitiba Center (Sector 2): 123.725
Curitiba Center (Sector 2): 135.900
Curitiba Center (Sector 3/West SBFL): 127.500
Curitiba Center (Sector 3/West SBFL): 126.100
Curitiba Center (Sector 4/South SBFL): 135.850
Curitiba Center (Sector 4/South SBFL): 128.450
Curitiba Center (Sector 5/East SBCT): 124.400
Curitiba Center (Sector 5/East SBCT): 125.400
Curitiba Center (Sector 6/East SBCT Atlantico): 128.400
Curitiba Center (Sector 6/East SBCT Atlantico): 127.050
Curitiba Center (Sector 9/North SBCT): 132.800
Curitiba Center (Sector 9/North SBCT): 126.500
Emergency/Guard: 121.500
Porto Alegre Approach Sector 1: 120.100
Porto Alegre Approach Sector 2: 120.550
Porto Alegre Approach Sector 3: 128.900
Porto Alegre Approach Sector 4: 119.000
Salgado Filho Ground: 121.900
Salgado Filho Tower: 118.100

SBPL RDO (Archives)
Petrolina, Brazil

Feed Status: UP
Listen in your browser - HTML5 player(in browser, HTML5)
Click here to listen with your own player(launches your MP3 player)

SBPL 282100Z 10005KT 9999 FEW023 SCT070 33/17 Q1008

SBPL Flight Activity (Flightaware)

Listeners: 3 out of 1227 total

Petrolina RDO: 125.700

SBRF App 129.60 (Archives)
Recife, Brazil

Feed Status: UP
Listen in your browser - HTML5 player(in browser, HTML5)
Click here to listen with your own player(launches your MP3 player)

SBRF 282100Z 07007KT 9999 SCT023 27/22 Q1010

SBRF Flight Activity (Flightaware)

Listeners: 1 out of 1227 total

Recife Approach: 129.600

SBRF Gol Ops (Archives)
Recife, Brazil

Feed Status: UP
Listen in your browser - HTML5 player(in browser, HTML5)
Click here to listen with your own player(launches your MP3 player)

SBRF 282100Z 07007KT 9999 SCT023 27/22 Q1010

SBRF Flight Activity (Flightaware)

Listeners: 0 out of 1227 total

Gol Ops: 131.225

SBRF Ground (Archives)
Recife, Brazil

Feed Status: UP
Listen in your browser - HTML5 player(in browser, HTML5)
Click here to listen with your own player(launches your MP3 player)

SBRF 282100Z 07007KT 9999 SCT023 27/22 Q1010

SBRF Flight Activity (Flightaware)

Listeners: 2 out of 1227 total

Recife Ground: 121.850

SBRF LATAM Ops (Archives)
Recife, Brazil

Feed Status: UP
Listen in your browser - HTML5 player(in browser, HTML5)
Click here to listen with your own player(launches your MP3 player)

SBRF 282100Z 07007KT 9999 SCT023 27/22 Q1010

SBRF Flight Activity (Flightaware)

Listeners: 0 out of 1227 total

LATAM Ops: 130.500

SBRF Recife ACC (Archives)
Recife, Brazil

Feed Status: UP
Listen in your browser - HTML5 player(in browser, HTML5)
Click here to listen with your own player(launches your MP3 player)

SBRF 282100Z 07007KT 9999 SCT023 27/22 Q1010

SBRF Flight Activity (Flightaware)

Listeners: 1 out of 1227 total

Recife Center: 128.700
Recife Center: 133.650
Recife Center: 134.800

SBRF Tower (Archives)
Recife, Brazil

Feed Status: UP
Listen in your browser - HTML5 player(in browser, HTML5)
Click here to listen with your own player(launches your MP3 player)

SBRF 282100Z 07007KT 9999 SCT023 27/22 Q1010

SBRF Flight Activity (Flightaware)

Listeners: 1 out of 1227 total

Recife Tower: 125.250
Recife Tower: 118.350
Recife Tower: 118.900

SBRP Tower/Center (Archives)
Ribeirao Preto, Brazil

Feed Status: UP
Listen in your browser - HTML5 player(in browser, HTML5)
Click here to listen with your own player(launches your MP3 player)

SBRP 282100Z 29006KT 260V320 CAVOK 34/10 Q1006

SBRP Flight Activity (Flightaware)

Listeners: 4 out of 1227 total

Leite Lopes Tower: 118.000
Pirassununga Center (North): 119.550

SBSL Twr/App/FIR (Archives)
Sao Luis, Brazil

Feed Status: UP
Listen in your browser - HTML5 player(in browser, HTML5)
Click here to listen with your own player(launches your MP3 player)

SBSL 282100Z 04012KT 9999 FEW020 28/23 Q1007

SBSL Flight Activity (Flightaware)

Listeners: 0 out of 1227 total

Amazonica Center: 133.700
Sao Luis Approach: 119.100
Sao Luis Tower: 118.900

SBSN Twr/App/ACC (Archives)
Santarem, Brazil

Feed Status: UP
Listen in your browser - HTML5 player(in browser, HTML5)
Click here to listen with your own player(launches your MP3 player)

SBSN 282100Z 09008KT 9999 SCT023 32/25 Q1004

SBSN Flight Activity (Flightaware)

Listeners: 0 out of 1227 total

Brasilia Center/ACC: 123.650
Brasilia Center/ACC: 125.050
Santarem Approach: 119.300
Santarem Tower: 118.100

SBSR AFIS/App/Center (Archives)
Sao Jose do Rio Preto, Brazil

Feed Status: UP
Listen in your browser - HTML5 player(in browser, HTML5)
Click here to listen with your own player(launches your MP3 player)

SBSR 281900Z 28005KT 9999 SCT045 34/11 Q1006

SBSR Flight Activity (Flightaware)

Listeners: 8 out of 1227 total

Academia Approach (North Sector): 119.750
Academia Approach (North Sector): 120.400
Brasilia Center: 135.150
Rio Preto Radio AFIS: 130.850

SBTE Twr/App (Archives)
Teresina, Brazil

Feed Status: UP
Listen in your browser - HTML5 player(in browser, HTML5)
Click here to listen with your own player(launches your MP3 player)

SBTE 282100Z 23004KT 9999 FEW040 35/18 Q1004

SBTE Flight Activity (Flightaware)

Listeners: 1 out of 1227 total

Teresina Approach: 119.600
Teresina Tower: 118.800

SBRE Recife ACC (Archives)
Paulo Afonso, Brazil

Feed Status: UP
Listen in your browser - HTML5 player(in browser, HTML5)
Click here to listen with your own player(launches your MP3 player)

SBRE Flight Activity (Flightaware)

Listeners: 0 out of 1227 total

Recife Center (ACC): 125.400
Recife Center (ACC): 125.450
Recife Center (ACC): 126.850
Recife Center (ACC): 133.650
Recife Center (ACC): 134.500
Recife Center (ACC): 134.900

SBUF AFIS/Center (Archives)
Paulo Afonso, Brazil

Feed Status: UP
Listen in your browser - HTML5 player(in browser, HTML5)
Click here to listen with your own player(launches your MP3 player)

SBUF 281900Z 11008KT 9999 FEW021 35/18 Q1007

SBUF Flight Activity (Flightaware)

Listeners: 0 out of 1227 total

Paulo Afonso Radio: 125.850
Recife Center: 133.650
Recife Center: 134.500
Recife Center: 125.450

SBQV AFIS (Archives)
Vitoria da Conquista, Brazil

Feed Status: UP
Listen in your browser - HTML5 player(in browser, HTML5)
Click here to listen with your own player(launches your MP3 player)

SBQV Flight Activity (Flightaware)

Listeners: 0 out of 1227 total

Conquista AFIS: 130.850
Despacho Azul: 131.875
Despacho Passaredo: 132.000

SBVT Gnd/Twr/App (Archives)
Vitoria, Brazil

Feed Status: UP
Listen in your browser - HTML5 player(in browser, HTML5)
Click here to listen with your own player(launches your MP3 player)

SBVT 282000Z 04015KT 9999 FEW040TCU SCT045 28/24 Q1005 RETS

SBVT Flight Activity (Flightaware)

Listeners: 0 out of 1227 total

SBVT Approach: 119.850
SBVT Ground: 121.950
SBVT Tower: 118.100

SCEL Gnd/Twr/Radar (Archives)
Santiago, Chile

Feed Status: UP
Listen in your browser - HTML5 player(in browser, HTML5)
Click here to listen with your own player(launches your MP3 player)

SCEL 282100Z 16009KT 130V190 CAVOK 23/M02 Q1016 NOSIG

SCEL Flight Activity (Flightaware)

Listeners: 5 out of 1227 total

Santiago Authorizations: 121.700
Santiago Control (Lat 3323S North): 128.100
Santiago Control (Lat 3323S South): 126.300
Santiago Ground (Primary): 122.200
Santiago Ground (Secondary): 122.500
Santiago Radar: 125.400
Santiago Radar: 135.400
Santiago Radar (Arrival, Primary): 129.700
Santiago Radar (Arrival, Secondary): 119.700
Santiago Radar (Arrival, Secondary): 123.800
Santiago Radar (Departure, Primary): 121.100
Santiago Radar (Departure, Secondary): 123.800
Santiago Radar (Information, Primary): 122.400
Santiago Radar (Information, Secondary): 120.800
Santiago Radar (Information, Secondary): 123.800
Santiago Tower (Primary): 118.100
Santiago Tower (Secondary): 118.350
SCTB Tobalaba Tower: 118.700

SEGU App/Dep/Info (Archives)
Guayaquil, Ecuador

Feed Status: UP
Listen in your browser - HTML5 player(in browser, HTML5)
Click here to listen with your own player(launches your MP3 player)

SEGU 282100Z 16005KT 9999 FEW030 BKN100 29/20 Q1007 NOSIG RMK A2976

SEGU Flight Activity (Flightaware)

Listeners: 0 out of 1227 total

Guayaquil Approach: 120.700
Guayaquil Approach (Secondary): 119.300
Guayaquil Info: 126.900

SEGU Gnd/Twr (Archives)
Guayaquil, Ecuador

Feed Status: UP
Listen in your browser - HTML5 player(in browser, HTML5)
Click here to listen with your own player(launches your MP3 player)

SEGU 282100Z 16005KT 9999 FEW030 BKN100 29/20 Q1007 NOSIG RMK A2976

SEGU Flight Activity (Flightaware)

Listeners: 0 out of 1227 total

Guayaquil Ground: 121.900
Guayaquil Ground (Secondary): 121.700
Guayaquil Tower: 118.300
Guayaquil Tower (Secondary): 118.900

SEGU Gnd/Twr/App (Archives)
Guayaquil, Ecuador

Feed Status: UP
Listen in your browser - HTML5 player(in browser, HTML5)
Click here to listen with your own player(launches your MP3 player)

SEGU 282100Z 16005KT 9999 FEW030 BKN100 29/20 Q1007 NOSIG RMK A2976

SEGU Flight Activity (Flightaware)

Listeners: 2 out of 1227 total

Guayaquil Approach: 120.700
Guayaquil Ground: 121.900
Guayaquil Tower: 118.300

SEGU Guayaquil Center (Archives)
Guayaquil, Ecuador

Feed Status: UP
Listen in your browser - HTML5 player(in browser, HTML5)
Click here to listen with your own player(launches your MP3 player)

SEGU 282100Z 16005KT 9999 FEW030 BKN100 29/20 Q1007 NOSIG RMK A2976

SEGU Flight Activity (Flightaware)

Listeners: 0 out of 1227 total

Guayaquil Center: 127.950
Guayaquil Center: 128.300
Guayaquil Center (Secondary): 128.000
Guayaquil Center (Secondary): 123.900

SEQM ATIS (Archives)
Quito, Ecuador

Feed Status: UP
Listen in your browser - HTML5 player(in browser, HTML5)
Click here to listen with your own player(launches your MP3 player)

SEQM 282100Z 01014KT 9999 VCSH SCT026 BKN300 19/12 Q1022 NOSIG RMK A3018

SEQM Flight Activity (Flightaware)

Listeners: 0 out of 1227 total

Quito ATIS: 118.700

SEQM Gnd/Twr/App (Archives)
Quito, Ecuador

Feed Status: UP
Listen in your browser - HTML5 player(in browser, HTML5)
Click here to listen with your own player(launches your MP3 player)

SEQM 282100Z 01014KT 9999 VCSH SCT026 BKN300 19/12 Q1022 NOSIG RMK A3018

SEQM Flight Activity (Flightaware)

Listeners: 1 out of 1227 total

Quito Approach/Departure: 119.700
Quito Approach/Departure: 121.200
Quito Ground: 121.900
Quito Tower: 118.100
Quito Tower (Secondary): 118.350

SEQM Tower (Archives)
Quito, Ecuador

Feed Status: UP
Listen in your browser - HTML5 player(in browser, HTML5)
Click here to listen with your own player(launches your MP3 player)

SEQM 282100Z 01014KT 9999 VCSH SCT026 BKN300 19/12 Q1022 NOSIG RMK A3018

SEQM Flight Activity (Flightaware)

Listeners: 0 out of 1227 total

Quito Tower: 118.100
Quito Tower (Secondary): 118.350

SJOY CTAF (Archives)
Palmeira, Brazil

Feed Status: UP
Listen in your browser - HTML5 player(in browser, HTML5)
Click here to listen with your own player(launches your MP3 player)

METAR NOT AVAILABLE

SJOY Flight Activity (Flightaware)

Listeners: 0 out of 1227 total


SKBO Del/Gnd/Twr/App
Bogota, Colombia

Feed Status: DOWN
Offline since: 2020-09-01 16:38:05 UTC

SKBO 282100Z 24005KT 9999 VCSH SCT015CB BKN070 15/12 A3022 RERA NOSIG RMK CB VCSH/NE

Bogota Approach: 119.500
Bogota Clearance Delivery: 121.600
Bogota Departure (North): 121.300
Bogota Departure (South): 119.650
Bogota Ground (North): 121.800
Bogota Ground (South): 122.750
Bogota Information: 126.900
Bogota Tower (North): 118.100
Bogota Tower (South): 118.250
Guaymaral Ground: 121.700
Guaymaral Tower: 118.800

SKBQ Approach
Barranquilla, Colombia

Feed Status: DOWN
Offline since: 2020-09-27 18:44:40 UTC

SKBQ 282100Z 35006KT 310V030 9999 SCT015 30/25 A2970 NOSIG

Barranquilla Approach/Departure: 119.100

HF CWP/SEA (Archives)
Pyeongtaek, Korea, Republic of

Feed Status: UP
Listen in your browser - HTML5 player(in browser, HTML5)
Click here to listen with your own player(launches your MP3 player)


Listeners: 1 out of 1227 total

CWP 1 (Tokyo): 11.384
CWP 1/2 (Tokyo): 13.300
CWP-1/2 (San Francisco): 17.904
CWP-1/2 (Tokyo/Manila): 8.903
CWP-1/2 (Tokyo/San Francisco): 21.985
SEA-2 (Manila): 8.942

SPJC Approach (Archives)
Lima, Peru

Feed Status: UP
Listen in your browser - HTML5 player(in browser, HTML5)
Click here to listen with your own player(launches your MP3 player)

SPJC 282100Z 18013KT 9999 FEW011 SCT024 19/14 Q1012 NOSIG RMK PP000

SPJC Flight Activity (Flightaware)

Listeners: 1 out of 1227 total

Lima Approach: 119.700

SPJC Ground (Archives)
Lima, Peru

Feed Status: UP
Listen in your browser - HTML5 player(in browser, HTML5)
Click here to listen with your own player(launches your MP3 player)

SPJC 282100Z 18013KT 9999 FEW011 SCT024 19/14 Q1012 NOSIG RMK PP000

SPJC Flight Activity (Flightaware)

Listeners: 1 out of 1227 total

Lima Ground: 121.900

SPJC Tower (Archives)
Lima, Peru

Feed Status: UP
Listen in your browser - HTML5 player(in browser, HTML5)
Click here to listen with your own player(launches your MP3 player)

SPJC 282100Z 18013KT 9999 FEW011 SCT024 19/14 Q1012 NOSIG RMK PP000

SPJC Flight Activity (Flightaware)

Listeners: 4 out of 1227 total

Lima Tower: 118.100

SPST Tower (Archives)
Tarapoto, Peru

Feed Status: UP
Listen in your browser - HTML5 player(in browser, HTML5)
Click here to listen with your own player(launches your MP3 player)

SPST 282100Z 35007KT 9999 SCT015 BKN080 33/22 Q1002 RMK BIRD HAZARD RWY 17/35 PP000

SPST Flight Activity (Flightaware)

Listeners: 2 out of 1227 total

Tarapoto Tower: 118.400

SSBL Air to Air (Archives)
Blumenau, Brazil

Feed Status: UP
Listen in your browser - HTML5 player(in browser, HTML5)
Click here to listen with your own player(launches your MP3 player)

SSBL Flight Activity (Flightaware)

Listeners: 1 out of 1227 total

Air to Air: 123.450

SULS Tower (Archives)
Punta del Este, Uruguay

Feed Status: UP
Listen in your browser - HTML5 player(in browser, HTML5)
Click here to listen with your own player(launches your MP3 player)

SULS 282000Z 21013KT 9999 FEW005 OVC070 16/11 Q1009

SULS Flight Activity (Flightaware)

Listeners: 2 out of 1227 total

Air to Air: 123.450
SULS A/G: 122.100
SULS Tower: 118.300

SUMU Twr/App (Archives)
Montevideo, Uruguay

Feed Status: UP
Listen in your browser - HTML5 player(in browser, HTML5)
Click here to listen with your own player(launches your MP3 player)

SUMU 282100Z 22012KT 9000 RA SCT017 OVC080 17/14 Q1010 TEMPO TS

SUMU Flight Activity (Flightaware)

Listeners: 0 out of 1227 total

SUMU Approach: 119.200
SUMU Tower: 118.100

SUMU Twr/App/Radar (Archives)
Montevideo, Uruguay

Feed Status: UP
Listen in your browser - HTML5 player(in browser, HTML5)
Click here to listen with your own player(launches your MP3 player)

SUMU 282100Z 22012KT 9000 RA SCT017 OVC080 17/14 Q1010 TEMPO TS

SUMU Flight Activity (Flightaware)

Listeners: 2 out of 1227 total

SUMU Approach: 120.200
SUMU Approach: 119.200
SUMU Info: 121.800
SUMU Informacion: 121.800
SUMU Radar Control: 128.500
SUMU Radar Control: 126.300
SUMU Radar Control: 128.000
SUMU Tower: 118.100

SUPE CTAF (Archives)
Punta del Este, Uruguay

Feed Status: UP
Listen in your browser - HTML5 player(in browser, HTML5)
Click here to listen with your own player(launches your MP3 player)

SULS 282000Z 21013KT 9999 FEW005 OVC070 16/11 Q1009

SULS Flight Activity (Flightaware)

Listeners: 0 out of 1227 total

SUPE CTAF: 118.700

SUPU/SUPC Misc (Archives)
Paysandu, Uruguay

Feed Status: UP
Listen in your browser - HTML5 player(in browser, HTML5)
Click here to listen with your own player(launches your MP3 player)

SUPU 040900Z 10005KT 9999 FEW020TCU BKN070 FEW200 23/23 Q1010

SUPU Flight Activity (Flightaware)

Listeners: 0 out of 1227 total

Chalkling Tower: 118.700
Paysandu Tower: 118.200

SVBC Gnd/Twr/App
Barcelona, Venezuela

Feed Status: DOWN
Offline since: 2020-08-31 23:31:22 UTC

SVBC 232200Z 2400/2500 07005KT 9999F SVSA 232200Z 2400/2500 14003KT 9999 SCT020 TX33/2419Z TN21/2408Z TEMPO 2400/2404 17002KT 8000 +TSDZ OVC020

Barcelona Approach: 121.100
Barcelona Ground: 121.900
Barcelona Tower: 118.700
Emergency/Guard: 121.500
SAR: 123.100

SVPR Twr/App/FIR (Archives)
Ciudad Guayana, Venezuela

Feed Status: UP
Listen in your browser - HTML5 player(in browser, HTML5)
Click here to listen with your own player(launches your MP3 player)

SVPR Flight Activity (Flightaware)

Listeners: 0 out of 1227 total

Emergency/Guard: 121.500
FIR 6: 126.000
Guayana Approach (Primary): 119.500
Guayana Approach (Secondary): 120.300
Guayana Tower (Primary): 118.000
Guayana Tower (Secondary): 123.500
SMC: 121.900

SVVA Gnd/Twr/App
Valencia, Venezuela

Feed Status: DOWN
Offline since: 2020-08-24 05:40:39 UTC

SVVA 271200Z /////KT 9999 FEW013 22/18 Q1014

Libertador Approach: 119.300
Valencia Ground: 121.900
Valencia Tower: 121.200

TBPB Gnd/Twr/Radar/Center (Archives)
Bridgetown, Barbados

Feed Status: UP
Listen in your browser - HTML5 player(in browser, HTML5)
Click here to listen with your own player(launches your MP3 player)

TBPB 282000Z 08018KT 9000 -RA FEW008CB BKN016 25/23 Q1008 TEMPO 5000 SHRA

TBPB Flight Activity (Flightaware)

Listeners: 0 out of 1227 total

Adams Approach/Departure: 129.350
Adams Approach/Departure: 128.850
Adams Ground: 121.900
Adams Tower: 118.700
Piarco Center: 123.700

TNCA Twr/Apron/FIR (Archives)
Oranjestad, Aruba

Feed Status: UP
Listen in your browser - HTML5 player(in browser, HTML5)
Click here to listen with your own player(launches your MP3 player)

TNCA 282000Z 07012KT 9999 SCT023 30/24 Q1007 NOSIG

TNCA Flight Activity (Flightaware)

Listeners: 0 out of 1227 total

Beatrix Ground (Apron): 121.600
Beatrix Tower: 120.900
Beatrix Tower (secondary): 118.000
Curacao Control: 127.100
Emergency/Guard: 121.500
Search/Rescue: 123.100

TNCB ATIS
Kralendijk, Bonaire

Feed Status: DOWN
Offline since: 2020-10-24 11:35:39 UTC

TNCB 281955Z 08013KT 9999 SCT021 SCT025 BKN028 31/24 Q1007

Bonaire ATIS: 132.300

TNCB Tower
Kralendijk, Bonaire

Feed Status: DOWN
Offline since: 2020-10-24 11:35:39 UTC

TNCB 281955Z 08013KT 9999 SCT021 SCT025 BKN028 31/24 Q1007

Bonaire Tower: 118.700

TNCC Curacao Control (Archives)
Willemstad, Curacao

Feed Status: UP
Listen in your browser - HTML5 player(in browser, HTML5)
Click here to listen with your own player(launches your MP3 player)

TNCC 282000Z 10008KT 9999 FEW018 30/23 Q1007 TEMPO 08020KT 1500 +TSRA FEW013CB BKN015

TNCC Flight Activity (Flightaware)

Listeners: 0 out of 1227 total

Curacao Control: 124.100
Curacao Control: 127.100

TNCC Tower/Radar (Archives)
Willemstad, Curacao

Feed Status: UP
Listen in your browser - HTML5 player(in browser, HTML5)
Click here to listen with your own player(launches your MP3 player)

TNCC 282000Z 10008KT 9999 FEW018 30/23 Q1007 TEMPO 08020KT 1500 +TSRA FEW013CB BKN015

TNCC Flight Activity (Flightaware)

Listeners: 0 out of 1227 total

Hato Radar: 119.600
Hato Tower: 118.300

TNCC Twr/Radar/Control (Archives)
Willemstad, Curacao

Feed Status: UP
Listen in your browser - HTML5 player(in browser, HTML5)
Click here to listen with your own player(launches your MP3 player)

TNCC 282000Z 10008KT 9999 FEW018 30/23 Q1007 TEMPO 08020KT 1500 +TSRA FEW013CB BKN015

TNCC Flight Activity (Flightaware)

Listeners: 1 out of 1227 total

Curacao Control: 127.100
Hato Radar: 119.600
Hato Tower: 118.300

TNCE Info (Archives)
Oranjestad, Sint Eustatius

Feed Status: UP
Listen in your browser - HTML5 player(in browser, HTML5)
Click here to listen with your own player(launches your MP3 player)

TNCE 271355Z AUTO /////KT //// // ///////// ///// Q//// RE//

TNCE Flight Activity (Flightaware)

Listeners: 0 out of 1227 total

Statia Info: 118.100

TTCP Gnd/Twr/App (Archives)
Scarborough, Trinidad and Tobago

Feed Status: UP
Listen in your browser - HTML5 player(in browser, HTML5)
Click here to listen with your own player(launches your MP3 player)

TTCP 282000Z 04006KT 9999 FEW014CB 30/27 Q1006 RMK CB TO E NW SW

TTCP Flight Activity (Flightaware)

Listeners: 0 out of 1227 total

Piarco Approach: 119.000
Robinson Ground: 121.700
Robinson Tower: 118.400

TTPP Apron/Gnd/Twr (Archives)
Port of Spain, Trinidad and Tobago

Feed Status: UP
Listen in your browser - HTML5 player(in browser, HTML5)
Click here to listen with your own player(launches your MP3 player)

TTPP 282000Z 12003KT 9999 -SHRA FEW012CB SCT018 29/26 Q1006 NOSIG RMK CB N

TTPP Flight Activity (Flightaware)

Listeners: 1 out of 1227 total

Piarco Apron: 121.750
Piarco Ground: 121.900
Piarco Tower: 118.100

TTPP Piarco Approach (Archives)
Port of Spain, Trinidad and Tobago

Feed Status: UP
Listen in your browser - HTML5 player(in browser, HTML5)
Click here to listen with your own player(launches your MP3 player)

TTPP 282000Z 12003KT 9999 -SHRA FEW012CB SCT018 29/26 Q1006 NOSIG RMK CB N

TTPP Flight Activity (Flightaware)

Listeners: 0 out of 1227 total

Piarco Approach: 119.550
Piarco Approach: 119.000
Piarco Approach (backup): 124.000

TTPP Piarco Center (Archives)
Port of Spain, Trinidad and Tobago

Feed Status: UP
Listen in your browser - HTML5 player(in browser, HTML5)
Click here to listen with your own player(launches your MP3 player)

TTPP 282000Z 12003KT 9999 -SHRA FEW012CB SCT018 29/26 Q1006 NOSIG RMK CB N

TTPP Flight Activity (Flightaware)

Listeners: 0 out of 1227 total

Piarco Center: 123.700
Piarco Center (Oceanic): 126.500
Piarco Center (South Sector): 125.400
Piarco Center Oceanic (Backup): 133.100

TXKF Tower/Ground (Archives)
Hamilton, Bermuda

Feed Status: UP
Listen in your browser - HTML5 player(in browser, HTML5)
Click here to listen with your own player(launches your MP3 player)

TXKF 282055Z 26004KT 9999 FEW020 FEW300 25/22 Q1018

TXKF Flight Activity (Flightaware)

Listeners: 0 out of 1227 total

Bermuda CTAF: 122.800
Bermuda Ground/Clearance: 124.500
Bermuda Tower: 118.100

ZNY Bermuda Sector (Archives)
Hamilton, Bermuda

Feed Status: UP
Listen in your browser - HTML5 player(in browser, HTML5)
Click here to listen with your own player(launches your MP3 player)

TXKF 282055Z 26004KT 9999 FEW020 FEW300 25/22 Q1018

TXKF Flight Activity (Flightaware)

Listeners: 1 out of 1227 total

New York Approach (Bermuda Sector) : 119.100
New York Center (Bermuda Sector): 128.500

UAAA Approach (Archives)
Almaty, Kazakhstan

Feed Status: UP
Listen in your browser - HTML5 player(in browser, HTML5)
Click here to listen with your own player(launches your MP3 player)

UAAA 282030Z 25002MPS 9999 BKN050CB OVC100 02/M07 Q1033 R88/CLRD65 NOSIG

UAAA Flight Activity (Flightaware)

Listeners: 0 out of 1227 total

Almaty Approach: 124.800

UAAA Tower (Archives)
Almaty, Kazakhstan

Feed Status: UP
Listen in your browser - HTML5 player(in browser, HTML5)
Click here to listen with your own player(launches your MP3 player)

UAAA 282030Z 25002MPS 9999 BKN050CB OVC100 02/M07 Q1033 R88/CLRD65 NOSIG

UAAA Flight Activity (Flightaware)

Listeners: 0 out of 1227 total

Almaty Tower: 119.400

UAAA Tower/Approach (Archives)
Almaty, Kazakhstan

Feed Status: UP
Listen in your browser - HTML5 player(in browser, HTML5)
Click here to listen with your own player(launches your MP3 player)

UAAA 282030Z 25002MPS 9999 BKN050CB OVC100 02/M07 Q1033 R88/CLRD65 NOSIG

UAAA Flight Activity (Flightaware)

Listeners: 1 out of 1227 total

Almaty Approach: 124.800
Almaty Tower: 119.400

UKKK Gnd/Twr/ACC
Kyiv, Ukraine

Feed Status: DOWN
Offline since: 2020-02-16 19:49:23 UTC

UKKK 282030Z 11001MPS 8000 NSC 06/05 Q1019 R08/CLRD70 NOSIG

Emergency/Guard: 121.500
Kyiv Radar ACC: 122.775
Kyiv Radar ACC: 124.675
Kyiv Radar ACC: 127.725
Kyiv Radar ACC: 128.175
Kyiv Radar ACC: 125.300
Kyiv Zhuliany Ground: 119.000
Kyiv Zhuliany Tower: 120.700

UNNT Gnd/Twr/App/Radar/Misc (Archives)
Novosibirsk, Russia

Feed Status: UP
Listen in your browser - HTML5 player(in browser, HTML5)
Click here to listen with your own player(launches your MP3 player)

UNNT 282030Z 26008MPS 9999 -SN OVC021 M04/M08 Q1020 R25/410150 R34/950336 NOSIG RMK QFE755 QFE755/1006

UNNT Flight Activity (Flightaware)

Listeners: 6 out of 1227 total

ACC_Novosibirsk-Control [5th military channel]: 128.500
ACC_Novosibirsk-Control [Southeast]: 126.100
ACC_Novosibirsk-Control [West]: 127.000
GPA_Kristallik [Severniy airfield]: 123.425
GPA_Sernisiy [Chkalovskiy airfield]: 124.750
GPA_Tomsk Information 1: 134.500
MIL_3 [3rd military channel]: 130.750
MIL_Larek [Shilovo facility]: 123.750
MIL_Maneken [Chkalovskiy airfield]: 123.550
MIL_Novosibirsk-1 [1st military channel]: 124.000
MIL_Noyabr' 31: 124.900
MIL_Trimaran: 124.500
SP_Air-to-Air: 123.450
SP_Air-to-Air 2: 123.400
SP_Common backup frequency: 129.000
SP_Emergency: 121.500
SP_Emergency 2: 123.100
SP_Flyoff: 124.375
SURF_Boarding: 163.425
SURF_Duty chart: 163.800
SURF_O&D Service: 163.325
SURF_Search & Rescue: 164.000
SURF_Security: 163.750
SURF_Tower surf: 163.650
SURF_Vehicles: 163.850
UNNT_Backup frequency: 127.100
UNNT_Novosibirsk-Approach: 127.500
UNNT_Novosibirsk-Ground: 121.700
UNNT_Novosibirsk-Radar: 122.000
UNNT_Novosibirsk-Tower: 118.500
UNNT_Novosibirsk-Transit: 131.600
UNNT_S7 FOCC: 131.925

UNOO Gnd/Tower/App (Archives)
Omsk, Russia

Feed Status: UP
Listen in your browser - HTML5 player(in browser, HTML5)
Click here to listen with your own player(launches your MP3 player)

UNOO 282030Z 27002MPS 9999 SCT033 M04/M04 Q1025 R25/820360 NOSIG RMK QFE761

UNOO Flight Activity (Flightaware)

Listeners: 2 out of 1227 total

Aerodrom Kalachevo: 123.300
Aerodrom Marianovka: 123.000
Emergency/Guard: 121.500
Novosibirsk Control (Sector 7): 132.500
Novosibirsk Control (Sector 8): 132.900
Omsk Approach (FL060-FL265): 131.200
Omsk Apron: 118.800
Omsk Start/Radar: 119.000
Omsk Taxiing: 121.700
Omsk Transit: 131.700
UNOS/OMSK-Severny: 124.000

UNTT Gnd/Info/Radar/Control (Archives)
Tomsk, Russia

Feed Status: UP
Listen in your browser - HTML5 player(in browser, HTML5)
Click here to listen with your own player(launches your MP3 player)

UNTT Flight Activity (Flightaware)

Listeners: 1 out of 1227 total

Common Backup Frequency: 129.000
Emergency/Guard: 121.500
Novosibirsk Control (Sector 2): 126.100
Novosibirsk Control (Sector 3): 129.300
Novosibirsk Control (Sector 5): 132.300
Tomsk Ground: 118.800
Tomsk Information 1: 134.500
Tomsk Krug (Radar): 127.300
Tomsk Transit: 131.875
Troynik (Golovino): 122.400

URKK Gnd/Twr/App (Archives)
Krasnodar, Russia

Feed Status: UP
Listen in your browser - HTML5 player(in browser, HTML5)
Click here to listen with your own player(launches your MP3 player)

URKK 282030Z 06003MPS CAVOK 13/09 Q1015 R23L/CLRD70 NOSIG RMK QFE758

URKK Flight Activity (Flightaware)

Listeners: 3 out of 1227 total

Krasnodar Approach: 129.600
Krasnodar Ground: 119.000
Krasnodar Radar: 121.300
Krasnodar Tower: 118.200

URMT Twr/App/Control (Archives)
Stavropol, Russia

Feed Status: UP
Listen in your browser - HTML5 player(in browser, HTML5)
Click here to listen with your own player(launches your MP3 player)

URMT 282030Z 14005MPS CAVOK 10/08 Q1018 R07/010070 NOSIG RMK QFE723

URMT Flight Activity (Flightaware)

Listeners: 0 out of 1227 total

Stavropol Approach: 120.300
Stavropol Control: 118.250
Stavropol Tower: 120.900

URSS Gnd/Twr/App (Archives)
Sochi, Russia

Feed Status: UP
Listen in your browser - HTML5 player(in browser, HTML5)
Click here to listen with your own player(launches your MP3 player)

URSS 282030Z 09001MPS 9999 NSC 18/10 Q1013 R06/010070 R02/010070 NOSIG RMK R02/05003MPS QFE759

URSS Flight Activity (Flightaware)

Listeners: 0 out of 1227 total

Sochi Approach: 118.300
Sochi Approach: 119.700
Sochi District (Small Aircraft): 118.500
Sochi Start: 121.200
Sochi Taxi: 119.000
Sochi Tower: 124.600

USDD Gnd/Twr/App/Control (Archives)
Salekhard, Russia

Feed Status: UP
Listen in your browser - HTML5 player(in browser, HTML5)
Click here to listen with your own player(launches your MP3 player)

USDD 150530Z 05007MPS 9999 -SHRA BKN009CB 09/07 Q1002 R04/290060 NOSIG RMK QFE746/0994

USDD Flight Activity (Flightaware)

Listeners: 0 out of 1227 total

Salekhard Control: 132.300
Salekhard Ground: 118.800
Salekhard Info: 125.200
Salekhard Krug: 120.800
Salekhard Tower: 118.600
Salekhard Transit: 131.700

USTR Gnd/Twr/App (Archives)
Tyumen, Russia

Feed Status: UP
Listen in your browser - HTML5 player(in browser, HTML5)
Click here to listen with your own player(launches your MP3 player)

USTR 282030Z 24005MPS CAVOK 01/M02 Q1022 R21/390045 R30/350045 NOSIG RMK QFE757/1010

USTR Flight Activity (Flightaware)

Listeners: 0 out of 1227 total

Tyumen Approach: 126.100
Tyumen Control: 132.600
Tyumen Control: 133.600
Tyumen Info (Regional): 133.400
Tyumen Start: 118.200
Tyumen Transit: 131.800

USUU Twr/App/Control
Kurgan, Russia

Feed Status: DOWN
Offline since: 2020-07-09 06:01:39 UTC

Aerodromnaya 50: 164.100
Baggage Handling: 164.025
Kurgan Approach: 120.300
Kurgan Tower: 134.300
Kurgan/USUU Transit: 131.700
Kurtamysh: 122.450
Ural Control Sector 4: 119.700
USUL Tower: 129.600

UUDD Twr/App
Moscow, Russia

Feed Status: DOWN
Offline since: 2020-07-26 02:31:06 UTC

UUDD 282030Z 19002MPS CAVOK 04/02 Q1023 R14R/CLRD60 NOSIG

Domodedovo Tower: 118.600
Moscow Approach: 125.300
Moscow Approach: 127.700

UUEE Twr/App/Radar (Archives)
Moscow, Russia

Feed Status: UP
Listen in your browser - HTML5 player(in browser, HTML5)
Click here to listen with your own player(launches your MP3 player)

UUEE 282030Z 20004MPS 9999 BKN017 07/03 Q1022 R24L/CLRD62 R24R/CLRD62 NOSIG

UUEE Flight Activity (Flightaware)

Listeners: 2 out of 1227 total

Sheremetyevo Radar: 118.100
Sheremetyevo Radar/Departure: 126.600
Sheremetyevo Tower: 131.500
Sheremetyevo Tower (Rwy 24R/06L): 118.700

VCBI Director
Colombo, Sri Lanka

Feed Status: DOWN
Offline since: 2020-10-28 16:50:39 UTC

VCBI 281810Z VRB02KT 7000 SCT018 27/25 Q1011 NOSIG

Colombo Director: 132.400

VGHS Tower
Dhaka, Bangladesh

Feed Status: DOWN
Offline since: 2020-10-25 12:11:06 UTC

VGHS 282030Z 30004KT 3500 HZ NSC 27/21 Q1010 NOSIG

Bangladesh Tower: 118.300

VHHH Approach 119.1 #1
Hong Kong, Hong Kong

Feed Status: DOWN
Offline since: 2020-10-25 01:32:39 UTC

VHHH 282030Z 09014KT 9999 FEW030 SCT045 24/19 Q1016 NOSIG

Hong Kong Approach: 119.100

VHHH ATIS
Hong Kong, Hong Kong

Feed Status: DOWN
Offline since: 2020-04-09 19:09:06 UTC

VHHH 282030Z 09014KT 9999 FEW030 SCT045 24/19 Q1016 NOSIG

Hong Kong Arrival ATIS: 128.200

VHHH Clearance Delivery
Hong Kong, Hong Kong

Feed Status: DOWN
Offline since: 2020-04-09 19:09:06 UTC

VHHH 282030Z 09014KT 9999 FEW030 SCT045 24/19 Q1016 NOSIG

Hong Kong Clearance Delivery: 129.900

VHHH Departure (Primary)
Hong Kong, Hong Kong

Feed Status: DOWN
Offline since: 2020-10-25 01:32:39 UTC

VHHH 282030Z 09014KT 9999 FEW030 SCT045 24/19 Q1016 NOSIG

Hong Kong Departure: 123.800

VHHH Director #1
Hong Kong, Hong Kong

Feed Status: DOWN
Offline since: 2020-10-25 01:32:39 UTC

VHHH 282030Z 09014KT 9999 FEW030 SCT045 24/19 Q1016 NOSIG

Hong Kong Director: 119.500

VHHH Ground
Hong Kong, Hong Kong

Feed Status: DOWN
Offline since: 2020-04-09 19:08:40 UTC

VHHH 282030Z 09014KT 9999 FEW030 SCT045 24/19 Q1016 NOSIG

Hong Kong Ground (North): 121.600
Hong Kong Ground (South): 122.550

VHHH Ground (North)
Hong Kong, Hong Kong

Feed Status: DOWN
Offline since: 2020-04-09 19:09:06 UTC

VHHH 282030Z 09014KT 9999 FEW030 SCT045 24/19 Q1016 NOSIG

Hong Kong Ground (North): 121.600

VHHH Ground (South)
Hong Kong, Hong Kong

Feed Status: DOWN
Offline since: 2020-04-09 19:09:06 UTC

VHHH 282030Z 09014KT 9999 FEW030 SCT045 24/19 Q1016 NOSIG

Hong Kong Ground (South): 122.550

VMMC Tower (Archives)
Taipa, China

Feed Status: UP
Listen in your browser - HTML5 player(in browser, HTML5)
Click here to listen with your own player(launches your MP3 player)

VMMC 282030Z 05011KT 9999 FEW020 SCT040 24/21 Q1015 NOSIG

VMMC Flight Activity (Flightaware)

Listeners: 4 out of 1227 total

Macau Tower: 118.000

VTBS Approach (East) (Archives)
Bangkok, Thailand

Feed Status: UP
Listen in your browser - HTML5 player(in browser, HTML5)
Click here to listen with your own player(launches your MP3 player)

VTBS 282030Z 26003KT 9000 FEW020 26/23 Q1006 NOSIG

VTBS Flight Activity (Flightaware)

Listeners: 0 out of 1227 total

Bangkok Approach (East): 122.350

VTBS Approach (North) (Archives)
Bangkok, Thailand

Feed Status: UP
Listen in your browser - HTML5 player(in browser, HTML5)
Click here to listen with your own player(launches your MP3 player)

VTBS 282030Z 26003KT 9000 FEW020 26/23 Q1006 NOSIG

VTBS Flight Activity (Flightaware)

Listeners: 0 out of 1227 total

Bangkok Approach (North): 121.700

VTBS Approach 119.1 (Archives)
Bangkok, Thailand

Feed Status: UP
Listen in your browser - HTML5 player(in browser, HTML5)
Click here to listen with your own player(launches your MP3 player)

VTBS 282030Z 26003KT 9000 FEW020 26/23 Q1006 NOSIG

VTBS Flight Activity (Flightaware)

Listeners: 0 out of 1227 total

Bangkok Approach: 119.100

VTBS Approach 119.4 (Archives)
Bangkok, Thailand

Feed Status: UP
Listen in your browser - HTML5 player(in browser, HTML5)
Click here to listen with your own player(launches your MP3 player)

VTBS 282030Z 26003KT 9000 FEW020 26/23 Q1006 NOSIG

VTBS Flight Activity (Flightaware)

Listeners: 0 out of 1227 total

Bangkok Approach: 119.400

VTBS Approach 120.3 (Archives)
Bangkok, Thailand

Feed Status: UP
Listen in your browser - HTML5 player(in browser, HTML5)
Click here to listen with your own player(launches your MP3 player)

VTBS 282030Z 26003KT 9000 FEW020 26/23 Q1006 NOSIG

VTBS Flight Activity (Flightaware)

Listeners: 0 out of 1227 total

Bangkok Approach: 120.300

VTBS Approach/Arrival (Archives)
Bangkok, Thailand

Feed Status: UP
Listen in your browser - HTML5 player(in browser, HTML5)
Click here to listen with your own player(launches your MP3 player)

VTBS 282030Z 26003KT 9000 FEW020 26/23 Q1006 NOSIG

VTBS Flight Activity (Flightaware)

Listeners: 0 out of 1227 total

Bangkok Approach: 124.350
Bangkok Approach: 125.200
Bangkok Approach: 124.700
Bangkok Approach: 126.300
Bangkok Approach: 133.400
Bangkok Arrival (VTBD): 125.500

VTBS Arrival 121.1 (Archives)
Bangkok, Thailand

Feed Status: UP
Listen in your browser - HTML5 player(in browser, HTML5)
Click here to listen with your own player(launches your MP3 player)

VTBS 282030Z 26003KT 9000 FEW020 26/23 Q1006 NOSIG

VTBS Flight Activity (Flightaware)

Listeners: 0 out of 1227 total

Bangkok Arrival: 121.100

VTBS ATIS (Archives)
Bangkok, Thailand

Feed Status: UP
Listen in your browser - HTML5 player(in browser, HTML5)
Click here to listen with your own player(launches your MP3 player)

VTBS 282030Z 26003KT 9000 FEW020 26/23 Q1006 NOSIG

VTBS Flight Activity (Flightaware)

Listeners: 0 out of 1227 total

Bangkok D-ATIS: 127.650

VTBS Departure (Archives)
Bangkok, Thailand

Feed Status: UP
Listen in your browser - HTML5 player(in browser, HTML5)
Click here to listen with your own player(launches your MP3 player)

VTBS 282030Z 26003KT 9000 FEW020 26/23 Q1006 NOSIG

VTBS Flight Activity (Flightaware)

Listeners: 0 out of 1227 total

Bangkok Departure: 119.250

VTBS Ground (All) (Archives)
Bangkok, Thailand

Feed Status: UP
Listen in your browser - HTML5 player(in browser, HTML5)
Click here to listen with your own player(launches your MP3 player)

VTBS 282030Z 26003KT 9000 FEW020 26/23 Q1006 NOSIG

VTBS Flight Activity (Flightaware)

Listeners: 0 out of 1227 total

Bangkok Ground (East): 121.650
Bangkok Ground (Main): 121.750
Bangkok Ground (West): 121.950

VTBS Ground (East) (Archives)
Bangkok, Thailand

Feed Status: UP
Listen in your browser - HTML5 player(in browser, HTML5)
Click here to listen with your own player(launches your MP3 player)

VTBS 282030Z 26003KT 9000 FEW020 26/23 Q1006 NOSIG

VTBS Flight Activity (Flightaware)

Listeners: 0 out of 1227 total

Bangkok Ground (East): 121.650

VTBS Ground (Main) (Archives)
Bangkok, Thailand

Feed Status: UP
Listen in your browser - HTML5 player(in browser, HTML5)
Click here to listen with your own player(launches your MP3 player)

VTBS 282030Z 26003KT 9000 FEW020 26/23 Q1006 NOSIG

VTBS Flight Activity (Flightaware)

Listeners: 0 out of 1227 total

Bangkok Ground (Main): 121.750

VTBS Ground (West) (Archives)
Bangkok, Thailand

Feed Status: UP
Listen in your browser - HTML5 player(in browser, HTML5)
Click here to listen with your own player(launches your MP3 player)

VTBS 282030Z 26003KT 9000 FEW020 26/23 Q1006 NOSIG

VTBS Flight Activity (Flightaware)

Listeners: 0 out of 1227 total

Bangkok Ground (West): 121.950

VTBS Tower (Archives)
Bangkok, Thailand

Feed Status: UP
Listen in your browser - HTML5 player(in browser, HTML5)
Click here to listen with your own player(launches your MP3 player)

VTBS 282030Z 26003KT 9000 FEW020 26/23 Q1006 NOSIG

VTBS Flight Activity (Flightaware)

Listeners: 0 out of 1227 total

Bangkok Tower (Rwy 01L/19R): 119.000
Bangkok Tower (Rwy 01R/19L): 118.200

VTBS Tower (Rwy 01L/19R) (Archives)
Bangkok, Thailand

Feed Status: UP
Listen in your browser - HTML5 player(in browser, HTML5)
Click here to listen with your own player(launches your MP3 player)

VTBS 282030Z 26003KT 9000 FEW020 26/23 Q1006 NOSIG

VTBS Flight Activity (Flightaware)

Listeners: 0 out of 1227 total

Bangkok Tower (Rwy 01L/19R): 119.000

VTBS Tower (Rwy 01R/19L) (Archives)
Bangkok, Thailand

Feed Status: UP
Listen in your browser - HTML5 player(in browser, HTML5)
Click here to listen with your own player(launches your MP3 player)

VTBS 282030Z 26003KT 9000 FEW020 26/23 Q1006 NOSIG

VTBS Flight Activity (Flightaware)

Listeners: 0 out of 1227 total

Bangkok Tower (Rwy 01R/19L): 118.200

VTSS Approach (Archives)
Songkhla, Thailand

Feed Status: UP
Listen in your browser - HTML5 player(in browser, HTML5)
Click here to listen with your own player(launches your MP3 player)

VTSS 282030Z 00000KT 9999 -RA FEW020 BKN100 25/25 Q1008 NOSIG

VTSS Flight Activity (Flightaware)

Listeners: 0 out of 1227 total

Hat Yai Approach: 126.700

WAHH Approach
Yogyakarta, Indonesia

Feed Status: DOWN
Offline since: 2019-01-09 17:03:03 UTC

Adisutjipto Approach: 123.400

WBKK Gnd/Twr/App
Kota Kinabalu, Malaysia

Feed Status: DOWN
Offline since: 2020-09-16 00:42:06 UTC

WBKK 282030Z VRB03KT 9999 FEW014 25/23 Q1010 NOSIG

Kinabalu Director: 119.100
Kinabalu Ground: 121.600
Kinabalu Radar: 126.100
Kinabalu Radar: 132.450
Kinabalu Tower: 118.300

WBKK Gnd/Twr/Radar/Control (Archives)
Kota Kinabalu, Malaysia

Feed Status: UP
Listen in your browser - HTML5 player(in browser, HTML5)
Click here to listen with your own player(launches your MP3 player)

WBKK 282030Z VRB03KT 9999 FEW014 25/23 Q1010 NOSIG


Listeners: 1 out of 1227 total

Kinabalu Director: 119.100
Kinabalu Ground: 121.600
Kinabalu Radar: 126.100
Kinabalu Radar: 132.450
Kinabalu Radar: 128.300
Kinabalu Tower: 118.300

WBKS Approach (Archives)
Sandakan, Malaysia

Feed Status: UP
Listen in your browser - HTML5 player(in browser, HTML5)
Click here to listen with your own player(launches your MP3 player)

WBKS 282000Z 21003KT 140V250 6000 TSRA FEW008 FEW016CB SCT040 24/23 Q1011


Listeners: 0 out of 1227 total

Sandakan Approach/Departure: 123.200

WBKS ATIS (Archives)
Sandakan, Malaysia

Feed Status: UP
Listen in your browser - HTML5 player(in browser, HTML5)
Click here to listen with your own player(launches your MP3 player)

WBKS 282000Z 21003KT 140V250 6000 TSRA FEW008 FEW016CB SCT040 24/23 Q1011


Listeners: 0 out of 1227 total

Sandakan ATIS: 128.200

WBKS Emergency/Guard (Archives)
Sandakan, Malaysia

Feed Status: UP
Listen in your browser - HTML5 player(in browser, HTML5)
Click here to listen with your own player(launches your MP3 player)

WBKS 282000Z 21003KT 140V250 6000 TSRA FEW008 FEW016CB SCT040 24/23 Q1011


Listeners: 0 out of 1227 total

Emergency/Guard: 121.500

WBKS Gnd/Twr/App/Guard (Archives)
Sandakan, Malaysia

Feed Status: UP
Listen in your browser - HTML5 player(in browser, HTML5)
Click here to listen with your own player(launches your MP3 player)

WBKS 282000Z 21003KT 140V250 6000 TSRA FEW008 FEW016CB SCT040 24/23 Q1011


Listeners: 0 out of 1227 total

Emergency/Guard: 121.500
Sandakan Approach/Departure: 123.200
Sandakan Ground: 121.900
Sandakan Tower: 122.050

WBKS Ground (Archives)
Sandakan, Malaysia

Feed Status: UP
Listen in your browser - HTML5 player(in browser, HTML5)
Click here to listen with your own player(launches your MP3 player)

WBKS 282000Z 21003KT 140V250 6000 TSRA FEW008 FEW016CB SCT040 24/23 Q1011


Listeners: 0 out of 1227 total

Sandakan Ground: 121.900

WBKS Tower (Archives)
Sandakan, Malaysia

Feed Status: UP
Listen in your browser - HTML5 player(in browser, HTML5)
Click here to listen with your own player(launches your MP3 player)

WBKS 282000Z 21003KT 140V250 6000 TSRA FEW008 FEW016CB SCT040 24/23 Q1011


Listeners: 0 out of 1227 total

Sandakan Tower: 122.050

WMKB Radar (Archives)
Penang, Malaysia

Feed Status: UP
Listen in your browser - HTML5 player(in browser, HTML5)
Click here to listen with your own player(launches your MP3 player)

WMKB 281800Z 08003KT 8000 FEW017CB 27/25 Q1009 NOSIG


Listeners: 2 out of 1227 total

Butterworth Radar: 125.800

WMKK Control/Info/Radar (Archives)
Sepang, Malaysia

Feed Status: UP
Listen in your browser - HTML5 player(in browser, HTML5)
Click here to listen with your own player(launches your MP3 player)

WMKK 282030Z VRB03KT 8000 FEW006 FEW017CB 27/26 Q1009 NOSIG


Listeners: 0 out of 1227 total

Lumpur Departure: 120.350
Lumpur Departure: 124.650
Lumpur Departure: 125.100
Lumpur Departure: 135.250
Lumpur Departure: 135.750
Lumpur Information (North): 134.650
Lumpur Information (South): 126.100
Lumpur Radar: 133.700
Lumpur Radar: 132.600
Lumpur Radar: 133.400
Lumpur Radar: 119.450
Lumpur Radar: 125.850
Lumpur Radar: 118.650
Lumpur Radar: 124.200
Lumpur Radar: 121.250
Lumpur Radar: 128.350
Lumpur Radar (East): 134.250
Lumpur Radar (North): 132.800
Lumpur Radar (South): 123.750

WMSA Del/Gnd/Twr/App (Archives)
Subang, Malaysia

Feed Status: UP
Listen in your browser - HTML5 player(in browser, HTML5)
Click here to listen with your own player(launches your MP3 player)

WMSA 282000Z 00000KT 9999 FEW026 28/25 Q1009


Listeners: 0 out of 1227 total

Lumpur Approach: 119.450
Lumpur Director: 124.200
Subang Clearance Delivery: 126.000
Subang Ground: 121.900
Subang Tower: 118.200

YADG CTAF (Archives)
Sellicks Hill, South Australia, Australia

Feed Status: UP
Listen in your browser - HTML5 player(in browser, HTML5)
Click here to listen with your own player(launches your MP3 player)

YADG Flight Activity (Flightaware)

Listeners: 0 out of 1227 total

Aldinga CTAF: 127.150

YBAF Gnd/Twr #2 (Archives)
Brisbane, Queensland, Australia

Feed Status: UP
Listen in your browser - HTML5 player(in browser, HTML5)
Click here to listen with your own player(launches your MP3 player)

YBAF Flight Activity (Flightaware)

Listeners: 1 out of 1227 total

Brisbane Ground: 119.900
Brisbane Tower (North): 123.600
Brisbane Tower/CTAF (South): 118.100

YBAS Tower/Center (Archives)
Alice Springs, Northern Territory, Australia

Feed Status: UP
Listen in your browser - HTML5 player(in browser, HTML5)
Click here to listen with your own player(launches your MP3 player)

YBAS 282030Z AUTO 00000KT 9999 // NCD 15/M05 Q1016 RF00.0/000.0

YBAS Flight Activity (Flightaware)

Listeners: 0 out of 1227 total

Alice Tower/CTAF: 118.300
Melbourne Center (above FL280): 128.850
Melbourne Center (below FL280): 119.800

YBBN Center (Archives)
Brisbane, Queensland, Australia

Feed Status: UP
Listen in your browser - HTML5 player(in browser, HTML5)
Click here to listen with your own player(launches your MP3 player)

YBBN 282030Z 28003KT 9999 FEW039 19/17 Q1011 NOSIG

YBBN Flight Activity (Flightaware)

Listeners: 2 out of 1227 total

Brisbane Center (East): 132.850
Brisbane Center (North): 123.000
Brisbane Center (South): 128.150
Brisbane Center (West): 134.300

YBBN Gnd/Twr/App/Dep #1
Brisbane, Queensland, Australia

Feed Status: DOWN
Offline since: 2020-10-28 10:03:40 UTC

YBBN 282030Z 28003KT 9999 FEW039 19/17 Q1011 NOSIG

Brisbane Approach: 123.500
Brisbane Approach/Departure (North): 124.700
Brisbane Approach/Departure (South): 125.600
Brisbane Departure: 128.300
Brisbane Departure: 133.450
Brisbane Ground: 121.700
Brisbane Tower: 120.500

YBBN Gnd/Twr/App/Dep #2 (Archives)
Brisbane, Queensland, Australia

Feed Status: UP
Listen in your browser - HTML5 player(in browser, HTML5)
Click here to listen with your own player(launches your MP3 player)

YBBN 282030Z 28003KT 9999 FEW039 19/17 Q1011 NOSIG

YBBN Flight Activity (Flightaware)

Listeners: 4 out of 1227 total

Brisbane Approach/Departure (North): 124.700
Brisbane Approach/Departure (South): 125.600
Brisbane Ground: 121.700
Brisbane Tower: 120.500

YBCG Approach (Archives)
Gold Coast City, Queensland, Australia

Feed Status: UP
Listen in your browser - HTML5 player(in browser, HTML5)
Click here to listen with your own player(launches your MP3 player)

YBCG 282030Z AUTO 25004KT 9999 // NCD 19/16 Q1011 RF00.0/003.6

YBCG Flight Activity (Flightaware)

Listeners: 0 out of 1227 total

Brisbane Approach: 123.500

YBCG Area CTAF (Archives)
Gold Coast City, Queensland, Australia

Feed Status: UP
Listen in your browser - HTML5 player(in browser, HTML5)
Click here to listen with your own player(launches your MP3 player)

YBCG 282030Z AUTO 25004KT 9999 // NCD 19/16 Q1011 RF00.0/003.6

YBCG Flight Activity (Flightaware)

Listeners: 0 out of 1227 total

Gold Coast Area CTAF: 126.700

YBCG Brisbane Centre (Archives)
Gold Coast City, Queensland, Australia

Feed Status: UP
Listen in your browser - HTML5 player(in browser, HTML5)
Click here to listen with your own player(launches your MP3 player)

YBCG 282030Z AUTO 25004KT 9999 // NCD 19/16 Q1011 RF00.0/003.6

YBCG Flight Activity (Flightaware)

Listeners: 1 out of 1227 total

Brisbane Centre/Radar: 119.500

YBCG Ground (Archives)
Gold Coast City, Queensland, Australia

Feed Status: UP
Listen in your browser - HTML5 player(in browser, HTML5)
Click here to listen with your own player(launches your MP3 player)

YBCG 282030Z AUTO 25004KT 9999 // NCD 19/16 Q1011 RF00.0/003.6

YBCG Flight Activity (Flightaware)

Listeners: 0 out of 1227 total

Gold Coast Ground: 121.800

YBCG Ground/Tower (Archives)
Gold Coast City, Queensland, Australia

Feed Status: UP
Listen in your browser - HTML5 player(in browser, HTML5)
Click here to listen with your own player(launches your MP3 player)

YBCG 282030Z AUTO 25004KT 9999 // NCD 19/16 Q1011 RF00.0/003.6

YBCG Flight Activity (Flightaware)

Listeners: 1 out of 1227 total

Gold Coast Ground: 121.800
Gold Coast Tower: 118.700

YBCG Tower (Archives)
Gold Coast City, Queensland, Australia

Feed Status: UP
Listen in your browser - HTML5 player(in browser, HTML5)
Click here to listen with your own player(launches your MP3 player)

YBCG 282030Z AUTO 25004KT 9999 // NCD 19/16 Q1011 RF00.0/003.6

YBCG Flight Activity (Flightaware)

Listeners: 0 out of 1227 total

Gold Coast Tower: 118.700

YBCS App/Dep #1 (Archives)
Cairns, Queensland, Australia

Feed Status: UP
Listen in your browser - HTML5 player(in browser, HTML5)
Click here to listen with your own player(launches your MP3 player)

YBCS 282030Z AUTO 00000KT 9999 // SCT089 23/20 Q1012 NOSIG

YBCS Flight Activity (Flightaware)

Listeners: 0 out of 1227 total

Cairns Approach/Departure: 118.400

YBCS App/Dep #2 (Archives)
Cairns, Queensland, Australia

Feed Status: UP
Listen in your browser - HTML5 player(in browser, HTML5)
Click here to listen with your own player(launches your MP3 player)

YBCS 282030Z AUTO 00000KT 9999 // SCT089 23/20 Q1012 NOSIG

YBCS Flight Activity (Flightaware)

Listeners: 0 out of 1227 total

Cairns Approach/Departure: 126.100

YBCS App/Dep (all) (Archives)
Cairns, Queensland, Australia

Feed Status: UP
Listen in your browser - HTML5 player(in browser, HTML5)
Click here to listen with your own player(launches your MP3 player)

YBCS 282030Z AUTO 00000KT 9999 // SCT089 23/20 Q1012 NOSIG

YBCS Flight Activity (Flightaware)

Listeners: 0 out of 1227 total

Cairns Approach/Departure: 126.100
Cairns Approach/Departure: 118.400

YBCS Brisbane Centre (Archives)
Cairns, Queensland, Australia

Feed Status: UP
Listen in your browser - HTML5 player(in browser, HTML5)
Click here to listen with your own player(launches your MP3 player)

YBCS 282030Z AUTO 00000KT 9999 // SCT089 23/20 Q1012 NOSIG

YBCS Flight Activity (Flightaware)

Listeners: 1 out of 1227 total

Brisbane Centre: 121.200

YBCS Emergency/Guard (Archives)
Cairns, Queensland, Australia

Feed Status: UP
Listen in your browser - HTML5 player(in browser, HTML5)
Click here to listen with your own player(launches your MP3 player)

YBCS 282030Z AUTO 00000KT 9999 // SCT089 23/20 Q1012 NOSIG

YBCS Flight Activity (Flightaware)

Listeners: 0 out of 1227 total

Emergency/Guard: 121.500

YBCS Ground (Archives)
Cairns, Queensland, Australia

Feed Status: UP
Listen in your browser - HTML5 player(in browser, HTML5)
Click here to listen with your own player(launches your MP3 player)

YBCS 282030Z AUTO 00000KT 9999 // SCT089 23/20 Q1012 NOSIG

YBCS Flight Activity (Flightaware)

Listeners: 0 out of 1227 total

Cairns Ground: 121.700

YBCS Ground/Tower (Archives)
Cairns, Queensland, Australia

Feed Status: UP
Listen in your browser - HTML5 player(in browser, HTML5)
Click here to listen with your own player(launches your MP3 player)

YBCS 282030Z AUTO 00000KT 9999 // SCT089 23/20 Q1012 NOSIG

YBCS Flight Activity (Flightaware)

Listeners: 0 out of 1227 total

Cairns Ground: 121.700
Cairns Tower: 124.900

YBCS Tower (Archives)
Cairns, Queensland, Australia

Feed Status: UP
Listen in your browser - HTML5 player(in browser, HTML5)
Click here to listen with your own player(launches your MP3 player)

YBCS 282030Z AUTO 00000KT 9999 // SCT089 23/20 Q1012 NOSIG

YBCS Flight Activity (Flightaware)

Listeners: 0 out of 1227 total

Cairns Tower: 124.900

YBCV CTAF/Brisbane Center (Archives)
Charleville, Queensland, Australia

Feed Status: UP
Listen in your browser - HTML5 player(in browser, HTML5)
Click here to listen with your own player(launches your MP3 player)

YBCV 282000Z AUTO 35003KT 9999 // NCD 12/M01 Q1014

YBCV Flight Activity (Flightaware)

Listeners: 1 out of 1227 total

Brisbane Center: 124.800
Charleville CTAF/UNICOM: 126.700

YBDG CTAF
Bendigo, Victoria, Australia

Feed Status: DOWN
Offline since: 2020-10-28 10:33:22 UTC

Bendigo CTAF: 119.300

YBOK Del/Gnd/Twr/App (Archives)
Oakey, Queensland, Australia

Feed Status: UP
Listen in your browser - HTML5 player(in browser, HTML5)
Click here to listen with your own player(launches your MP3 player)

YBOK Flight Activity (Flightaware)

Listeners: 1 out of 1227 total

Brisbane Center/FSS: 121.200
Oakey Approach: 125.400
Oakey Approach: 123.700
Oakey Approach (Final): 135.850
Oakey Clearance Delivery: 133.350
Oakey CTAF (+YTWB/YBWW): 127.650
Oakey Ground: 121.900
Oakey Tower: 120.100

YBSS CTAF (Archives)
Bacchus Marsh, Victoria, Australia

Feed Status: UP
Listen in your browser - HTML5 player(in browser, HTML5)
Click here to listen with your own player(launches your MP3 player)

YBSS Flight Activity (Flightaware)

Listeners: 0 out of 1227 total

Bacchus Marsh CTAF: 118.800

YBSS Glider 122.5 (Archives)
Bacchus Marsh, Victoria, Australia

Feed Status: UP
Listen in your browser - HTML5 player(in browser, HTML5)
Click here to listen with your own player(launches your MP3 player)

YBSS Flight Activity (Flightaware)

Listeners: 0 out of 1227 total

Bacchus Marsh Glider Chat: 122.500

YBSS Glider 122.7 (Archives)
Bacchus Marsh, Victoria, Australia

Feed Status: UP
Listen in your browser - HTML5 player(in browser, HTML5)
Click here to listen with your own player(launches your MP3 player)

YBSS Flight Activity (Flightaware)

Listeners: 0 out of 1227 total

Bacchus Marsh Glider Chat: 122.700

YBSS Glider 122.9 (Archives)
Bacchus Marsh, Victoria, Australia

Feed Status: UP
Listen in your browser - HTML5 player(in browser, HTML5)
Click here to listen with your own player(launches your MP3 player)

YBSS Flight Activity (Flightaware)

Listeners: 0 out of 1227 total

Bacchus Marsh Glider Chat: 122.900

YBTL Approach/Departure (Archives)
Townsville, Queensland, Australia

Feed Status: UP
Listen in your browser - HTML5 player(in browser, HTML5)
Click here to listen with your own player(launches your MP3 player)

YBTL 282030Z 00000KT 9999 FEW016 24/22 Q1012 NOSIG

YBTL Flight Activity (Flightaware)

Listeners: 0 out of 1227 total

Townsville Approach/Departure: 126.800

YBTL ATIS (Archives)
Townsville, Queensland, Australia

Feed Status: UP
Listen in your browser - HTML5 player(in browser, HTML5)
Click here to listen with your own player(launches your MP3 player)

YBTL 282030Z 00000KT 9999 FEW016 24/22 Q1012 NOSIG

YBTL Flight Activity (Flightaware)

Listeners: 0 out of 1227 total

Townsville ATIS: 133.500

YBTL Brisbane Center (Archives)
Townsville, Queensland, Australia

Feed Status: UP
Listen in your browser - HTML5 player(in browser, HTML5)
Click here to listen with your own player(launches your MP3 player)

YBTL 282030Z 00000KT 9999 FEW016 24/22 Q1012 NOSIG

YBTL Flight Activity (Flightaware)

Listeners: 2 out of 1227 total

Brisbane Center: 120.550

YBTL Clearance Delivery (Archives)
Townsville, Queensland, Australia

Feed Status: UP
Listen in your browser - HTML5 player(in browser, HTML5)
Click here to listen with your own player(launches your MP3 player)

YBTL 282030Z 00000KT 9999 FEW016 24/22 Q1012 NOSIG

YBTL Flight Activity (Flightaware)

Listeners: 0 out of 1227 total

Townsville Clearance Delivery: 128.100

YBTL Ground (Archives)
Townsville, Queensland, Australia

Feed Status: UP
Listen in your browser - HTML5 player(in browser, HTML5)
Click here to listen with your own player(launches your MP3 player)

YBTL 282030Z 00000KT 9999 FEW016 24/22 Q1012 NOSIG

YBTL Flight Activity (Flightaware)

Listeners: 0 out of 1227 total

Townsville Ground: 119.450

YBTL Tower (Archives)
Townsville, Queensland, Australia

Feed Status: UP
Listen in your browser - HTML5 player(in browser, HTML5)
Click here to listen with your own player(launches your MP3 player)

YBTL 282030Z 00000KT 9999 FEW016 24/22 Q1012 NOSIG

YBTL Flight Activity (Flightaware)

Listeners: 0 out of 1227 total

Townsville Tower: 118.300

YGAW CTAF (Archives)
Gawler, South Australia, Australia

Feed Status: UP
Listen in your browser - HTML5 player(in browser, HTML5)
Click here to listen with your own player(launches your MP3 player)

METAR NOT AVAILABLE

YGAW Flight Activity (Flightaware)

Listeners: 0 out of 1227 total

Gawler CTAF: 126.550

YGLA CTAF (Archives)
Gladstone, Queensland, Australia

Feed Status: UP
Listen in your browser - HTML5 player(in browser, HTML5)
Click here to listen with your own player(launches your MP3 player)

YGLA 282030Z AUTO 00000KT 9999 // SCT030 BKN036 BKN042 21/18 Q1013

YGLA Flight Activity (Flightaware)

Listeners: 0 out of 1227 total

Gladstone CTF/Multicom: 118.800

YGTH AWIS (Archives)
Griffith, New South Wales, Australia

Feed Status: UP
Listen in your browser - HTML5 player(in browser, HTML5)
Click here to listen with your own player(launches your MP3 player)

YGTH 282000Z AUTO 10008KT 9999 // NCD 11/10 Q1012

YGTH Flight Activity (Flightaware)

Listeners: 0 out of 1227 total

Griffith AWIS Weather: 132.950

YGTH CTAF (Archives)
Griffith, New South Wales, Australia

Feed Status: UP
Listen in your browser - HTML5 player(in browser, HTML5)
Click here to listen with your own player(launches your MP3 player)

YGTH 282000Z AUTO 10008KT 9999 // NCD 11/10 Q1012

YGTH Flight Activity (Flightaware)

Listeners: 0 out of 1227 total

Griffith CTAF: 126.550

YIVL CTAF/Center (Archives)
Inverell, New South Wales, Australia

Feed Status: UP
Listen in your browser - HTML5 player(in browser, HTML5)
Click here to listen with your own player(launches your MP3 player)

YIVL Flight Activity (Flightaware)

Listeners: 0 out of 1227 total

Brisbane Center: 132.350
Brisbane Center: 127.100
Brisbane Center: 130.900
Brisbane Center (high alt SE Inverell): 130.100
Brisbane Center (high alt): 133.000
Brisbane Center (NE Inverell): 134.200
Brisbane Center (North and East Inverell): 127.200
Brisbane Center (North Inverell high alt): 135.600
Brisbane Center (North Inverell): 121.200
Brisbane Center (SE Inverell): 125.750
Inverell CTAF: 126.700
Tamworth Tower: 119.400

YMHB Gnd/Twr/Centre (Archives)
Cambridge, Tasmania, Australia

Feed Status: UP
Listen in your browser - HTML5 player(in browser, HTML5)
Click here to listen with your own player(launches your MP3 player)

YMHB 282030Z 31006KT 9999 FEW036 11/08 Q1016

YMHB Flight Activity (Flightaware)

Listeners: 0 out of 1227 total

Hobart Ground: 121.700
Hobart Tower: 118.100
Melbourne Centre: 125.550

YMIA CTAF/Melbourne Center
Mildura, Victoria, Australia

Feed Status: DOWN
Offline since: 2020-08-15 09:25:06 UTC

YMIA 282000Z AUTO 08005KT 9999 // NCD 12/07 Q1011

Melbourne Center: 112.100
Melbourne Center: 132.600
Mildura CTAF: 118.800

YMML Twr/App/Center (Archives)
Melbourne, Victoria, Australia

Feed Status: UP
Listen in your browser - HTML5 player(in browser, HTML5)
Click here to listen with your own player(launches your MP3 player)

YMML 282030Z 02005KT CAVOK 11/10 Q1012 NOSIG

YMML Flight Activity (Flightaware)

Listeners: 3 out of 1227 total

Air Ambulance: 132.750
DSE & Other Company: 119.100
Essendon Tower: 125.100
Inter-Pilot: 123.450
Jetstar Company: 130.925
Melbourne ACD: 127.200
Melbourne Approach: 132.000
Melbourne Centre: 130.300
Melbourne Centre: 128.500
Melbourne Centre: 126.800
Melbourne Centre: 125.800
Melbourne Centre: 125.700
Melbourne Centre: 125.200
Melbourne Centre: 123.750
Melbourne Centre: 122.400
Melbourne Departure: 118.900
Melbourne Departure: 129.400
Melbourne Tower: 120.500
Moorabbin Tower (East): 118.100
Moorabbin Tower (West): 123.000
Police Air Wing: 131.600
Qantas Company: 130.850
Qantas Company: 129.500
Rex Company: 126.450
Royal Victorian Aero Club Company: 128.700
Royal Victorian Aero Club Company: 133.400

YPAD Del/Gnd/Twr/App (Archives)
Adelaide, South Australia, Australia

Feed Status: UP
Listen in your browser - HTML5 player(in browser, HTML5)
Click here to listen with your own player(launches your MP3 player)

YPAD 282030Z 33003KT CAVOK 17/06 Q1011 NOSIG

YPAD Flight Activity (Flightaware)

Listeners: 0 out of 1227 total

Adelaide Approach (East of Adelaide): 118.200
Adelaide Approach (East of Adelaide): 130.450
Adelaide Approach (Kangaroo Island): 123.050
Adelaide Approach (North of Adelaide): 128.600
Adelaide Approach (West of Adelaide): 124.200
Adelaide Clearance Delivery: 126.100
Adelaide Ground: 121.700
Adelaide Tower: 120.500

YPAD Gnd/Twr/App/Center (Archives)
Adelaide, South Australia, Australia

Feed Status: UP
Listen in your browser - HTML5 player(in browser, HTML5)
Click here to listen with your own player(launches your MP3 player)

YPAD 282030Z 33003KT CAVOK 17/06 Q1011 NOSIG

YPAD Flight Activity (Flightaware)

Listeners: 3 out of 1227 total

Adelaide Approach (East of Adelaide): 118.200
Adelaide Approach (East of Adelaide): 130.450
Adelaide Approach (Kangaroo Island): 123.050
Adelaide Approach (North of Adelaide): 128.600
Adelaide Approach (West of Adelaide): 124.200
Adelaide Clearance Delivery: 126.100
Adelaide Ground: 121.700
Adelaide Tower: 120.500
Flight Watch: 135.750
Melbourne Centre: 124.300
Melbourne Centre ( East of Adelaide): 125.300
Melbourne Centre ( Pt Augusta, Pt Pirie, Whyalla): 123.900
Melbourne Centre (Mildura): 122.100
Melbourne Centre (North of Adelaide): 122.400
Melbourne Centre (Pt Lincoln): 125.900
Melbourne Centre (West of Adelaide ): 127.050

YPDN Gnd/Twr/App/Dep (Archives)
Darwin, Northern Territory, Australia

Feed Status: UP
Listen in your browser - HTML5 player(in browser, HTML5)
Click here to listen with your own player(launches your MP3 player)

YPDN 282030Z 10004KT CAVOK 24/22 Q1012 NOSIG

YPDN Flight Activity (Flightaware)

Listeners: 5 out of 1227 total

Darwin Approach: 134.100
Darwin Arrival: 125.200
Darwin Departure: 119.550
Darwin Ground: 121.800
Darwin Tower: 133.100

YPJT Gnd/Twr (Archives)
Perth, Western Australia, Australia

Feed Status: UP
Listen in your browser - HTML5 player(in browser, HTML5)
Click here to listen with your own player(launches your MP3 player)

YPJT 282030Z AUTO 10012KT 9999 // NCD 14/08 Q1020 RF00.0/000.0

YPJT Flight Activity (Flightaware)

Listeners: 0 out of 1227 total

Jandakot Ground: 124.300
Jandakot Tower: 119.400
Jandakot Tower/CTAF: 118.100

YPMQ CTAF (Archives)
Port Macquarie, New South Wales, Australia

Feed Status: UP
Listen in your browser - HTML5 player(in browser, HTML5)
Click here to listen with your own player(launches your MP3 player)

YPMQ Flight Activity (Flightaware)

Listeners: 0 out of 1227 total

Port Macquarie CTAF/Multicom: 118.100

YPPF Ground (Archives)
Parafield, South Australia, Australia

Feed Status: UP
Listen in your browser - HTML5 player(in browser, HTML5)
Click here to listen with your own player(launches your MP3 player)

YPPF Flight Activity (Flightaware)

Listeners: 0 out of 1227 total

Parafield Ground: 119.900

YPPF Tower #1 (Archives)
Parafield, South Australia, Australia

Feed Status: UP
Listen in your browser - HTML5 player(in browser, HTML5)
Click here to listen with your own player(launches your MP3 player)

YPPF Flight Activity (Flightaware)

Listeners: 0 out of 1227 total

Parafield Tower: 118.700

YPPF Tower #2 (Archives)
Parafield, South Australia, Australia

Feed Status: UP
Listen in your browser - HTML5 player(in browser, HTML5)
Click here to listen with your own player(launches your MP3 player)

YPPF Flight Activity (Flightaware)

Listeners: 0 out of 1227 total

Parafield Tower: 124.600

YPPH Approach
Perth, Western Australia, Australia

Feed Status: DOWN
Offline since: 2020-10-01 04:24:40 UTC

YPPH 282033Z 10025G35KT CAVOK 15/07 Q1019

Perth Approach: 123.600

YPPH Departure
Perth, Western Australia, Australia

Feed Status: DOWN
Offline since: 2020-10-01 04:24:40 UTC

YPPH 282033Z 10025G35KT CAVOK 15/07 Q1019

Perth Departure: 118.700

YPPH Ground
Perth, Western Australia, Australia

Feed Status: DOWN
Offline since: 2020-10-01 04:24:40 UTC

YPPH 282033Z 10025G35KT CAVOK 15/07 Q1019

Perth Ground: 121.700

YPPH Tower
Perth, Western Australia, Australia

Feed Status: DOWN
Offline since: 2020-10-01 04:24:40 UTC

YPPH 282033Z 10025G35KT CAVOK 15/07 Q1019

Perth Tower: 127.400

YRYW 122.5 (Archives)
Raywood, Victoria, Australia

Feed Status: UP
Listen in your browser - HTML5 player(in browser, HTML5)
Click here to listen with your own player(launches your MP3 player)

METAR NOT AVAILABLE

YRYW Flight Activity (Flightaware)

Listeners: 0 out of 1227 total


YRYW 122.7 (Archives)
Raywood, Victoria, Australia

Feed Status: UP
Listen in your browser - HTML5 player(in browser, HTML5)
Click here to listen with your own player(launches your MP3 player)

METAR NOT AVAILABLE

YRYW Flight Activity (Flightaware)

Listeners: 0 out of 1227 total


YRYW 122.9 (Archives)
Raywood, Victoria, Australia

Feed Status: UP
Listen in your browser - HTML5 player(in browser, HTML5)
Click here to listen with your own player(launches your MP3 player)

METAR NOT AVAILABLE

YRYW Flight Activity (Flightaware)

Listeners: 0 out of 1227 total


YRYW CTAF (Archives)
Raywood, Victoria, Australia

Feed Status: UP
Listen in your browser - HTML5 player(in browser, HTML5)
Click here to listen with your own player(launches your MP3 player)

METAR NOT AVAILABLE

YRYW Flight Activity (Flightaware)

Listeners: 0 out of 1227 total

Raywood CTAF: 126.700

YSBK ATIS (Archives)
Bankstown, New South Wales, Australia

Feed Status: UP
Listen in your browser - HTML5 player(in browser, HTML5)
Click here to listen with your own player(launches your MP3 player)

YSBK Flight Activity (Flightaware)

Listeners: 1 out of 1227 total

Bankstown ATIS: 120.900

YSBK Tower (Archives)
Bankstown, New South Wales, Australia

Feed Status: UP
Listen in your browser - HTML5 player(in browser, HTML5)
Click here to listen with your own player(launches your MP3 player)

YSBK Flight Activity (Flightaware)

Listeners: 2 out of 1227 total

Bankstown Tower: 132.800

YSCB App/Dep (Archives)
Canberra, Australian Capital Territory, Australia

Feed Status: UP
Listen in your browser - HTML5 player(in browser, HTML5)
Click here to listen with your own player(launches your MP3 player)

YSCB 282030Z AUTO 09002KT 9999 // NCD 09/09 Q1014

YSCB Flight Activity (Flightaware)

Listeners: 0 out of 1227 total

Canberra Approach/Departure: 124.500

YSCB App/Dep/Center (Archives)
Canberra, Australian Capital Territory, Australia

Feed Status: UP
Listen in your browser - HTML5 player(in browser, HTML5)
Click here to listen with your own player(launches your MP3 player)

YSCB 282030Z AUTO 09002KT 9999 // NCD 09/09 Q1014

YSCB Flight Activity (Flightaware)

Listeners: 0 out of 1227 total

Melbourne Center: 125.900

YSCB ATIS (Archives)
Canberra, Australian Capital Territory, Australia

Feed Status: UP
Listen in your browser - HTML5 player(in browser, HTML5)
Click here to listen with your own player(launches your MP3 player)

YSCB 282030Z AUTO 09002KT 9999 // NCD 09/09 Q1014

YSCB Flight Activity (Flightaware)

Listeners: 1 out of 1227 total

Canberra ATIS: 127.450

YSCB Ground/Tower (Archives)
Canberra, Australian Capital Territory, Australia

Feed Status: UP
Listen in your browser - HTML5 player(in browser, HTML5)
Click here to listen with your own player(launches your MP3 player)

YSCB 282030Z AUTO 09002KT 9999 // NCD 09/09 Q1014

YSCB Flight Activity (Flightaware)

Listeners: 0 out of 1227 total

Canberra Ground: 121.700
Canberra Tower: 118.700

YSCB Melbourne Center (Archives)
Canberra, Australian Capital Territory, Australia

Feed Status: UP
Listen in your browser - HTML5 player(in browser, HTML5)
Click here to listen with your own player(launches your MP3 player)

YSCB 282030Z AUTO 09002KT 9999 // NCD 09/09 Q1014

YSCB Flight Activity (Flightaware)

Listeners: 0 out of 1227 total

Melbourne Center: 128.400

YSCN Tower/CTAF
Camden, New South Wales, Australia

Feed Status: DOWN
Offline since: 2020-10-17 04:22:22 UTC

Camden Tower/CTAF: 120.100

YSNW Gnd/CTAF/App/Center (Archives)
Nowra, New South Wales, Australia

Feed Status: UP
Listen in your browser - HTML5 player(in browser, HTML5)
Click here to listen with your own player(launches your MP3 player)

YSNW 282000Z 30005KT 9999 -RA FEW030 SCT039 14/14 Q1013 NOSIG

YSNW Flight Activity (Flightaware)

Listeners: 1 out of 1227 total

Enroute: 132.300
Nowra Approach: 123.500
Nowra CTAF: 118.850
Nowra Ground: 135.850

YSSY Approach (North/East) (Archives)
Sydney, New South Wales, Australia

Feed Status: UP
Listen in your browser - HTML5 player(in browser, HTML5)
Click here to listen with your own player(launches your MP3 player)

YSSY 282300Z 20006KT 9999 VCSH BKN012 BKN080 18/15 Q1013

YSSY Flight Activity (Flightaware)

Listeners: 0 out of 1227 total

Sydney Approach (North/East): 124.400

YSSY Approach (South) (Archives)
Sydney, New South Wales, Australia

Feed Status: UP
Listen in your browser - HTML5 player(in browser, HTML5)
Click here to listen with your own player(launches your MP3 player)

YSSY 282300Z 20006KT 9999 VCSH BKN012 BKN080 18/15 Q1013

YSSY Flight Activity (Flightaware)

Listeners: 0 out of 1227 total

Sydney Approach (South/West): 128.300

YSSY ATIS (Archives)
Sydney, New South Wales, Australia

Feed Status: UP
Listen in your browser - HTML5 player(in browser, HTML5)
Click here to listen with your own player(launches your MP3 player)

YSSY 282300Z 20006KT 9999 VCSH BKN012 BKN080 18/15 Q1013

YSSY Flight Activity (Flightaware)

Listeners: 0 out of 1227 total

Sydney ATIS: 118.550

YSSY Center (South/West) (Archives)
Sydney, New South Wales, Australia

Feed Status: UP
Listen in your browser - HTML5 player(in browser, HTML5)
Click here to listen with your own player(launches your MP3 player)

YSSY 282300Z 20006KT 9999 VCSH BKN012 BKN080 18/15 Q1013

YSSY Flight Activity (Flightaware)

Listeners: 1 out of 1227 total

Sydney Center: 124.550

YSSY Del/Gnd (Archives)
Sydney, New South Wales, Australia

Feed Status: UP
Listen in your browser - HTML5 player(in browser, HTML5)
Click here to listen with your own player(launches your MP3 player)

YSSY 282300Z 20006KT 9999 VCSH BKN012 BKN080 18/15 Q1013

YSSY Flight Activity (Flightaware)

Listeners: 1 out of 1227 total

Sydney Clearance Delivery: 133.800
Sydney Ground (East of Rwys 16R/34L): 121.700
Sydney Ground (West of Rwys 16R/34L): 126.500

YSSY Departure (North/East) (Archives)
Sydney, New South Wales, Australia

Feed Status: UP
Listen in your browser - HTML5 player(in browser, HTML5)
Click here to listen with your own player(launches your MP3 player)

YSSY 282300Z 20006KT 9999 VCSH BKN012 BKN080 18/15 Q1013

YSSY Flight Activity (Flightaware)

Listeners: 0 out of 1227 total

Sydney Departure (North/East): 123.000

YSSY Departure (South/West) (Archives)
Sydney, New South Wales, Australia

Feed Status: UP
Listen in your browser - HTML5 player(in browser, HTML5)
Click here to listen with your own player(launches your MP3 player)

YSSY 282300Z 20006KT 9999 VCSH BKN012 BKN080 18/15 Q1013

YSSY Flight Activity (Flightaware)

Listeners: 0 out of 1227 total

Sydney Departure (Rte S, W and NW): 129.700

YSSY Director (Both)
Sydney, New South Wales, Australia

Feed Status: DOWN
Offline since: 2020-04-14 09:59:06 UTC

YSSY 282300Z 20006KT 9999 VCSH BKN012 BKN080 18/15 Q1013

Sydney Director (East): 125.300
Sydney Director (West): 126.100

YSSY Director (East) (Archives)
Sydney, New South Wales, Australia

Feed Status: UP
Listen in your browser - HTML5 player(in browser, HTML5)
Click here to listen with your own player(launches your MP3 player)

YSSY 282300Z 20006KT 9999 VCSH BKN012 BKN080 18/15 Q1013

YSSY Flight Activity (Flightaware)

Listeners: 0 out of 1227 total

Sydney Director (East): 125.300

YSSY Tower (Both) (Archives)
Sydney, New South Wales, Australia

Feed Status: UP
Listen in your browser - HTML5 player(in browser, HTML5)
Click here to listen with your own player(launches your MP3 player)

YSSY 282300Z 20006KT 9999 VCSH BKN012 BKN080 18/15 Q1013

YSSY Flight Activity (Flightaware)

Listeners: 1 out of 1227 total

Sydney Tower (Rwy 16L/34R): 124.700
Sydney Tower (Rwy 16R/34L, Rwy 07/25): 120.500

YSSY Tower (Rwy 16L/34R) (Archives)
Sydney, New South Wales, Australia

Feed Status: UP
Listen in your browser - HTML5 player(in browser, HTML5)
Click here to listen with your own player(launches your MP3 player)

YSSY 282300Z 20006KT 9999 VCSH BKN012 BKN080 18/15 Q1013

YSSY Flight Activity (Flightaware)

Listeners: 0 out of 1227 total

Sydney Tower (Rwy 16L/34R): 124.700

YSSY Tower (Rwys 16R/34L,7/25) (Archives)
Sydney, New South Wales, Australia

Feed Status: UP
Listen in your browser - HTML5 player(in browser, HTML5)
Click here to listen with your own player(launches your MP3 player)

YSSY 282300Z 20006KT 9999 VCSH BKN012 BKN080 18/15 Q1013

YSSY Flight Activity (Flightaware)

Listeners: 0 out of 1227 total

Sydney Tower (Rwy 16R/34L, Rwy 07/25): 120.500

YSSY/YMMB/YBBN Centers (Archives)
Sydney, New South Wales, Australia

Feed Status: UP
Listen in your browser - HTML5 player(in browser, HTML5)
Click here to listen with your own player(launches your MP3 player)


Listeners: 5 out of 1227 total

Brisbane Center: 123.400
Brisbane Center: 128.600
Melbourne Center: 133.500
Melbourne Center: 118.500
Sydney Departures: 118.400

ZBAA Tower (Archives)
Beijing, China

Feed Status: UP
Listen in your browser - HTML5 player(in browser, HTML5)
Click here to listen with your own player(launches your MP3 player)

ZBAA 282030Z 00000MPS CAVOK 01/M01 Q1027 NOSIG


Listeners: 4 out of 1227 total

Beijing Tower (Rwy 01/19): 118.600

ZYCY Tower
Chaoyang, China

Feed Status: DOWN
Offline since: 2020-07-23 03:04:23 UTC

ZYCY 140700Z 25002MPS CAVOK 29/16 Q1006 NOSIG

Chaoyang Tower: 118.350